<?xml version="1.0" encoding="UTF-8" standalone="no" ?>
<gpx xmlns="http://www.topografix.com/GPX/1/1" xmlns:xsi="http://www.w3.org/2001/XMLSchema-instance" xsi:schemaLocation="http://www.topografix.com/GPX/1/1 http://www.topografix.com/GPX/1/1/gpx.xsd" version="1.1" creator="VisuGPX - https://www.visugpx.com">
  <metadata>
    <name>VTT dans le ravin du Perthus</name>
    <desc><![CDATA[Voilà une petite randonnée dans le massife de l'Esterel pour aller découvrir le ravin du Perthus une très belle randonnée avec de beaux points de vue sur le massif
vidéo
https://www.youtube.com/watch?v=YAG_4Lk0jQ4]]></desc>
  </metadata>
  <trk>
    <name><![CDATA[Saint-Raphaël Vélo électrique]]></name>
    <trkseg>
      <trkpt lat="43.45497" lon="6.83178">
        <ele>74.599998474121</ele>
        <time>2022-06-27T08:44:34.000Z</time>
      </trkpt>
      <trkpt lat="43.45503" lon="6.83146">
        <ele>63.599998474121</ele>
        <time>2022-06-27T08:44:41.000Z</time>
      </trkpt>
      <trkpt lat="43.45511" lon="6.8311">
        <ele>63.599998474121</ele>
        <time>2022-06-27T08:44:47.000Z</time>
      </trkpt>
      <trkpt lat="43.45519" lon="6.83071">
        <ele>62.400001525879</ele>
        <time>2022-06-27T08:44:53.000Z</time>
      </trkpt>
      <trkpt lat="43.45524" lon="6.83052">
        <ele>62</ele>
        <time>2022-06-27T08:44:56.000Z</time>
      </trkpt>
      <trkpt lat="43.45528" lon="6.83023">
        <ele>61.200000762939</ele>
        <time>2022-06-27T08:45:00.000Z</time>
      </trkpt>
      <trkpt lat="43.45528" lon="6.83002">
        <ele>60.599998474121</ele>
        <time>2022-06-27T08:45:03.000Z</time>
      </trkpt>
      <trkpt lat="43.45529" lon="6.82988">
        <ele>59.599998474121</ele>
        <time>2022-06-27T08:45:05.000Z</time>
      </trkpt>
      <trkpt lat="43.4553" lon="6.82966">
        <ele>58.799999237061</ele>
        <time>2022-06-27T08:45:08.000Z</time>
      </trkpt>
      <trkpt lat="43.45532" lon="6.82959">
        <ele>58.599998474121</ele>
        <time>2022-06-27T08:45:09.000Z</time>
      </trkpt>
      <trkpt lat="43.45535" lon="6.82953">
        <ele>58.400001525879</ele>
        <time>2022-06-27T08:45:10.000Z</time>
      </trkpt>
      <trkpt lat="43.45544" lon="6.82947">
        <ele>58</ele>
        <time>2022-06-27T08:45:12.000Z</time>
      </trkpt>
      <trkpt lat="43.45554" lon="6.82953">
        <ele>57.599998474121</ele>
        <time>2022-06-27T08:45:14.000Z</time>
      </trkpt>
      <trkpt lat="43.45558" lon="6.8296">
        <ele>57.200000762939</ele>
        <time>2022-06-27T08:45:15.000Z</time>
      </trkpt>
      <trkpt lat="43.45569" lon="6.82987">
        <ele>56.400001525879</ele>
        <time>2022-06-27T08:45:19.000Z</time>
      </trkpt>
      <trkpt lat="43.45573" lon="6.83001">
        <ele>56</ele>
        <time>2022-06-27T08:45:21.000Z</time>
      </trkpt>
      <trkpt lat="43.45579" lon="6.83022">
        <ele>55</ele>
        <time>2022-06-27T08:45:24.000Z</time>
      </trkpt>
      <trkpt lat="43.4558" lon="6.8303">
        <ele>54.799999237061</ele>
        <time>2022-06-27T08:45:25.000Z</time>
      </trkpt>
      <trkpt lat="43.45583" lon="6.83046">
        <ele>53.799999237061</ele>
        <time>2022-06-27T08:45:27.000Z</time>
      </trkpt>
      <trkpt lat="43.45586" lon="6.83071">
        <ele>52.599998474121</ele>
        <time>2022-06-27T08:45:30.000Z</time>
      </trkpt>
      <trkpt lat="43.45588" lon="6.83088">
        <ele>51.799999237061</ele>
        <time>2022-06-27T08:45:32.000Z</time>
      </trkpt>
      <trkpt lat="43.45588" lon="6.83097">
        <ele>51.400001525879</ele>
        <time>2022-06-27T08:45:33.000Z</time>
      </trkpt>
      <trkpt lat="43.45593" lon="6.83126">
        <ele>49.799999237061</ele>
        <time>2022-06-27T08:45:36.000Z</time>
      </trkpt>
      <trkpt lat="43.45595" lon="6.83135">
        <ele>49.599998474121</ele>
        <time>2022-06-27T08:45:37.000Z</time>
      </trkpt>
      <trkpt lat="43.45606" lon="6.83164">
        <ele>48.400001525879</ele>
        <time>2022-06-27T08:45:40.000Z</time>
      </trkpt>
      <trkpt lat="43.45615" lon="6.8318">
        <ele>47.400001525879</ele>
        <time>2022-06-27T08:45:42.000Z</time>
      </trkpt>
      <trkpt lat="43.45619" lon="6.83188">
        <ele>46.799999237061</ele>
        <time>2022-06-27T08:45:43.000Z</time>
      </trkpt>
      <trkpt lat="43.45631" lon="6.83213">
        <ele>45.400001525879</ele>
        <time>2022-06-27T08:45:46.000Z</time>
      </trkpt>
      <trkpt lat="43.45639" lon="6.83229">
        <ele>44.599998474121</ele>
        <time>2022-06-27T08:45:48.000Z</time>
      </trkpt>
      <trkpt lat="43.45643" lon="6.83237">
        <ele>44.400001525879</ele>
        <time>2022-06-27T08:45:49.000Z</time>
      </trkpt>
      <trkpt lat="43.45653" lon="6.83264">
        <ele>43</ele>
        <time>2022-06-27T08:45:52.000Z</time>
      </trkpt>
      <trkpt lat="43.45659" lon="6.83283">
        <ele>42</ele>
        <time>2022-06-27T08:45:54.000Z</time>
      </trkpt>
      <trkpt lat="43.45668" lon="6.83322">
        <ele>40.799999237061</ele>
        <time>2022-06-27T08:45:58.000Z</time>
      </trkpt>
      <trkpt lat="43.45675" lon="6.83352">
        <ele>39.799999237061</ele>
        <time>2022-06-27T08:46:01.000Z</time>
      </trkpt>
      <trkpt lat="43.45677" lon="6.83362">
        <ele>39.200000762939</ele>
        <time>2022-06-27T08:46:02.000Z</time>
      </trkpt>
      <trkpt lat="43.45679" lon="6.83372">
        <ele>38.799999237061</ele>
        <time>2022-06-27T08:46:03.000Z</time>
      </trkpt>
      <trkpt lat="43.45685" lon="6.834">
        <ele>37.799999237061</ele>
        <time>2022-06-27T08:46:06.000Z</time>
      </trkpt>
      <trkpt lat="43.45687" lon="6.83419">
        <ele>37</ele>
        <time>2022-06-27T08:46:08.000Z</time>
      </trkpt>
      <trkpt lat="43.45688" lon="6.83428">
        <ele>36.799999237061</ele>
        <time>2022-06-27T08:46:09.000Z</time>
      </trkpt>
      <trkpt lat="43.45688" lon="6.83465">
        <ele>35.799999237061</ele>
        <time>2022-06-27T08:46:13.000Z</time>
      </trkpt>
      <trkpt lat="43.45687" lon="6.83475">
        <ele>35.599998474121</ele>
        <time>2022-06-27T08:46:14.000Z</time>
      </trkpt>
      <trkpt lat="43.45685" lon="6.835">
        <ele>34.400001525879</ele>
        <time>2022-06-27T08:46:17.000Z</time>
      </trkpt>
      <trkpt lat="43.45683" lon="6.83514">
        <ele>33.799999237061</ele>
        <time>2022-06-27T08:46:19.000Z</time>
      </trkpt>
      <trkpt lat="43.45683" lon="6.83521">
        <ele>33.599998474121</ele>
        <time>2022-06-27T08:46:20.000Z</time>
      </trkpt>
      <trkpt lat="43.45683" lon="6.83535">
        <ele>33.200000762939</ele>
        <time>2022-06-27T08:46:22.000Z</time>
      </trkpt>
      <trkpt lat="43.45682" lon="6.83549">
        <ele>32.799999237061</ele>
        <time>2022-06-27T08:46:24.000Z</time>
      </trkpt>
      <trkpt lat="43.45684" lon="6.83571">
        <ele>32.200000762939</ele>
        <time>2022-06-27T08:46:27.000Z</time>
      </trkpt>
      <trkpt lat="43.45687" lon="6.83593">
        <ele>31.200000762939</ele>
        <time>2022-06-27T08:46:30.000Z</time>
      </trkpt>
      <trkpt lat="43.45688" lon="6.83601">
        <ele>30.799999237061</ele>
        <time>2022-06-27T08:46:31.000Z</time>
      </trkpt>
      <trkpt lat="43.45699" lon="6.83639">
        <ele>29.60000038147</ele>
        <time>2022-06-27T08:46:36.000Z</time>
      </trkpt>
      <trkpt lat="43.45718" lon="6.83676">
        <ele>28.200000762939</ele>
        <time>2022-06-27T08:46:41.000Z</time>
      </trkpt>
      <trkpt lat="43.45726" lon="6.83694">
        <ele>28</ele>
        <time>2022-06-27T08:46:43.000Z</time>
      </trkpt>
      <trkpt lat="43.45729" lon="6.83703">
        <ele>27.799999237061</ele>
        <time>2022-06-27T08:46:44.000Z</time>
      </trkpt>
      <trkpt lat="43.45732" lon="6.83725">
        <ele>27.60000038147</ele>
        <time>2022-06-27T08:46:46.000Z</time>
      </trkpt>
      <trkpt lat="43.45732" lon="6.83736">
        <ele>27</ele>
        <time>2022-06-27T08:46:47.000Z</time>
      </trkpt>
      <trkpt lat="43.45731" lon="6.83771">
        <ele>26</ele>
        <time>2022-06-27T08:46:50.000Z</time>
      </trkpt>
      <trkpt lat="43.4573" lon="6.83783">
        <ele>25.39999961853</ele>
        <time>2022-06-27T08:46:51.000Z</time>
      </trkpt>
      <trkpt lat="43.45728" lon="6.83795">
        <ele>24.60000038147</ele>
        <time>2022-06-27T08:46:52.000Z</time>
      </trkpt>
      <trkpt lat="43.45726" lon="6.83808">
        <ele>23.39999961853</ele>
        <time>2022-06-27T08:46:53.000Z</time>
      </trkpt>
      <trkpt lat="43.45722" lon="6.83832">
        <ele>22.200000762939</ele>
        <time>2022-06-27T08:46:55.000Z</time>
      </trkpt>
      <trkpt lat="43.45723" lon="6.83857">
        <ele>21.200000762939</ele>
        <time>2022-06-27T08:46:57.000Z</time>
      </trkpt>
      <trkpt lat="43.45725" lon="6.83871">
        <ele>20.799999237061</ele>
        <time>2022-06-27T08:46:58.000Z</time>
      </trkpt>
      <trkpt lat="43.4573" lon="6.83893">
        <ele>19.200000762939</ele>
        <time>2022-06-27T08:47:00.000Z</time>
      </trkpt>
      <trkpt lat="43.45733" lon="6.83903">
        <ele>19.200000762939</ele>
        <time>2022-06-27T08:47:01.000Z</time>
      </trkpt>
      <trkpt lat="43.45742" lon="6.83936">
        <ele>18</ele>
        <time>2022-06-27T08:47:04.000Z</time>
      </trkpt>
      <trkpt lat="43.45754" lon="6.83968">
        <ele>16.39999961853</ele>
        <time>2022-06-27T08:47:07.000Z</time>
      </trkpt>
      <trkpt lat="43.45762" lon="6.83986">
        <ele>16</ele>
        <time>2022-06-27T08:47:09.000Z</time>
      </trkpt>
      <trkpt lat="43.45767" lon="6.83993">
        <ele>15.800000190735</ele>
        <time>2022-06-27T08:47:10.000Z</time>
      </trkpt>
      <trkpt lat="43.45772" lon="6.83997">
        <ele>15.60000038147</ele>
        <time>2022-06-27T08:47:11.000Z</time>
      </trkpt>
      <trkpt lat="43.45781" lon="6.84002">
        <ele>15.60000038147</ele>
        <time>2022-06-27T08:47:13.000Z</time>
      </trkpt>
      <trkpt lat="43.45796" lon="6.84013">
        <ele>16.200000762939</ele>
        <time>2022-06-27T08:47:18.000Z</time>
      </trkpt>
      <trkpt lat="43.4581" lon="6.84028">
        <ele>17.799999237061</ele>
        <time>2022-06-27T08:47:23.000Z</time>
      </trkpt>
      <trkpt lat="43.45815" lon="6.84035">
        <ele>18.60000038147</ele>
        <time>2022-06-27T08:47:25.000Z</time>
      </trkpt>
      <trkpt lat="43.45817" lon="6.84039">
        <ele>19</ele>
        <time>2022-06-27T08:47:26.000Z</time>
      </trkpt>
      <trkpt lat="43.45825" lon="6.8405">
        <ele>19.60000038147</ele>
        <time>2022-06-27T08:47:29.000Z</time>
      </trkpt>
      <trkpt lat="43.4583" lon="6.84056">
        <ele>20.200000762939</ele>
        <time>2022-06-27T08:47:31.000Z</time>
      </trkpt>
      <trkpt lat="43.4584" lon="6.8407">
        <ele>21.200000762939</ele>
        <time>2022-06-27T08:47:35.000Z</time>
      </trkpt>
      <trkpt lat="43.45843" lon="6.84074">
        <ele>21.39999961853</ele>
        <time>2022-06-27T08:47:36.000Z</time>
      </trkpt>
      <trkpt lat="43.45857" lon="6.84088">
        <ele>22.60000038147</ele>
        <time>2022-06-27T08:47:41.000Z</time>
      </trkpt>
      <trkpt lat="43.45866" lon="6.84095">
        <ele>23</ele>
        <time>2022-06-27T08:47:44.000Z</time>
      </trkpt>
      <trkpt lat="43.45879" lon="6.84101">
        <ele>24</ele>
        <time>2022-06-27T08:47:48.000Z</time>
      </trkpt>
      <trkpt lat="43.45886" lon="6.84101">
        <ele>24.39999961853</ele>
        <time>2022-06-27T08:47:50.000Z</time>
      </trkpt>
      <trkpt lat="43.45893" lon="6.841">
        <ele>25.200000762939</ele>
        <time>2022-06-27T08:47:52.000Z</time>
      </trkpt>
      <trkpt lat="43.45916" lon="6.84095">
        <ele>26.200000762939</ele>
        <time>2022-06-27T08:47:58.000Z</time>
      </trkpt>
      <trkpt lat="43.4592" lon="6.84094">
        <ele>26.39999961853</ele>
        <time>2022-06-27T08:47:59.000Z</time>
      </trkpt>
      <trkpt lat="43.45937" lon="6.84097">
        <ele>27.39999961853</ele>
        <time>2022-06-27T08:48:04.000Z</time>
      </trkpt>
      <trkpt lat="43.45941" lon="6.84099">
        <ele>27.39999961853</ele>
        <time>2022-06-27T08:48:05.000Z</time>
      </trkpt>
      <trkpt lat="43.45965" lon="6.84117">
        <ele>28.39999961853</ele>
        <time>2022-06-27T08:48:12.000Z</time>
      </trkpt>
      <trkpt lat="43.45968" lon="6.84121">
        <ele>28.60000038147</ele>
        <time>2022-06-27T08:48:13.000Z</time>
      </trkpt>
      <trkpt lat="43.45976" lon="6.84131">
        <ele>29.39999961853</ele>
        <time>2022-06-27T08:48:16.000Z</time>
      </trkpt>
      <trkpt lat="43.4599" lon="6.84148">
        <ele>30.39999961853</ele>
        <time>2022-06-27T08:48:21.000Z</time>
      </trkpt>
      <trkpt lat="43.45994" lon="6.84152">
        <ele>30.60000038147</ele>
        <time>2022-06-27T08:48:22.000Z</time>
      </trkpt>
      <trkpt lat="43.46005" lon="6.84164">
        <ele>31.799999237061</ele>
        <time>2022-06-27T08:48:26.000Z</time>
      </trkpt>
      <trkpt lat="43.46021" lon="6.84178">
        <ele>32.200000762939</ele>
        <time>2022-06-27T08:48:31.000Z</time>
      </trkpt>
      <trkpt lat="43.46033" lon="6.84185">
        <ele>32.799999237061</ele>
        <time>2022-06-27T08:48:34.000Z</time>
      </trkpt>
      <trkpt lat="43.46043" lon="6.84187">
        <ele>33.400001525879</ele>
        <time>2022-06-27T08:48:37.000Z</time>
      </trkpt>
      <trkpt lat="43.46055" lon="6.84188">
        <ele>33.799999237061</ele>
        <time>2022-06-27T08:48:40.000Z</time>
      </trkpt>
      <trkpt lat="43.46072" lon="6.84191">
        <ele>34.599998474121</ele>
        <time>2022-06-27T08:48:44.000Z</time>
      </trkpt>
      <trkpt lat="43.46076" lon="6.84193">
        <ele>34.799999237061</ele>
        <time>2022-06-27T08:48:45.000Z</time>
      </trkpt>
      <trkpt lat="43.46083" lon="6.84196">
        <ele>35</ele>
        <time>2022-06-27T08:48:47.000Z</time>
      </trkpt>
      <trkpt lat="43.46091" lon="6.84201">
        <ele>35</ele>
        <time>2022-06-27T08:48:49.000Z</time>
      </trkpt>
      <trkpt lat="43.46101" lon="6.84211">
        <ele>35</ele>
        <time>2022-06-27T08:48:52.000Z</time>
      </trkpt>
      <trkpt lat="43.46107" lon="6.84218">
        <ele>35.200000762939</ele>
        <time>2022-06-27T08:48:54.000Z</time>
      </trkpt>
      <trkpt lat="43.46112" lon="6.84222">
        <ele>35.200000762939</ele>
        <time>2022-06-27T08:48:55.000Z</time>
      </trkpt>
      <trkpt lat="43.46125" lon="6.84235">
        <ele>35.799999237061</ele>
        <time>2022-06-27T08:48:59.000Z</time>
      </trkpt>
      <trkpt lat="43.46128" lon="6.84239">
        <ele>36</ele>
        <time>2022-06-27T08:49:00.000Z</time>
      </trkpt>
      <trkpt lat="43.46145" lon="6.84254">
        <ele>37</ele>
        <time>2022-06-27T08:49:05.000Z</time>
      </trkpt>
      <trkpt lat="43.46158" lon="6.84264">
        <ele>38.200000762939</ele>
        <time>2022-06-27T08:49:09.000Z</time>
      </trkpt>
      <trkpt lat="43.46161" lon="6.84267">
        <ele>38.400001525879</ele>
        <time>2022-06-27T08:49:10.000Z</time>
      </trkpt>
      <trkpt lat="43.46169" lon="6.84273">
        <ele>39.200000762939</ele>
        <time>2022-06-27T08:49:12.000Z</time>
      </trkpt>
      <trkpt lat="43.46176" lon="6.84284">
        <ele>40</ele>
        <time>2022-06-27T08:49:15.000Z</time>
      </trkpt>
      <trkpt lat="43.46179" lon="6.84289">
        <ele>40.400001525879</ele>
        <time>2022-06-27T08:49:16.000Z</time>
      </trkpt>
      <trkpt lat="43.46188" lon="6.84306">
        <ele>41.400001525879</ele>
        <time>2022-06-27T08:49:20.000Z</time>
      </trkpt>
      <trkpt lat="43.46199" lon="6.84322">
        <ele>42.799999237061</ele>
        <time>2022-06-27T08:49:24.000Z</time>
      </trkpt>
      <trkpt lat="43.46202" lon="6.84325">
        <ele>43</ele>
        <time>2022-06-27T08:49:25.000Z</time>
      </trkpt>
      <trkpt lat="43.46205" lon="6.84328">
        <ele>43.400001525879</ele>
        <time>2022-06-27T08:49:26.000Z</time>
      </trkpt>
      <trkpt lat="43.46212" lon="6.84334">
        <ele>44</ele>
        <time>2022-06-27T08:49:28.000Z</time>
      </trkpt>
      <trkpt lat="43.46226" lon="6.84344">
        <ele>45</ele>
        <time>2022-06-27T08:49:32.000Z</time>
      </trkpt>
      <trkpt lat="43.46237" lon="6.84351">
        <ele>45.400001525879</ele>
        <time>2022-06-27T08:49:35.000Z</time>
      </trkpt>
      <trkpt lat="43.46255" lon="6.84363">
        <ele>46</ele>
        <time>2022-06-27T08:49:40.000Z</time>
      </trkpt>
      <trkpt lat="43.4628" lon="6.84379">
        <ele>46.799999237061</ele>
        <time>2022-06-27T08:49:47.000Z</time>
      </trkpt>
      <trkpt lat="43.46284" lon="6.8438">
        <ele>47</ele>
        <time>2022-06-27T08:49:48.000Z</time>
      </trkpt>
      <trkpt lat="43.46288" lon="6.84382">
        <ele>47</ele>
        <time>2022-06-27T08:49:49.000Z</time>
      </trkpt>
      <trkpt lat="43.46302" lon="6.84384">
        <ele>48</ele>
        <time>2022-06-27T08:49:53.000Z</time>
      </trkpt>
      <trkpt lat="43.46306" lon="6.84384">
        <ele>48.200000762939</ele>
        <time>2022-06-27T08:49:54.000Z</time>
      </trkpt>
      <trkpt lat="43.46338" lon="6.84383">
        <ele>49.200000762939</ele>
        <time>2022-06-27T08:50:02.000Z</time>
      </trkpt>
      <trkpt lat="43.46346" lon="6.84382">
        <ele>49.599998474121</ele>
        <time>2022-06-27T08:50:04.000Z</time>
      </trkpt>
      <trkpt lat="43.4635" lon="6.8438">
        <ele>49.799999237061</ele>
        <time>2022-06-27T08:50:05.000Z</time>
      </trkpt>
      <trkpt lat="43.46366" lon="6.84374">
        <ele>50.400001525879</ele>
        <time>2022-06-27T08:50:09.000Z</time>
      </trkpt>
      <trkpt lat="43.46382" lon="6.84366">
        <ele>50.799999237061</ele>
        <time>2022-06-27T08:50:13.000Z</time>
      </trkpt>
      <trkpt lat="43.46389" lon="6.84361">
        <ele>51.400001525879</ele>
        <time>2022-06-27T08:50:15.000Z</time>
      </trkpt>
      <trkpt lat="43.46403" lon="6.84353">
        <ele>52.400001525879</ele>
        <time>2022-06-27T08:50:19.000Z</time>
      </trkpt>
      <trkpt lat="43.46424" lon="6.84339">
        <ele>53.599998474121</ele>
        <time>2022-06-27T08:50:25.000Z</time>
      </trkpt>
      <trkpt lat="43.46443" lon="6.84329">
        <ele>54.400001525879</ele>
        <time>2022-06-27T08:50:30.000Z</time>
      </trkpt>
      <trkpt lat="43.46451" lon="6.84326">
        <ele>54.599998474121</ele>
        <time>2022-06-27T08:50:32.000Z</time>
      </trkpt>
      <trkpt lat="43.46459" lon="6.84324">
        <ele>55</ele>
        <time>2022-06-27T08:50:34.000Z</time>
      </trkpt>
      <trkpt lat="43.46478" lon="6.84317">
        <ele>55.599998474121</ele>
        <time>2022-06-27T08:50:39.000Z</time>
      </trkpt>
      <trkpt lat="43.46489" lon="6.84311">
        <ele>56.200000762939</ele>
        <time>2022-06-27T08:50:42.000Z</time>
      </trkpt>
      <trkpt lat="43.46493" lon="6.84309">
        <ele>56.599998474121</ele>
        <time>2022-06-27T08:50:43.000Z</time>
      </trkpt>
      <trkpt lat="43.465" lon="6.84303">
        <ele>57</ele>
        <time>2022-06-27T08:50:45.000Z</time>
      </trkpt>
      <trkpt lat="43.46509" lon="6.84293">
        <ele>57.599998474121</ele>
        <time>2022-06-27T08:50:48.000Z</time>
      </trkpt>
      <trkpt lat="43.46512" lon="6.84289">
        <ele>57.799999237061</ele>
        <time>2022-06-27T08:50:49.000Z</time>
      </trkpt>
      <trkpt lat="43.46517" lon="6.8428">
        <ele>58.799999237061</ele>
        <time>2022-06-27T08:50:51.000Z</time>
      </trkpt>
      <trkpt lat="43.46528" lon="6.84255">
        <ele>59.799999237061</ele>
        <time>2022-06-27T08:50:56.000Z</time>
      </trkpt>
      <trkpt lat="43.46545" lon="6.84221">
        <ele>60.799999237061</ele>
        <time>2022-06-27T08:51:03.000Z</time>
      </trkpt>
      <trkpt lat="43.4655" lon="6.84212">
        <ele>61.200000762939</ele>
        <time>2022-06-27T08:51:05.000Z</time>
      </trkpt>
      <trkpt lat="43.46558" lon="6.84199">
        <ele>62</ele>
        <time>2022-06-27T08:51:08.000Z</time>
      </trkpt>
      <trkpt lat="43.4656" lon="6.84194">
        <ele>62.200000762939</ele>
        <time>2022-06-27T08:51:09.000Z</time>
      </trkpt>
      <trkpt lat="43.46563" lon="6.84184">
        <ele>62.799999237061</ele>
        <time>2022-06-27T08:51:11.000Z</time>
      </trkpt>
      <trkpt lat="43.46566" lon="6.84174">
        <ele>63</ele>
        <time>2022-06-27T08:51:13.000Z</time>
      </trkpt>
      <trkpt lat="43.4657" lon="6.84147">
        <ele>63.799999237061</ele>
        <time>2022-06-27T08:51:18.000Z</time>
      </trkpt>
      <trkpt lat="43.4657" lon="6.84142">
        <ele>64</ele>
        <time>2022-06-27T08:51:19.000Z</time>
      </trkpt>
      <trkpt lat="43.46564" lon="6.84123">
        <ele>65</ele>
        <time>2022-06-27T08:51:23.000Z</time>
      </trkpt>
      <trkpt lat="43.46563" lon="6.84118">
        <ele>65.199996948242</ele>
        <time>2022-06-27T08:51:24.000Z</time>
      </trkpt>
      <trkpt lat="43.46559" lon="6.84103">
        <ele>65.599998474121</ele>
        <time>2022-06-27T08:51:27.000Z</time>
      </trkpt>
      <trkpt lat="43.46558" lon="6.84093">
        <ele>66</ele>
        <time>2022-06-27T08:51:29.000Z</time>
      </trkpt>
      <trkpt lat="43.4656" lon="6.84088">
        <ele>66.199996948242</ele>
        <time>2022-06-27T08:51:30.000Z</time>
      </trkpt>
      <trkpt lat="43.46563" lon="6.84086">
        <ele>66.599998474121</ele>
        <time>2022-06-27T08:51:31.000Z</time>
      </trkpt>
      <trkpt lat="43.46566" lon="6.84086">
        <ele>66.800003051758</ele>
        <time>2022-06-27T08:51:32.000Z</time>
      </trkpt>
      <trkpt lat="43.46578" lon="6.84091">
        <ele>67.400001525879</ele>
        <time>2022-06-27T08:51:35.000Z</time>
      </trkpt>
      <trkpt lat="43.46581" lon="6.84092">
        <ele>67.599998474121</ele>
        <time>2022-06-27T08:51:36.000Z</time>
      </trkpt>
      <trkpt lat="43.46585" lon="6.84092">
        <ele>67.800003051758</ele>
        <time>2022-06-27T08:51:37.000Z</time>
      </trkpt>
      <trkpt lat="43.46602" lon="6.84086">
        <ele>68.800003051758</ele>
        <time>2022-06-27T08:51:41.000Z</time>
      </trkpt>
      <trkpt lat="43.46614" lon="6.84081">
        <ele>69.199996948242</ele>
        <time>2022-06-27T08:51:44.000Z</time>
      </trkpt>
      <trkpt lat="43.46634" lon="6.84065">
        <ele>70</ele>
        <time>2022-06-27T08:51:50.000Z</time>
      </trkpt>
      <trkpt lat="43.46652" lon="6.84055">
        <ele>70.599998474121</ele>
        <time>2022-06-27T08:51:55.000Z</time>
      </trkpt>
      <trkpt lat="43.4666" lon="6.84054">
        <ele>71</ele>
        <time>2022-06-27T08:51:57.000Z</time>
      </trkpt>
      <trkpt lat="43.46687" lon="6.84056">
        <ele>72.199996948242</ele>
        <time>2022-06-27T08:52:04.000Z</time>
      </trkpt>
      <trkpt lat="43.46691" lon="6.84056">
        <ele>72.400001525879</ele>
        <time>2022-06-27T08:52:05.000Z</time>
      </trkpt>
      <trkpt lat="43.46707" lon="6.84058">
        <ele>73.400001525879</ele>
        <time>2022-06-27T08:52:09.000Z</time>
      </trkpt>
      <trkpt lat="43.4671" lon="6.84059">
        <ele>73.599998474121</ele>
        <time>2022-06-27T08:52:10.000Z</time>
      </trkpt>
      <trkpt lat="43.46718" lon="6.84063">
        <ele>74</ele>
        <time>2022-06-27T08:52:12.000Z</time>
      </trkpt>
      <trkpt lat="43.46722" lon="6.84066">
        <ele>74</ele>
        <time>2022-06-27T08:52:13.000Z</time>
      </trkpt>
      <trkpt lat="43.46732" lon="6.84076">
        <ele>74.599998474121</ele>
        <time>2022-06-27T08:52:16.000Z</time>
      </trkpt>
      <trkpt lat="43.46743" lon="6.84083">
        <ele>75</ele>
        <time>2022-06-27T08:52:19.000Z</time>
      </trkpt>
      <trkpt lat="43.46751" lon="6.84086">
        <ele>75.400001525879</ele>
        <time>2022-06-27T08:52:21.000Z</time>
      </trkpt>
      <trkpt lat="43.46759" lon="6.84085">
        <ele>75.800003051758</ele>
        <time>2022-06-27T08:52:23.000Z</time>
      </trkpt>
      <trkpt lat="43.46775" lon="6.84081">
        <ele>76.199996948242</ele>
        <time>2022-06-27T08:52:27.000Z</time>
      </trkpt>
      <trkpt lat="43.46787" lon="6.84081">
        <ele>76.800003051758</ele>
        <time>2022-06-27T08:52:30.000Z</time>
      </trkpt>
      <trkpt lat="43.46794" lon="6.84082">
        <ele>77.199996948242</ele>
        <time>2022-06-27T08:52:32.000Z</time>
      </trkpt>
      <trkpt lat="43.46802" lon="6.84084">
        <ele>77.599998474121</ele>
        <time>2022-06-27T08:52:34.000Z</time>
      </trkpt>
      <trkpt lat="43.46806" lon="6.84085">
        <ele>77.800003051758</ele>
        <time>2022-06-27T08:52:35.000Z</time>
      </trkpt>
      <trkpt lat="43.46821" lon="6.84088">
        <ele>79.199996948242</ele>
        <time>2022-06-27T08:52:39.000Z</time>
      </trkpt>
      <trkpt lat="43.46839" lon="6.8409">
        <ele>80</ele>
        <time>2022-06-27T08:52:44.000Z</time>
      </trkpt>
      <trkpt lat="43.46844" lon="6.84091">
        <ele>80.400001525879</ele>
        <time>2022-06-27T08:52:45.000Z</time>
      </trkpt>
      <trkpt lat="43.46865" lon="6.84092">
        <ele>81.199996948242</ele>
        <time>2022-06-27T08:52:50.000Z</time>
      </trkpt>
      <trkpt lat="43.46868" lon="6.84091">
        <ele>81.400001525879</ele>
        <time>2022-06-27T08:52:51.000Z</time>
      </trkpt>
      <trkpt lat="43.46898" lon="6.84086">
        <ele>82.800003051758</ele>
        <time>2022-06-27T08:52:58.000Z</time>
      </trkpt>
      <trkpt lat="43.46905" lon="6.84085">
        <ele>83.199996948242</ele>
        <time>2022-06-27T08:53:00.000Z</time>
      </trkpt>
      <trkpt lat="43.46913" lon="6.84083">
        <ele>83.599998474121</ele>
        <time>2022-06-27T08:53:02.000Z</time>
      </trkpt>
      <trkpt lat="43.46924" lon="6.84081">
        <ele>84.800003051758</ele>
        <time>2022-06-27T08:53:05.000Z</time>
      </trkpt>
      <trkpt lat="43.46931" lon="6.84081">
        <ele>85.400001525879</ele>
        <time>2022-06-27T08:53:07.000Z</time>
      </trkpt>
      <trkpt lat="43.46936" lon="6.84085">
        <ele>86.199996948242</ele>
        <time>2022-06-27T08:53:09.000Z</time>
      </trkpt>
      <trkpt lat="43.46938" lon="6.84087">
        <ele>86.800003051758</ele>
        <time>2022-06-27T08:53:10.000Z</time>
      </trkpt>
      <trkpt lat="43.4694" lon="6.84093">
        <ele>87.400001525879</ele>
        <time>2022-06-27T08:53:12.000Z</time>
      </trkpt>
      <trkpt lat="43.46943" lon="6.84099">
        <ele>88</ele>
        <time>2022-06-27T08:53:15.000Z</time>
      </trkpt>
      <trkpt lat="43.46945" lon="6.841">
        <ele>88.199996948242</ele>
        <time>2022-06-27T08:53:16.000Z</time>
      </trkpt>
      <trkpt lat="43.46945" lon="6.84102">
        <ele>88.199996948242</ele>
        <time>2022-06-27T08:53:17.000Z</time>
      </trkpt>
      <trkpt lat="43.46946" lon="6.84104">
        <ele>88.400001525879</ele>
        <time>2022-06-27T08:53:20.000Z</time>
      </trkpt>
      <trkpt lat="43.46946" lon="6.84104">
        <ele>88.400001525879</ele>
        <time>2022-06-27T08:53:23.000Z</time>
      </trkpt>
      <trkpt lat="43.46946" lon="6.84104">
        <ele>88.400001525879</ele>
        <time>2022-06-27T08:53:30.000Z</time>
      </trkpt>
      <trkpt lat="43.46946" lon="6.84104">
        <ele>88.800003051758</ele>
        <time>2022-06-27T08:54:12.000Z</time>
      </trkpt>
      <trkpt lat="43.46946" lon="6.84104">
        <ele>88</ele>
        <time>2022-06-27T08:55:16.000Z</time>
      </trkpt>
      <trkpt lat="43.46946" lon="6.84104">
        <ele>87.800003051758</ele>
        <time>2022-06-27T08:55:30.000Z</time>
      </trkpt>
      <trkpt lat="43.46949" lon="6.84113">
        <ele>88</ele>
        <time>2022-06-27T08:55:34.000Z</time>
      </trkpt>
      <trkpt lat="43.4696" lon="6.84133">
        <ele>88.599998474121</ele>
        <time>2022-06-27T08:55:41.000Z</time>
      </trkpt>
      <trkpt lat="43.46974" lon="6.84161">
        <ele>89</ele>
        <time>2022-06-27T08:55:49.000Z</time>
      </trkpt>
      <trkpt lat="43.46979" lon="6.84179">
        <ele>90</ele>
        <time>2022-06-27T08:55:54.000Z</time>
      </trkpt>
      <trkpt lat="43.46985" lon="6.84206">
        <ele>91</ele>
        <time>2022-06-27T08:55:59.000Z</time>
      </trkpt>
      <trkpt lat="43.46987" lon="6.8421">
        <ele>91</ele>
        <time>2022-06-27T08:56:00.000Z</time>
      </trkpt>
      <trkpt lat="43.4699" lon="6.84243">
        <ele>91.599998474121</ele>
        <time>2022-06-27T08:56:07.000Z</time>
      </trkpt>
      <trkpt lat="43.46988" lon="6.84253">
        <ele>92</ele>
        <time>2022-06-27T08:56:10.000Z</time>
      </trkpt>
      <trkpt lat="43.46981" lon="6.84279">
        <ele>92.599998474121</ele>
        <time>2022-06-27T08:56:16.000Z</time>
      </trkpt>
      <trkpt lat="43.46978" lon="6.84287">
        <ele>92.800003051758</ele>
        <time>2022-06-27T08:56:18.000Z</time>
      </trkpt>
      <trkpt lat="43.46967" lon="6.84312">
        <ele>93.400001525879</ele>
        <time>2022-06-27T08:56:23.000Z</time>
      </trkpt>
      <trkpt lat="43.46961" lon="6.84318">
        <ele>94</ele>
        <time>2022-06-27T08:56:26.000Z</time>
      </trkpt>
      <trkpt lat="43.46949" lon="6.84331">
        <ele>94.599998474121</ele>
        <time>2022-06-27T08:56:29.000Z</time>
      </trkpt>
      <trkpt lat="43.4694" lon="6.84342">
        <ele>95.199996948242</ele>
        <time>2022-06-27T08:56:33.000Z</time>
      </trkpt>
      <trkpt lat="43.46933" lon="6.84354">
        <ele>95.800003051758</ele>
        <time>2022-06-27T08:56:36.000Z</time>
      </trkpt>
      <trkpt lat="43.46932" lon="6.8437">
        <ele>96.199996948242</ele>
        <time>2022-06-27T08:56:38.000Z</time>
      </trkpt>
      <trkpt lat="43.46934" lon="6.84379">
        <ele>96.400001525879</ele>
        <time>2022-06-27T08:56:40.000Z</time>
      </trkpt>
      <trkpt lat="43.46944" lon="6.8439">
        <ele>96.800003051758</ele>
        <time>2022-06-27T08:56:45.000Z</time>
      </trkpt>
      <trkpt lat="43.46956" lon="6.84393">
        <ele>96.800003051758</ele>
        <time>2022-06-27T08:56:47.000Z</time>
      </trkpt>
      <trkpt lat="43.46964" lon="6.84394">
        <ele>96.800003051758</ele>
        <time>2022-06-27T08:56:49.000Z</time>
      </trkpt>
      <trkpt lat="43.46975" lon="6.84395">
        <ele>96.800003051758</ele>
        <time>2022-06-27T08:56:52.000Z</time>
      </trkpt>
      <trkpt lat="43.4698" lon="6.84396">
        <ele>96.800003051758</ele>
        <time>2022-06-27T08:56:54.000Z</time>
      </trkpt>
      <trkpt lat="43.46987" lon="6.84404">
        <ele>96.599998474121</ele>
        <time>2022-06-27T08:56:55.000Z</time>
      </trkpt>
      <trkpt lat="43.4699" lon="6.8441">
        <ele>96.400001525879</ele>
        <time>2022-06-27T08:56:56.000Z</time>
      </trkpt>
      <trkpt lat="43.46992" lon="6.84423">
        <ele>96.199996948242</ele>
        <time>2022-06-27T08:56:59.000Z</time>
      </trkpt>
      <trkpt lat="43.46996" lon="6.84435">
        <ele>96.199996948242</ele>
        <time>2022-06-27T08:57:00.000Z</time>
      </trkpt>
      <trkpt lat="43.47002" lon="6.84447">
        <ele>96</ele>
        <time>2022-06-27T08:57:02.000Z</time>
      </trkpt>
      <trkpt lat="43.47007" lon="6.84459">
        <ele>96</ele>
        <time>2022-06-27T08:57:05.000Z</time>
      </trkpt>
      <trkpt lat="43.47013" lon="6.84469">
        <ele>96</ele>
        <time>2022-06-27T08:57:06.000Z</time>
      </trkpt>
      <trkpt lat="43.47025" lon="6.84498">
        <ele>95.400001525879</ele>
        <time>2022-06-27T08:57:11.000Z</time>
      </trkpt>
      <trkpt lat="43.47025" lon="6.84498">
        <ele>95</ele>
        <time>2022-06-27T08:57:12.000Z</time>
      </trkpt>
      <trkpt lat="43.47049" lon="6.84536">
        <ele>94</ele>
        <time>2022-06-27T08:57:18.000Z</time>
      </trkpt>
      <trkpt lat="43.47066" lon="6.8458">
        <ele>93</ele>
        <time>2022-06-27T08:57:26.000Z</time>
      </trkpt>
      <trkpt lat="43.47074" lon="6.84607">
        <ele>92.599998474121</ele>
        <time>2022-06-27T08:57:29.000Z</time>
      </trkpt>
      <trkpt lat="43.47076" lon="6.84614">
        <ele>92.599998474121</ele>
        <time>2022-06-27T08:57:30.000Z</time>
      </trkpt>
      <trkpt lat="43.47074" lon="6.84628">
        <ele>92.400001525879</ele>
        <time>2022-06-27T08:57:32.000Z</time>
      </trkpt>
      <trkpt lat="43.47066" lon="6.84637">
        <ele>92.199996948242</ele>
        <time>2022-06-27T08:57:34.000Z</time>
      </trkpt>
      <trkpt lat="43.47061" lon="6.84638">
        <ele>92</ele>
        <time>2022-06-27T08:57:35.000Z</time>
      </trkpt>
      <trkpt lat="43.47061" lon="6.84638">
        <ele>91.800003051758</ele>
        <time>2022-06-27T08:57:36.000Z</time>
      </trkpt>
      <trkpt lat="43.4705" lon="6.84635">
        <ele>91.800003051758</ele>
        <time>2022-06-27T08:57:37.000Z</time>
      </trkpt>
      <trkpt lat="43.47039" lon="6.84635">
        <ele>91.599998474121</ele>
        <time>2022-06-27T08:57:39.000Z</time>
      </trkpt>
      <trkpt lat="43.47034" lon="6.84636">
        <ele>91.599998474121</ele>
        <time>2022-06-27T08:57:40.000Z</time>
      </trkpt>
      <trkpt lat="43.47028" lon="6.84638">
        <ele>91.400001525879</ele>
        <time>2022-06-27T08:57:41.000Z</time>
      </trkpt>
      <trkpt lat="43.47013" lon="6.84645">
        <ele>91.199996948242</ele>
        <time>2022-06-27T08:57:44.000Z</time>
      </trkpt>
      <trkpt lat="43.47005" lon="6.8465">
        <ele>91</ele>
        <time>2022-06-27T08:57:46.000Z</time>
      </trkpt>
      <trkpt lat="43.46996" lon="6.84656">
        <ele>90.800003051758</ele>
        <time>2022-06-27T08:57:48.000Z</time>
      </trkpt>
      <trkpt lat="43.46983" lon="6.84662">
        <ele>90.599998474121</ele>
        <time>2022-06-27T08:57:51.000Z</time>
      </trkpt>
      <trkpt lat="43.46973" lon="6.84669">
        <ele>90.400001525879</ele>
        <time>2022-06-27T08:57:53.000Z</time>
      </trkpt>
      <trkpt lat="43.46957" lon="6.84683">
        <ele>90</ele>
        <time>2022-06-27T08:57:57.000Z</time>
      </trkpt>
      <trkpt lat="43.46949" lon="6.84692">
        <ele>89.800003051758</ele>
        <time>2022-06-27T08:57:59.000Z</time>
      </trkpt>
      <trkpt lat="43.46946" lon="6.84697">
        <ele>89.400001525879</ele>
        <time>2022-06-27T08:58:00.000Z</time>
      </trkpt>
      <trkpt lat="43.46925" lon="6.84729">
        <ele>88.599998474121</ele>
        <time>2022-06-27T08:58:06.000Z</time>
      </trkpt>
      <trkpt lat="43.46911" lon="6.84751">
        <ele>88.199996948242</ele>
        <time>2022-06-27T08:58:10.000Z</time>
      </trkpt>
      <trkpt lat="43.46882" lon="6.84782">
        <ele>87.599998474121</ele>
        <time>2022-06-27T08:58:17.000Z</time>
      </trkpt>
      <trkpt lat="43.46877" lon="6.84785">
        <ele>87.400001525879</ele>
        <time>2022-06-27T08:58:19.000Z</time>
      </trkpt>
      <trkpt lat="43.46866" lon="6.8479">
        <ele>87.400001525879</ele>
        <time>2022-06-27T08:58:20.000Z</time>
      </trkpt>
      <trkpt lat="43.46856" lon="6.84788">
        <ele>87.199996948242</ele>
        <time>2022-06-27T08:58:22.000Z</time>
      </trkpt>
      <trkpt lat="43.46835" lon="6.84783">
        <ele>86.599998474121</ele>
        <time>2022-06-27T08:58:26.000Z</time>
      </trkpt>
      <trkpt lat="43.46829" lon="6.84782">
        <ele>86.400001525879</ele>
        <time>2022-06-27T08:58:27.000Z</time>
      </trkpt>
      <trkpt lat="43.46824" lon="6.84781">
        <ele>86.400001525879</ele>
        <time>2022-06-27T08:58:28.000Z</time>
      </trkpt>
      <trkpt lat="43.46806" lon="6.84778">
        <ele>86.199996948242</ele>
        <time>2022-06-27T08:58:31.000Z</time>
      </trkpt>
      <trkpt lat="43.46784" lon="6.84776">
        <ele>85.800003051758</ele>
        <time>2022-06-27T08:58:35.000Z</time>
      </trkpt>
      <trkpt lat="43.46772" lon="6.84777">
        <ele>85.400001525879</ele>
        <time>2022-06-27T08:58:37.000Z</time>
      </trkpt>
      <trkpt lat="43.46756" lon="6.84776">
        <ele>84.800003051758</ele>
        <time>2022-06-27T08:58:40.000Z</time>
      </trkpt>
      <trkpt lat="43.46738" lon="6.8477">
        <ele>84.400001525879</ele>
        <time>2022-06-27T08:58:43.000Z</time>
      </trkpt>
      <trkpt lat="43.46734" lon="6.84768">
        <ele>84.199996948242</ele>
        <time>2022-06-27T08:58:44.000Z</time>
      </trkpt>
      <trkpt lat="43.46719" lon="6.84761">
        <ele>83.800003051758</ele>
        <time>2022-06-27T08:58:47.000Z</time>
      </trkpt>
      <trkpt lat="43.46708" lon="6.8476">
        <ele>83.599998474121</ele>
        <time>2022-06-27T08:58:49.000Z</time>
      </trkpt>
      <trkpt lat="43.46703" lon="6.84762">
        <ele>83.599998474121</ele>
        <time>2022-06-27T08:58:50.000Z</time>
      </trkpt>
      <trkpt lat="43.46697" lon="6.84764">
        <ele>83.400001525879</ele>
        <time>2022-06-27T08:58:51.000Z</time>
      </trkpt>
      <trkpt lat="43.46688" lon="6.84771">
        <ele>83.199996948242</ele>
        <time>2022-06-27T08:58:53.000Z</time>
      </trkpt>
      <trkpt lat="43.46683" lon="6.84776">
        <ele>83</ele>
        <time>2022-06-27T08:58:55.000Z</time>
      </trkpt>
      <trkpt lat="43.46675" lon="6.84786">
        <ele>82.800003051758</ele>
        <time>2022-06-27T08:58:56.000Z</time>
      </trkpt>
      <trkpt lat="43.46669" lon="6.84799">
        <ele>82.599998474121</ele>
        <time>2022-06-27T08:58:58.000Z</time>
      </trkpt>
      <trkpt lat="43.46667" lon="6.84806">
        <ele>82.599998474121</ele>
        <time>2022-06-27T08:58:59.000Z</time>
      </trkpt>
      <trkpt lat="43.46666" lon="6.84813">
        <ele>82.400001525879</ele>
        <time>2022-06-27T08:59:00.000Z</time>
      </trkpt>
      <trkpt lat="43.46667" lon="6.84828">
        <ele>82.400001525879</ele>
        <time>2022-06-27T08:59:02.000Z</time>
      </trkpt>
      <trkpt lat="43.46669" lon="6.84834">
        <ele>82.199996948242</ele>
        <time>2022-06-27T08:59:03.000Z</time>
      </trkpt>
      <trkpt lat="43.46671" lon="6.8484">
        <ele>82.199996948242</ele>
        <time>2022-06-27T08:59:04.000Z</time>
      </trkpt>
      <trkpt lat="43.46681" lon="6.84854">
        <ele>81.800003051758</ele>
        <time>2022-06-27T08:59:07.000Z</time>
      </trkpt>
      <trkpt lat="43.467" lon="6.84878">
        <ele>81</ele>
        <time>2022-06-27T08:59:12.000Z</time>
      </trkpt>
      <trkpt lat="43.46717" lon="6.84897">
        <ele>80.400001525879</ele>
        <time>2022-06-27T08:59:16.000Z</time>
      </trkpt>
      <trkpt lat="43.46734" lon="6.84915">
        <ele>80</ele>
        <time>2022-06-27T08:59:20.000Z</time>
      </trkpt>
      <trkpt lat="43.46748" lon="6.84924">
        <ele>79.800003051758</ele>
        <time>2022-06-27T08:59:23.000Z</time>
      </trkpt>
      <trkpt lat="43.46757" lon="6.84933">
        <ele>79.599998474121</ele>
        <time>2022-06-27T08:59:25.000Z</time>
      </trkpt>
      <trkpt lat="43.4676" lon="6.84939">
        <ele>79.400001525879</ele>
        <time>2022-06-27T08:59:27.000Z</time>
      </trkpt>
      <trkpt lat="43.46761" lon="6.84951">
        <ele>79.400001525879</ele>
        <time>2022-06-27T08:59:28.000Z</time>
      </trkpt>
      <trkpt lat="43.4676" lon="6.84964">
        <ele>79.199996948242</ele>
        <time>2022-06-27T08:59:30.000Z</time>
      </trkpt>
      <trkpt lat="43.4676" lon="6.84973">
        <ele>79</ele>
        <time>2022-06-27T08:59:32.000Z</time>
      </trkpt>
      <trkpt lat="43.46763" lon="6.85003">
        <ele>79</ele>
        <time>2022-06-27T08:59:35.000Z</time>
      </trkpt>
      <trkpt lat="43.46763" lon="6.85003">
        <ele>79</ele>
        <time>2022-06-27T08:59:36.000Z</time>
      </trkpt>
      <trkpt lat="43.46768" lon="6.85015">
        <ele>78.800003051758</ele>
        <time>2022-06-27T08:59:37.000Z</time>
      </trkpt>
      <trkpt lat="43.46772" lon="6.85026">
        <ele>78.800003051758</ele>
        <time>2022-06-27T08:59:39.000Z</time>
      </trkpt>
      <trkpt lat="43.46775" lon="6.8504">
        <ele>78.400001525879</ele>
        <time>2022-06-27T08:59:41.000Z</time>
      </trkpt>
      <trkpt lat="43.46774" lon="6.85054">
        <ele>78.199996948242</ele>
        <time>2022-06-27T08:59:43.000Z</time>
      </trkpt>
      <trkpt lat="43.46769" lon="6.85067">
        <ele>78</ele>
        <time>2022-06-27T08:59:45.000Z</time>
      </trkpt>
      <trkpt lat="43.46767" lon="6.85074">
        <ele>78</ele>
        <time>2022-06-27T08:59:46.000Z</time>
      </trkpt>
      <trkpt lat="43.46758" lon="6.85095">
        <ele>77.599998474121</ele>
        <time>2022-06-27T08:59:49.000Z</time>
      </trkpt>
      <trkpt lat="43.46748" lon="6.85115">
        <ele>77.199996948242</ele>
        <time>2022-06-27T08:59:52.000Z</time>
      </trkpt>
      <trkpt lat="43.46744" lon="6.85125">
        <ele>76.400001525879</ele>
        <time>2022-06-27T08:59:54.000Z</time>
      </trkpt>
      <trkpt lat="43.4674" lon="6.85135">
        <ele>76</ele>
        <time>2022-06-27T08:59:57.000Z</time>
      </trkpt>
      <trkpt lat="43.4674" lon="6.85135">
        <ele>75.400001525879</ele>
        <time>2022-06-27T08:59:59.000Z</time>
      </trkpt>
      <trkpt lat="43.4674" lon="6.85135">
        <ele>74.800003051758</ele>
        <time>2022-06-27T09:00:01.000Z</time>
      </trkpt>
      <trkpt lat="43.4674" lon="6.85135">
        <ele>74.400001525879</ele>
        <time>2022-06-27T09:00:06.000Z</time>
      </trkpt>
      <trkpt lat="43.4674" lon="6.85136">
        <ele>74</ele>
        <time>2022-06-27T09:00:29.000Z</time>
      </trkpt>
      <trkpt lat="43.46738" lon="6.85156">
        <ele>74</ele>
        <time>2022-06-27T09:00:32.000Z</time>
      </trkpt>
      <trkpt lat="43.46738" lon="6.85163">
        <ele>74</ele>
        <time>2022-06-27T09:00:33.000Z</time>
      </trkpt>
      <trkpt lat="43.46743" lon="6.85204">
        <ele>73.199996948242</ele>
        <time>2022-06-27T09:00:38.000Z</time>
      </trkpt>
      <trkpt lat="43.46746" lon="6.85221">
        <ele>72.800003051758</ele>
        <time>2022-06-27T09:00:40.000Z</time>
      </trkpt>
      <trkpt lat="43.46752" lon="6.85246">
        <ele>72.199996948242</ele>
        <time>2022-06-27T09:00:43.000Z</time>
      </trkpt>
      <trkpt lat="43.46754" lon="6.85255">
        <ele>71.800003051758</ele>
        <time>2022-06-27T09:00:44.000Z</time>
      </trkpt>
      <trkpt lat="43.46755" lon="6.85264">
        <ele>71.599998474121</ele>
        <time>2022-06-27T09:00:45.000Z</time>
      </trkpt>
      <trkpt lat="43.46756" lon="6.85283">
        <ele>71</ele>
        <time>2022-06-27T09:00:47.000Z</time>
      </trkpt>
      <trkpt lat="43.46756" lon="6.85292">
        <ele>70.800003051758</ele>
        <time>2022-06-27T09:00:48.000Z</time>
      </trkpt>
      <trkpt lat="43.46759" lon="6.85328">
        <ele>69.800003051758</ele>
        <time>2022-06-27T09:00:52.000Z</time>
      </trkpt>
      <trkpt lat="43.4676" lon="6.85337">
        <ele>69.400001525879</ele>
        <time>2022-06-27T09:00:53.000Z</time>
      </trkpt>
      <trkpt lat="43.46762" lon="6.85345">
        <ele>68.800003051758</ele>
        <time>2022-06-27T09:00:54.000Z</time>
      </trkpt>
      <trkpt lat="43.46764" lon="6.85354">
        <ele>68.599998474121</ele>
        <time>2022-06-27T09:00:55.000Z</time>
      </trkpt>
      <trkpt lat="43.46765" lon="6.85363">
        <ele>68.400001525879</ele>
        <time>2022-06-27T09:00:56.000Z</time>
      </trkpt>
      <trkpt lat="43.46767" lon="6.85391">
        <ele>67.599998474121</ele>
        <time>2022-06-27T09:00:59.000Z</time>
      </trkpt>
      <trkpt lat="43.46767" lon="6.854">
        <ele>67.599998474121</ele>
        <time>2022-06-27T09:01:00.000Z</time>
      </trkpt>
      <trkpt lat="43.46768" lon="6.85447">
        <ele>66.400001525879</ele>
        <time>2022-06-27T09:01:06.000Z</time>
      </trkpt>
      <trkpt lat="43.46771" lon="6.85465">
        <ele>66.199996948242</ele>
        <time>2022-06-27T09:01:07.000Z</time>
      </trkpt>
      <trkpt lat="43.46776" lon="6.85482">
        <ele>65.599998474121</ele>
        <time>2022-06-27T09:01:09.000Z</time>
      </trkpt>
      <trkpt lat="43.46779" lon="6.85488">
        <ele>65.599998474121</ele>
        <time>2022-06-27T09:01:10.000Z</time>
      </trkpt>
      <trkpt lat="43.46782" lon="6.85496">
        <ele>65.199996948242</ele>
        <time>2022-06-27T09:01:11.000Z</time>
      </trkpt>
      <trkpt lat="43.46786" lon="6.85503">
        <ele>64.800003051758</ele>
        <time>2022-06-27T09:01:12.000Z</time>
      </trkpt>
      <trkpt lat="43.46796" lon="6.85516">
        <ele>64.400001525879</ele>
        <time>2022-06-27T09:01:14.000Z</time>
      </trkpt>
      <trkpt lat="43.46807" lon="6.85528">
        <ele>64</ele>
        <time>2022-06-27T09:01:16.000Z</time>
      </trkpt>
      <trkpt lat="43.46814" lon="6.85534">
        <ele>63.799999237061</ele>
        <time>2022-06-27T09:01:17.000Z</time>
      </trkpt>
      <trkpt lat="43.46825" lon="6.85541">
        <ele>63.400001525879</ele>
        <time>2022-06-27T09:01:19.000Z</time>
      </trkpt>
      <trkpt lat="43.46839" lon="6.85546">
        <ele>63</ele>
        <time>2022-06-27T09:01:22.000Z</time>
      </trkpt>
      <trkpt lat="43.46853" lon="6.85551">
        <ele>62.799999237061</ele>
        <time>2022-06-27T09:01:23.000Z</time>
      </trkpt>
      <trkpt lat="43.46867" lon="6.85554">
        <ele>62.200000762939</ele>
        <time>2022-06-27T09:01:25.000Z</time>
      </trkpt>
      <trkpt lat="43.46873" lon="6.85556">
        <ele>61.599998474121</ele>
        <time>2022-06-27T09:01:26.000Z</time>
      </trkpt>
      <trkpt lat="43.46906" lon="6.85565">
        <ele>60.599998474121</ele>
        <time>2022-06-27T09:01:31.000Z</time>
      </trkpt>
      <trkpt lat="43.46912" lon="6.85569">
        <ele>60.400001525879</ele>
        <time>2022-06-27T09:01:32.000Z</time>
      </trkpt>
      <trkpt lat="43.46937" lon="6.85583">
        <ele>60</ele>
        <time>2022-06-27T09:01:36.000Z</time>
      </trkpt>
      <trkpt lat="43.46943" lon="6.85586">
        <ele>59.599998474121</ele>
        <time>2022-06-27T09:01:37.000Z</time>
      </trkpt>
      <trkpt lat="43.46949" lon="6.85588">
        <ele>59.200000762939</ele>
        <time>2022-06-27T09:01:38.000Z</time>
      </trkpt>
      <trkpt lat="43.46957" lon="6.8559">
        <ele>59.200000762939</ele>
        <time>2022-06-27T09:01:39.000Z</time>
      </trkpt>
      <trkpt lat="43.46974" lon="6.85589">
        <ele>58.400001525879</ele>
        <time>2022-06-27T09:01:42.000Z</time>
      </trkpt>
      <trkpt lat="43.4698" lon="6.85591">
        <ele>58.200000762939</ele>
        <time>2022-06-27T09:01:43.000Z</time>
      </trkpt>
      <trkpt lat="43.46988" lon="6.85593">
        <ele>58.200000762939</ele>
        <time>2022-06-27T09:01:44.000Z</time>
      </trkpt>
      <trkpt lat="43.47" lon="6.85599">
        <ele>57.799999237061</ele>
        <time>2022-06-27T09:01:46.000Z</time>
      </trkpt>
      <trkpt lat="43.47019" lon="6.85608">
        <ele>57</ele>
        <time>2022-06-27T09:01:50.000Z</time>
      </trkpt>
      <trkpt lat="43.47022" lon="6.8561">
        <ele>56.799999237061</ele>
        <time>2022-06-27T09:01:51.000Z</time>
      </trkpt>
      <trkpt lat="43.47026" lon="6.85612">
        <ele>56</ele>
        <time>2022-06-27T09:01:54.000Z</time>
      </trkpt>
      <trkpt lat="43.47026" lon="6.85612">
        <ele>55.799999237061</ele>
        <time>2022-06-27T09:01:55.000Z</time>
      </trkpt>
      <trkpt lat="43.47026" lon="6.85612">
        <ele>55.200000762939</ele>
        <time>2022-06-27T09:01:59.000Z</time>
      </trkpt>
      <trkpt lat="43.47026" lon="6.85612">
        <ele>54.599998474121</ele>
        <time>2022-06-27T09:02:07.000Z</time>
      </trkpt>
      <trkpt lat="43.47032" lon="6.85614">
        <ele>54.200000762939</ele>
        <time>2022-06-27T09:02:18.000Z</time>
      </trkpt>
      <trkpt lat="43.47044" lon="6.85625">
        <ele>54.200000762939</ele>
        <time>2022-06-27T09:02:23.000Z</time>
      </trkpt>
      <trkpt lat="43.4706" lon="6.85638">
        <ele>54</ele>
        <time>2022-06-27T09:02:28.000Z</time>
      </trkpt>
      <trkpt lat="43.47075" lon="6.85656">
        <ele>54.200000762939</ele>
        <time>2022-06-27T09:02:34.000Z</time>
      </trkpt>
      <trkpt lat="43.47088" lon="6.85668">
        <ele>54.799999237061</ele>
        <time>2022-06-27T09:02:39.000Z</time>
      </trkpt>
      <trkpt lat="43.47093" lon="6.85674">
        <ele>55.200000762939</ele>
        <time>2022-06-27T09:02:41.000Z</time>
      </trkpt>
      <trkpt lat="43.47106" lon="6.85686">
        <ele>56</ele>
        <time>2022-06-27T09:02:46.000Z</time>
      </trkpt>
      <trkpt lat="43.47112" lon="6.85688">
        <ele>56.599998474121</ele>
        <time>2022-06-27T09:02:48.000Z</time>
      </trkpt>
      <trkpt lat="43.4713" lon="6.85691">
        <ele>57.400001525879</ele>
        <time>2022-06-27T09:02:53.000Z</time>
      </trkpt>
      <trkpt lat="43.47136" lon="6.85691">
        <ele>57.599998474121</ele>
        <time>2022-06-27T09:02:55.000Z</time>
      </trkpt>
      <trkpt lat="43.47158" lon="6.85695">
        <ele>57.799999237061</ele>
        <time>2022-06-27T09:03:02.000Z</time>
      </trkpt>
      <trkpt lat="43.47169" lon="6.85696">
        <ele>58.400001525879</ele>
        <time>2022-06-27T09:03:05.000Z</time>
      </trkpt>
      <trkpt lat="43.47188" lon="6.85692">
        <ele>59</ele>
        <time>2022-06-27T09:03:10.000Z</time>
      </trkpt>
      <trkpt lat="43.47206" lon="6.85687">
        <ele>59.599998474121</ele>
        <time>2022-06-27T09:03:15.000Z</time>
      </trkpt>
      <trkpt lat="43.47223" lon="6.85683">
        <ele>60.200000762939</ele>
        <time>2022-06-27T09:03:18.000Z</time>
      </trkpt>
      <trkpt lat="43.47229" lon="6.85684">
        <ele>60.799999237061</ele>
        <time>2022-06-27T09:03:20.000Z</time>
      </trkpt>
      <trkpt lat="43.47245" lon="6.85683">
        <ele>61.599998474121</ele>
        <time>2022-06-27T09:03:26.000Z</time>
      </trkpt>
      <trkpt lat="43.47266" lon="6.8568">
        <ele>62.599998474121</ele>
        <time>2022-06-27T09:03:32.000Z</time>
      </trkpt>
      <trkpt lat="43.4727" lon="6.8568">
        <ele>62.599998474121</ele>
        <time>2022-06-27T09:03:33.000Z</time>
      </trkpt>
      <trkpt lat="43.47291" lon="6.85687">
        <ele>62.599998474121</ele>
        <time>2022-06-27T09:03:38.000Z</time>
      </trkpt>
      <trkpt lat="43.47305" lon="6.85703">
        <ele>63.200000762939</ele>
        <time>2022-06-27T09:03:44.000Z</time>
      </trkpt>
      <trkpt lat="43.4732" lon="6.85736">
        <ele>63.599998474121</ele>
        <time>2022-06-27T09:03:52.000Z</time>
      </trkpt>
      <trkpt lat="43.47331" lon="6.85766">
        <ele>64</ele>
        <time>2022-06-27T09:04:00.000Z</time>
      </trkpt>
      <trkpt lat="43.47337" lon="6.85783">
        <ele>64.400001525879</ele>
        <time>2022-06-27T09:04:03.000Z</time>
      </trkpt>
      <trkpt lat="43.47344" lon="6.8579">
        <ele>64.599998474121</ele>
        <time>2022-06-27T09:04:06.000Z</time>
      </trkpt>
      <trkpt lat="43.47351" lon="6.85794">
        <ele>64.599998474121</ele>
        <time>2022-06-27T09:04:07.000Z</time>
      </trkpt>
      <trkpt lat="43.47358" lon="6.85794">
        <ele>64.599998474121</ele>
        <time>2022-06-27T09:04:09.000Z</time>
      </trkpt>
      <trkpt lat="43.47365" lon="6.85789">
        <ele>64.599998474121</ele>
        <time>2022-06-27T09:04:11.000Z</time>
      </trkpt>
      <trkpt lat="43.47372" lon="6.85784">
        <ele>64.800003051758</ele>
        <time>2022-06-27T09:04:13.000Z</time>
      </trkpt>
      <trkpt lat="43.47383" lon="6.85775">
        <ele>65</ele>
        <time>2022-06-27T09:04:16.000Z</time>
      </trkpt>
      <trkpt lat="43.47387" lon="6.85773">
        <ele>65.199996948242</ele>
        <time>2022-06-27T09:04:17.000Z</time>
      </trkpt>
      <trkpt lat="43.4739" lon="6.85771">
        <ele>65.199996948242</ele>
        <time>2022-06-27T09:04:18.000Z</time>
      </trkpt>
      <trkpt lat="43.47398" lon="6.85768">
        <ele>65.199996948242</ele>
        <time>2022-06-27T09:04:20.000Z</time>
      </trkpt>
      <trkpt lat="43.47408" lon="6.85766">
        <ele>65.199996948242</ele>
        <time>2022-06-27T09:04:23.000Z</time>
      </trkpt>
      <trkpt lat="43.47429" lon="6.85762">
        <ele>65.199996948242</ele>
        <time>2022-06-27T09:04:30.000Z</time>
      </trkpt>
      <trkpt lat="43.47444" lon="6.85787">
        <ele>65.800003051758</ele>
        <time>2022-06-27T09:04:35.000Z</time>
      </trkpt>
      <trkpt lat="43.47449" lon="6.85805">
        <ele>66.199996948242</ele>
        <time>2022-06-27T09:04:39.000Z</time>
      </trkpt>
      <trkpt lat="43.4745" lon="6.85816">
        <ele>66.400001525879</ele>
        <time>2022-06-27T09:04:42.000Z</time>
      </trkpt>
      <trkpt lat="43.4745" lon="6.85849">
        <ele>67.199996948242</ele>
        <time>2022-06-27T09:04:49.000Z</time>
      </trkpt>
      <trkpt lat="43.4745" lon="6.85859">
        <ele>67.400001525879</ele>
        <time>2022-06-27T09:04:51.000Z</time>
      </trkpt>
      <trkpt lat="43.47451" lon="6.85886">
        <ele>68.199996948242</ele>
        <time>2022-06-27T09:04:56.000Z</time>
      </trkpt>
      <trkpt lat="43.47447" lon="6.85909">
        <ele>68.800003051758</ele>
        <time>2022-06-27T09:05:01.000Z</time>
      </trkpt>
      <trkpt lat="43.47437" lon="6.8593">
        <ele>69.199996948242</ele>
        <time>2022-06-27T09:05:06.000Z</time>
      </trkpt>
      <trkpt lat="43.47428" lon="6.85941">
        <ele>69.199996948242</ele>
        <time>2022-06-27T09:05:09.000Z</time>
      </trkpt>
      <trkpt lat="43.47417" lon="6.85953">
        <ele>69.400001525879</ele>
        <time>2022-06-27T09:05:13.000Z</time>
      </trkpt>
      <trkpt lat="43.47401" lon="6.85982">
        <ele>69.800003051758</ele>
        <time>2022-06-27T09:05:20.000Z</time>
      </trkpt>
      <trkpt lat="43.47402" lon="6.86001">
        <ele>70</ele>
        <time>2022-06-27T09:05:25.000Z</time>
      </trkpt>
      <trkpt lat="43.47408" lon="6.86005">
        <ele>70</ele>
        <time>2022-06-27T09:05:26.000Z</time>
      </trkpt>
      <trkpt lat="43.47413" lon="6.86009">
        <ele>70</ele>
        <time>2022-06-27T09:05:28.000Z</time>
      </trkpt>
      <trkpt lat="43.47426" lon="6.86019">
        <ele>69.599998474121</ele>
        <time>2022-06-27T09:05:34.000Z</time>
      </trkpt>
      <trkpt lat="43.47428" lon="6.86021">
        <ele>69.400001525879</ele>
        <time>2022-06-27T09:05:38.000Z</time>
      </trkpt>
      <trkpt lat="43.4743" lon="6.86025">
        <ele>69</ele>
        <time>2022-06-27T09:05:43.000Z</time>
      </trkpt>
      <trkpt lat="43.47433" lon="6.8603">
        <ele>69</ele>
        <time>2022-06-27T09:05:51.000Z</time>
      </trkpt>
      <trkpt lat="43.47437" lon="6.86034">
        <ele>69.199996948242</ele>
        <time>2022-06-27T09:06:23.000Z</time>
      </trkpt>
      <trkpt lat="43.47446" lon="6.86046">
        <ele>69.199996948242</ele>
        <time>2022-06-27T09:06:27.000Z</time>
      </trkpt>
      <trkpt lat="43.47458" lon="6.86071">
        <ele>69.599998474121</ele>
        <time>2022-06-27T09:06:34.000Z</time>
      </trkpt>
      <trkpt lat="43.47462" lon="6.86096">
        <ele>69.800003051758</ele>
        <time>2022-06-27T09:06:40.000Z</time>
      </trkpt>
      <trkpt lat="43.47459" lon="6.86123">
        <ele>69.800003051758</ele>
        <time>2022-06-27T09:06:46.000Z</time>
      </trkpt>
      <trkpt lat="43.47456" lon="6.86146">
        <ele>70.599998474121</ele>
        <time>2022-06-27T09:06:51.000Z</time>
      </trkpt>
      <trkpt lat="43.47454" lon="6.86175">
        <ele>71.400001525879</ele>
        <time>2022-06-27T09:06:57.000Z</time>
      </trkpt>
      <trkpt lat="43.47454" lon="6.86181">
        <ele>71.800003051758</ele>
        <time>2022-06-27T09:06:58.000Z</time>
      </trkpt>
      <trkpt lat="43.4745" lon="6.86216">
        <ele>72.400001525879</ele>
        <time>2022-06-27T09:07:05.000Z</time>
      </trkpt>
      <trkpt lat="43.47449" lon="6.86221">
        <ele>72.599998474121</ele>
        <time>2022-06-27T09:07:06.000Z</time>
      </trkpt>
      <trkpt lat="43.47444" lon="6.86253">
        <ele>73</ele>
        <time>2022-06-27T09:07:12.000Z</time>
      </trkpt>
      <trkpt lat="43.47443" lon="6.8626">
        <ele>73</ele>
        <time>2022-06-27T09:07:13.000Z</time>
      </trkpt>
      <trkpt lat="43.47448" lon="6.86291">
        <ele>73</ele>
        <time>2022-06-27T09:07:19.000Z</time>
      </trkpt>
      <trkpt lat="43.4746" lon="6.8632">
        <ele>73</ele>
        <time>2022-06-27T09:07:25.000Z</time>
      </trkpt>
      <trkpt lat="43.47465" lon="6.86327">
        <ele>73.199996948242</ele>
        <time>2022-06-27T09:07:27.000Z</time>
      </trkpt>
      <trkpt lat="43.47469" lon="6.86331">
        <ele>73.199996948242</ele>
        <time>2022-06-27T09:07:28.000Z</time>
      </trkpt>
      <trkpt lat="43.47483" lon="6.86344">
        <ele>73.400001525879</ele>
        <time>2022-06-27T09:07:32.000Z</time>
      </trkpt>
      <trkpt lat="43.47493" lon="6.86354">
        <ele>73.800003051758</ele>
        <time>2022-06-27T09:07:35.000Z</time>
      </trkpt>
      <trkpt lat="43.475" lon="6.86359">
        <ele>74.599998474121</ele>
        <time>2022-06-27T09:07:37.000Z</time>
      </trkpt>
      <trkpt lat="43.47525" lon="6.86375">
        <ele>75</ele>
        <time>2022-06-27T09:07:44.000Z</time>
      </trkpt>
      <trkpt lat="43.47548" lon="6.86387">
        <ele>75.599998474121</ele>
        <time>2022-06-27T09:07:50.000Z</time>
      </trkpt>
      <trkpt lat="43.47555" lon="6.8639">
        <ele>75.400001525879</ele>
        <time>2022-06-27T09:07:52.000Z</time>
      </trkpt>
      <trkpt lat="43.47571" lon="6.86393">
        <ele>76.400001525879</ele>
        <time>2022-06-27T09:07:56.000Z</time>
      </trkpt>
      <trkpt lat="43.47585" lon="6.86396">
        <ele>76.599998474121</ele>
        <time>2022-06-27T09:08:00.000Z</time>
      </trkpt>
      <trkpt lat="43.47606" lon="6.86401">
        <ele>77.800003051758</ele>
        <time>2022-06-27T09:08:06.000Z</time>
      </trkpt>
      <trkpt lat="43.47617" lon="6.86401">
        <ele>78</ele>
        <time>2022-06-27T09:08:09.000Z</time>
      </trkpt>
      <trkpt lat="43.47631" lon="6.86398">
        <ele>78.400001525879</ele>
        <time>2022-06-27T09:08:13.000Z</time>
      </trkpt>
      <trkpt lat="43.47646" lon="6.86388">
        <ele>78.599998474121</ele>
        <time>2022-06-27T09:08:17.000Z</time>
      </trkpt>
      <trkpt lat="43.47654" lon="6.86385">
        <ele>78.800003051758</ele>
        <time>2022-06-27T09:08:19.000Z</time>
      </trkpt>
      <trkpt lat="43.47678" lon="6.86373">
        <ele>79.599998474121</ele>
        <time>2022-06-27T09:08:25.000Z</time>
      </trkpt>
      <trkpt lat="43.47706" lon="6.86361">
        <ele>79.800003051758</ele>
        <time>2022-06-27T09:08:32.000Z</time>
      </trkpt>
      <trkpt lat="43.47718" lon="6.86356">
        <ele>79.800003051758</ele>
        <time>2022-06-27T09:08:35.000Z</time>
      </trkpt>
      <trkpt lat="43.47754" lon="6.86339">
        <ele>80.400001525879</ele>
        <time>2022-06-27T09:08:44.000Z</time>
      </trkpt>
      <trkpt lat="43.47762" lon="6.86333">
        <ele>80.599998474121</ele>
        <time>2022-06-27T09:08:46.000Z</time>
      </trkpt>
      <trkpt lat="43.47766" lon="6.86331">
        <ele>80.599998474121</ele>
        <time>2022-06-27T09:08:47.000Z</time>
      </trkpt>
      <trkpt lat="43.47774" lon="6.86327">
        <ele>80.800003051758</ele>
        <time>2022-06-27T09:08:49.000Z</time>
      </trkpt>
      <trkpt lat="43.47805" lon="6.8631">
        <ele>81.599998474121</ele>
        <time>2022-06-27T09:08:57.000Z</time>
      </trkpt>
      <trkpt lat="43.47813" lon="6.86305">
        <ele>82</ele>
        <time>2022-06-27T09:08:59.000Z</time>
      </trkpt>
      <trkpt lat="43.47831" lon="6.86291">
        <ele>82.800003051758</ele>
        <time>2022-06-27T09:09:04.000Z</time>
      </trkpt>
      <trkpt lat="43.47845" lon="6.86275">
        <ele>83.199996948242</ele>
        <time>2022-06-27T09:09:08.000Z</time>
      </trkpt>
      <trkpt lat="43.47854" lon="6.86263">
        <ele>83.599998474121</ele>
        <time>2022-06-27T09:09:11.000Z</time>
      </trkpt>
      <trkpt lat="43.47866" lon="6.86253">
        <ele>83.800003051758</ele>
        <time>2022-06-27T09:09:14.000Z</time>
      </trkpt>
      <trkpt lat="43.47882" lon="6.86246">
        <ele>84</ele>
        <time>2022-06-27T09:09:18.000Z</time>
      </trkpt>
      <trkpt lat="43.47888" lon="6.86239">
        <ele>84.400001525879</ele>
        <time>2022-06-27T09:09:20.000Z</time>
      </trkpt>
      <trkpt lat="43.47893" lon="6.86228">
        <ele>84.599998474121</ele>
        <time>2022-06-27T09:09:22.000Z</time>
      </trkpt>
      <trkpt lat="43.47895" lon="6.86222">
        <ele>84.599998474121</ele>
        <time>2022-06-27T09:09:23.000Z</time>
      </trkpt>
      <trkpt lat="43.47899" lon="6.8621">
        <ele>84.599998474121</ele>
        <time>2022-06-27T09:09:25.000Z</time>
      </trkpt>
      <trkpt lat="43.479" lon="6.86205">
        <ele>84.800003051758</ele>
        <time>2022-06-27T09:09:26.000Z</time>
      </trkpt>
      <trkpt lat="43.47906" lon="6.86195">
        <ele>84.800003051758</ele>
        <time>2022-06-27T09:09:28.000Z</time>
      </trkpt>
      <trkpt lat="43.4791" lon="6.86191">
        <ele>84.800003051758</ele>
        <time>2022-06-27T09:09:29.000Z</time>
      </trkpt>
      <trkpt lat="43.47917" lon="6.86184">
        <ele>84.800003051758</ele>
        <time>2022-06-27T09:09:31.000Z</time>
      </trkpt>
      <trkpt lat="43.47926" lon="6.8618">
        <ele>84.800003051758</ele>
        <time>2022-06-27T09:09:33.000Z</time>
      </trkpt>
      <trkpt lat="43.47931" lon="6.86178">
        <ele>84.800003051758</ele>
        <time>2022-06-27T09:09:34.000Z</time>
      </trkpt>
      <trkpt lat="43.47935" lon="6.86178">
        <ele>85</ele>
        <time>2022-06-27T09:09:35.000Z</time>
      </trkpt>
      <trkpt lat="43.47944" lon="6.86178">
        <ele>85.199996948242</ele>
        <time>2022-06-27T09:09:37.000Z</time>
      </trkpt>
      <trkpt lat="43.47952" lon="6.86177">
        <ele>85.400001525879</ele>
        <time>2022-06-27T09:09:39.000Z</time>
      </trkpt>
      <trkpt lat="43.47961" lon="6.86176">
        <ele>85.400001525879</ele>
        <time>2022-06-27T09:09:41.000Z</time>
      </trkpt>
      <trkpt lat="43.47968" lon="6.86173">
        <ele>85.400001525879</ele>
        <time>2022-06-27T09:09:43.000Z</time>
      </trkpt>
      <trkpt lat="43.47972" lon="6.86169">
        <ele>85.599998474121</ele>
        <time>2022-06-27T09:09:44.000Z</time>
      </trkpt>
      <trkpt lat="43.47975" lon="6.86165">
        <ele>85.800003051758</ele>
        <time>2022-06-27T09:09:45.000Z</time>
      </trkpt>
      <trkpt lat="43.47981" lon="6.86157">
        <ele>85.800003051758</ele>
        <time>2022-06-27T09:09:47.000Z</time>
      </trkpt>
      <trkpt lat="43.47993" lon="6.8614">
        <ele>86.599998474121</ele>
        <time>2022-06-27T09:09:51.000Z</time>
      </trkpt>
      <trkpt lat="43.47995" lon="6.86135">
        <ele>87</ele>
        <time>2022-06-27T09:09:52.000Z</time>
      </trkpt>
      <trkpt lat="43.48005" lon="6.86104">
        <ele>88</ele>
        <time>2022-06-27T09:09:58.000Z</time>
      </trkpt>
      <trkpt lat="43.48007" lon="6.86097">
        <ele>87.800003051758</ele>
        <time>2022-06-27T09:09:59.000Z</time>
      </trkpt>
      <trkpt lat="43.48008" lon="6.86092">
        <ele>87.800003051758</ele>
        <time>2022-06-27T09:10:00.000Z</time>
      </trkpt>
      <trkpt lat="43.48014" lon="6.86071">
        <ele>88.599998474121</ele>
        <time>2022-06-27T09:10:04.000Z</time>
      </trkpt>
      <trkpt lat="43.48016" lon="6.86061">
        <ele>89</ele>
        <time>2022-06-27T09:10:06.000Z</time>
      </trkpt>
      <trkpt lat="43.48017" lon="6.86044">
        <ele>89.599998474121</ele>
        <time>2022-06-27T09:10:09.000Z</time>
      </trkpt>
      <trkpt lat="43.48017" lon="6.86033">
        <ele>90</ele>
        <time>2022-06-27T09:10:11.000Z</time>
      </trkpt>
      <trkpt lat="43.48016" lon="6.86027">
        <ele>90.199996948242</ele>
        <time>2022-06-27T09:10:12.000Z</time>
      </trkpt>
      <trkpt lat="43.48012" lon="6.86004">
        <ele>90.800003051758</ele>
        <time>2022-06-27T09:10:16.000Z</time>
      </trkpt>
      <trkpt lat="43.48008" lon="6.85982">
        <ele>91.400001525879</ele>
        <time>2022-06-27T09:10:20.000Z</time>
      </trkpt>
      <trkpt lat="43.48003" lon="6.85953">
        <ele>92.199996948242</ele>
        <time>2022-06-27T09:10:25.000Z</time>
      </trkpt>
      <trkpt lat="43.48001" lon="6.85935">
        <ele>92.400001525879</ele>
        <time>2022-06-27T09:10:28.000Z</time>
      </trkpt>
      <trkpt lat="43.48" lon="6.85911">
        <ele>92.800003051758</ele>
        <time>2022-06-27T09:10:32.000Z</time>
      </trkpt>
      <trkpt lat="43.48005" lon="6.85874">
        <ele>92.800003051758</ele>
        <time>2022-06-27T09:10:38.000Z</time>
      </trkpt>
      <trkpt lat="43.48007" lon="6.85868">
        <ele>92.800003051758</ele>
        <time>2022-06-27T09:10:39.000Z</time>
      </trkpt>
      <trkpt lat="43.48017" lon="6.85841">
        <ele>92.800003051758</ele>
        <time>2022-06-27T09:10:44.000Z</time>
      </trkpt>
      <trkpt lat="43.4802" lon="6.8583">
        <ele>92.800003051758</ele>
        <time>2022-06-27T09:10:46.000Z</time>
      </trkpt>
      <trkpt lat="43.48022" lon="6.85826">
        <ele>92.800003051758</ele>
        <time>2022-06-27T09:10:47.000Z</time>
      </trkpt>
      <trkpt lat="43.48035" lon="6.85801">
        <ele>93</ele>
        <time>2022-06-27T09:10:53.000Z</time>
      </trkpt>
      <trkpt lat="43.48043" lon="6.85779">
        <ele>93.199996948242</ele>
        <time>2022-06-27T09:10:58.000Z</time>
      </trkpt>
      <trkpt lat="43.48045" lon="6.85775">
        <ele>93.199996948242</ele>
        <time>2022-06-27T09:10:59.000Z</time>
      </trkpt>
      <trkpt lat="43.48051" lon="6.85766">
        <ele>94.199996948242</ele>
        <time>2022-06-27T09:11:02.000Z</time>
      </trkpt>
      <trkpt lat="43.48052" lon="6.85763">
        <ele>94.400001525879</ele>
        <time>2022-06-27T09:11:03.000Z</time>
      </trkpt>
      <trkpt lat="43.48064" lon="6.85743">
        <ele>94.800003051758</ele>
        <time>2022-06-27T09:11:10.000Z</time>
      </trkpt>
      <trkpt lat="43.48075" lon="6.85729">
        <ele>95.199996948242</ele>
        <time>2022-06-27T09:11:15.000Z</time>
      </trkpt>
      <trkpt lat="43.48084" lon="6.85717">
        <ele>95.599998474121</ele>
        <time>2022-06-27T09:11:19.000Z</time>
      </trkpt>
      <trkpt lat="43.48091" lon="6.85707">
        <ele>96.400001525879</ele>
        <time>2022-06-27T09:11:22.000Z</time>
      </trkpt>
      <trkpt lat="43.48103" lon="6.85694">
        <ele>96.800003051758</ele>
        <time>2022-06-27T09:11:27.000Z</time>
      </trkpt>
      <trkpt lat="43.48104" lon="6.85693">
        <ele>97.199996948242</ele>
        <time>2022-06-27T09:11:31.000Z</time>
      </trkpt>
      <trkpt lat="43.48104" lon="6.85693">
        <ele>97.400001525879</ele>
        <time>2022-06-27T09:11:32.000Z</time>
      </trkpt>
      <trkpt lat="43.48105" lon="6.85693">
        <ele>97.199996948242</ele>
        <time>2022-06-27T09:12:00.000Z</time>
      </trkpt>
      <trkpt lat="43.48109" lon="6.8569">
        <ele>97.400001525879</ele>
        <time>2022-06-27T09:12:02.000Z</time>
      </trkpt>
      <trkpt lat="43.48125" lon="6.85678">
        <ele>97.800003051758</ele>
        <time>2022-06-27T09:12:08.000Z</time>
      </trkpt>
      <trkpt lat="43.48152" lon="6.85658">
        <ele>97.800003051758</ele>
        <time>2022-06-27T09:12:17.000Z</time>
      </trkpt>
      <trkpt lat="43.48165" lon="6.85651">
        <ele>98.199996948242</ele>
        <time>2022-06-27T09:12:21.000Z</time>
      </trkpt>
      <trkpt lat="43.4818" lon="6.85643">
        <ele>98.800003051758</ele>
        <time>2022-06-27T09:12:25.000Z</time>
      </trkpt>
      <trkpt lat="43.48188" lon="6.8564">
        <ele>99.199996948242</ele>
        <time>2022-06-27T09:12:27.000Z</time>
      </trkpt>
      <trkpt lat="43.48195" lon="6.85637">
        <ele>99.400001525879</ele>
        <time>2022-06-27T09:12:29.000Z</time>
      </trkpt>
      <trkpt lat="43.48211" lon="6.85631">
        <ele>99.599998474121</ele>
        <time>2022-06-27T09:12:33.000Z</time>
      </trkpt>
      <trkpt lat="43.48228" lon="6.85628">
        <ele>100.40000152588</ele>
        <time>2022-06-27T09:12:37.000Z</time>
      </trkpt>
      <trkpt lat="43.48239" lon="6.85628">
        <ele>100.59999847412</ele>
        <time>2022-06-27T09:12:40.000Z</time>
      </trkpt>
      <trkpt lat="43.48252" lon="6.85633">
        <ele>101.19999694824</ele>
        <time>2022-06-27T09:12:44.000Z</time>
      </trkpt>
      <trkpt lat="43.48256" lon="6.85635">
        <ele>101.40000152588</ele>
        <time>2022-06-27T09:12:45.000Z</time>
      </trkpt>
      <trkpt lat="43.4826" lon="6.85636">
        <ele>101.80000305176</ele>
        <time>2022-06-27T09:12:46.000Z</time>
      </trkpt>
      <trkpt lat="43.48264" lon="6.85637">
        <ele>101.80000305176</ele>
        <time>2022-06-27T09:12:47.000Z</time>
      </trkpt>
      <trkpt lat="43.48271" lon="6.85638">
        <ele>102.19999694824</ele>
        <time>2022-06-27T09:12:49.000Z</time>
      </trkpt>
      <trkpt lat="43.4828" lon="6.85639">
        <ele>102.40000152588</ele>
        <time>2022-06-27T09:12:51.000Z</time>
      </trkpt>
      <trkpt lat="43.48297" lon="6.85639">
        <ele>102.80000305176</ele>
        <time>2022-06-27T09:12:55.000Z</time>
      </trkpt>
      <trkpt lat="43.48328" lon="6.85634">
        <ele>103</ele>
        <time>2022-06-27T09:13:02.000Z</time>
      </trkpt>
      <trkpt lat="43.48332" lon="6.85633">
        <ele>103</ele>
        <time>2022-06-27T09:13:03.000Z</time>
      </trkpt>
      <trkpt lat="43.48366" lon="6.85617">
        <ele>103.19999694824</ele>
        <time>2022-06-27T09:13:12.000Z</time>
      </trkpt>
      <trkpt lat="43.48371" lon="6.85615">
        <ele>103.59999847412</ele>
        <time>2022-06-27T09:13:14.000Z</time>
      </trkpt>
      <trkpt lat="43.48371" lon="6.85614">
        <ele>104</ele>
        <time>2022-06-27T09:13:16.000Z</time>
      </trkpt>
      <trkpt lat="43.48371" lon="6.85614">
        <ele>104.59999847412</ele>
        <time>2022-06-27T09:13:20.000Z</time>
      </trkpt>
      <trkpt lat="43.48378" lon="6.85613">
        <ele>105.19999694824</ele>
        <time>2022-06-27T09:13:46.000Z</time>
      </trkpt>
      <trkpt lat="43.484" lon="6.85607">
        <ele>105</ele>
        <time>2022-06-27T09:13:53.000Z</time>
      </trkpt>
      <trkpt lat="43.48424" lon="6.85594">
        <ele>105.19999694824</ele>
        <time>2022-06-27T09:14:01.000Z</time>
      </trkpt>
      <trkpt lat="43.48445" lon="6.85584">
        <ele>105.40000152588</ele>
        <time>2022-06-27T09:14:07.000Z</time>
      </trkpt>
      <trkpt lat="43.48449" lon="6.85583">
        <ele>105.40000152588</ele>
        <time>2022-06-27T09:14:08.000Z</time>
      </trkpt>
      <trkpt lat="43.48471" lon="6.85571">
        <ele>106.40000152588</ele>
        <time>2022-06-27T09:14:15.000Z</time>
      </trkpt>
      <trkpt lat="43.48487" lon="6.85564">
        <ele>108</ele>
        <time>2022-06-27T09:14:20.000Z</time>
      </trkpt>
      <trkpt lat="43.48492" lon="6.85562">
        <ele>108.40000152588</ele>
        <time>2022-06-27T09:14:22.000Z</time>
      </trkpt>
      <trkpt lat="43.48494" lon="6.8556">
        <ele>108.80000305176</ele>
        <time>2022-06-27T09:14:23.000Z</time>
      </trkpt>
      <trkpt lat="43.48505" lon="6.85554">
        <ele>110.40000152588</ele>
        <time>2022-06-27T09:14:27.000Z</time>
      </trkpt>
      <trkpt lat="43.48511" lon="6.85552">
        <ele>111.59999847412</ele>
        <time>2022-06-27T09:14:29.000Z</time>
      </trkpt>
      <trkpt lat="43.48526" lon="6.85547">
        <ele>112.59999847412</ele>
        <time>2022-06-27T09:14:34.000Z</time>
      </trkpt>
      <trkpt lat="43.48528" lon="6.85546">
        <ele>112.80000305176</ele>
        <time>2022-06-27T09:14:35.000Z</time>
      </trkpt>
      <trkpt lat="43.48546" lon="6.85541">
        <ele>113.59999847412</ele>
        <time>2022-06-27T09:14:41.000Z</time>
      </trkpt>
      <trkpt lat="43.48549" lon="6.85541">
        <ele>114</ele>
        <time>2022-06-27T09:14:42.000Z</time>
      </trkpt>
      <trkpt lat="43.48559" lon="6.85543">
        <ele>114.80000305176</ele>
        <time>2022-06-27T09:14:45.000Z</time>
      </trkpt>
      <trkpt lat="43.48571" lon="6.85545">
        <ele>116</ele>
        <time>2022-06-27T09:14:49.000Z</time>
      </trkpt>
      <trkpt lat="43.48583" lon="6.85546">
        <ele>117.19999694824</ele>
        <time>2022-06-27T09:14:53.000Z</time>
      </trkpt>
      <trkpt lat="43.48595" lon="6.85544">
        <ele>118.19999694824</ele>
        <time>2022-06-27T09:14:57.000Z</time>
      </trkpt>
      <trkpt lat="43.48601" lon="6.85543">
        <ele>118.80000305176</ele>
        <time>2022-06-27T09:14:59.000Z</time>
      </trkpt>
      <trkpt lat="43.48607" lon="6.85542">
        <ele>119.40000152588</ele>
        <time>2022-06-27T09:15:01.000Z</time>
      </trkpt>
      <trkpt lat="43.48616" lon="6.8554">
        <ele>120.59999847412</ele>
        <time>2022-06-27T09:15:04.000Z</time>
      </trkpt>
      <trkpt lat="43.48625" lon="6.85537">
        <ele>121.59999847412</ele>
        <time>2022-06-27T09:15:07.000Z</time>
      </trkpt>
      <trkpt lat="43.48631" lon="6.85536">
        <ele>122.19999694824</ele>
        <time>2022-06-27T09:15:09.000Z</time>
      </trkpt>
      <trkpt lat="43.48637" lon="6.85536">
        <ele>122.80000305176</ele>
        <time>2022-06-27T09:15:11.000Z</time>
      </trkpt>
      <trkpt lat="43.48654" lon="6.8554">
        <ele>123.80000305176</ele>
        <time>2022-06-27T09:15:17.000Z</time>
      </trkpt>
      <trkpt lat="43.48666" lon="6.85546">
        <ele>125</ele>
        <time>2022-06-27T09:15:21.000Z</time>
      </trkpt>
      <trkpt lat="43.48677" lon="6.85554">
        <ele>126.40000152588</ele>
        <time>2022-06-27T09:15:25.000Z</time>
      </trkpt>
      <trkpt lat="43.48691" lon="6.85566">
        <ele>127.80000305176</ele>
        <time>2022-06-27T09:15:30.000Z</time>
      </trkpt>
      <trkpt lat="43.48697" lon="6.85574">
        <ele>128.80000305176</ele>
        <time>2022-06-27T09:15:33.000Z</time>
      </trkpt>
      <trkpt lat="43.48699" lon="6.85577">
        <ele>129</ele>
        <time>2022-06-27T09:15:34.000Z</time>
      </trkpt>
      <trkpt lat="43.48704" lon="6.85586">
        <ele>130.19999694824</ele>
        <time>2022-06-27T09:15:37.000Z</time>
      </trkpt>
      <trkpt lat="43.48709" lon="6.85602">
        <ele>131.39999389648</ele>
        <time>2022-06-27T09:15:41.000Z</time>
      </trkpt>
      <trkpt lat="43.48711" lon="6.85616">
        <ele>132.39999389648</ele>
        <time>2022-06-27T09:15:44.000Z</time>
      </trkpt>
      <trkpt lat="43.48712" lon="6.85633">
        <ele>133.60000610352</ele>
        <time>2022-06-27T09:15:48.000Z</time>
      </trkpt>
      <trkpt lat="43.48712" lon="6.85638">
        <ele>134</ele>
        <time>2022-06-27T09:15:49.000Z</time>
      </trkpt>
      <trkpt lat="43.48713" lon="6.85646">
        <ele>134.80000305176</ele>
        <time>2022-06-27T09:15:51.000Z</time>
      </trkpt>
      <trkpt lat="43.48714" lon="6.85655">
        <ele>135.60000610352</ele>
        <time>2022-06-27T09:15:53.000Z</time>
      </trkpt>
      <trkpt lat="43.48717" lon="6.85663">
        <ele>136.39999389648</ele>
        <time>2022-06-27T09:15:55.000Z</time>
      </trkpt>
      <trkpt lat="43.48719" lon="6.85667">
        <ele>136.60000610352</ele>
        <time>2022-06-27T09:15:56.000Z</time>
      </trkpt>
      <trkpt lat="43.48728" lon="6.85681">
        <ele>138</ele>
        <time>2022-06-27T09:16:00.000Z</time>
      </trkpt>
      <trkpt lat="43.48731" lon="6.85684">
        <ele>138.19999694824</ele>
        <time>2022-06-27T09:16:01.000Z</time>
      </trkpt>
      <trkpt lat="43.48741" lon="6.85694">
        <ele>139.19999694824</ele>
        <time>2022-06-27T09:16:05.000Z</time>
      </trkpt>
      <trkpt lat="43.48751" lon="6.85701">
        <ele>140.39999389648</ele>
        <time>2022-06-27T09:16:09.000Z</time>
      </trkpt>
      <trkpt lat="43.48758" lon="6.85706">
        <ele>141</ele>
        <time>2022-06-27T09:16:11.000Z</time>
      </trkpt>
      <trkpt lat="43.48763" lon="6.85711">
        <ele>141.39999389648</ele>
        <time>2022-06-27T09:16:13.000Z</time>
      </trkpt>
      <trkpt lat="43.48773" lon="6.85721">
        <ele>142.60000610352</ele>
        <time>2022-06-27T09:16:17.000Z</time>
      </trkpt>
      <trkpt lat="43.48778" lon="6.85727">
        <ele>143.39999389648</ele>
        <time>2022-06-27T09:16:19.000Z</time>
      </trkpt>
      <trkpt lat="43.48784" lon="6.85733">
        <ele>144</ele>
        <time>2022-06-27T09:16:21.000Z</time>
      </trkpt>
      <trkpt lat="43.48796" lon="6.85748">
        <ele>145.39999389648</ele>
        <time>2022-06-27T09:16:26.000Z</time>
      </trkpt>
      <trkpt lat="43.48804" lon="6.85757">
        <ele>146.60000610352</ele>
        <time>2022-06-27T09:16:29.000Z</time>
      </trkpt>
      <trkpt lat="43.48806" lon="6.85759">
        <ele>146.80000305176</ele>
        <time>2022-06-27T09:16:30.000Z</time>
      </trkpt>
      <trkpt lat="43.48812" lon="6.85769">
        <ele>147.60000610352</ele>
        <time>2022-06-27T09:16:33.000Z</time>
      </trkpt>
      <trkpt lat="43.48818" lon="6.85781">
        <ele>148.19999694824</ele>
        <time>2022-06-27T09:16:36.000Z</time>
      </trkpt>
      <trkpt lat="43.48829" lon="6.85809">
        <ele>148.19999694824</ele>
        <time>2022-06-27T09:16:42.000Z</time>
      </trkpt>
      <trkpt lat="43.48828" lon="6.8583">
        <ele>146.19999694824</ele>
        <time>2022-06-27T09:16:46.000Z</time>
      </trkpt>
      <trkpt lat="43.48821" lon="6.85845">
        <ele>145.19999694824</ele>
        <time>2022-06-27T09:16:49.000Z</time>
      </trkpt>
      <trkpt lat="43.48818" lon="6.85851">
        <ele>144.80000305176</ele>
        <time>2022-06-27T09:16:50.000Z</time>
      </trkpt>
      <trkpt lat="43.48816" lon="6.85855">
        <ele>144.60000610352</ele>
        <time>2022-06-27T09:16:51.000Z</time>
      </trkpt>
      <trkpt lat="43.48815" lon="6.85861">
        <ele>144.39999389648</ele>
        <time>2022-06-27T09:16:52.000Z</time>
      </trkpt>
      <trkpt lat="43.48814" lon="6.85867">
        <ele>143.80000305176</ele>
        <time>2022-06-27T09:16:53.000Z</time>
      </trkpt>
      <trkpt lat="43.48815" lon="6.85874">
        <ele>143.60000610352</ele>
        <time>2022-06-27T09:16:54.000Z</time>
      </trkpt>
      <trkpt lat="43.48816" lon="6.85881">
        <ele>143.19999694824</ele>
        <time>2022-06-27T09:16:55.000Z</time>
      </trkpt>
      <trkpt lat="43.48817" lon="6.85887">
        <ele>142.80000305176</ele>
        <time>2022-06-27T09:16:56.000Z</time>
      </trkpt>
      <trkpt lat="43.48819" lon="6.859">
        <ele>142</ele>
        <time>2022-06-27T09:16:58.000Z</time>
      </trkpt>
      <trkpt lat="43.48821" lon="6.85915">
        <ele>141.19999694824</ele>
        <time>2022-06-27T09:17:00.000Z</time>
      </trkpt>
      <trkpt lat="43.48822" lon="6.85935">
        <ele>139.39999389648</ele>
        <time>2022-06-27T09:17:03.000Z</time>
      </trkpt>
      <trkpt lat="43.48821" lon="6.85948">
        <ele>138.60000610352</ele>
        <time>2022-06-27T09:17:05.000Z</time>
      </trkpt>
      <trkpt lat="43.4882" lon="6.8596">
        <ele>138</ele>
        <time>2022-06-27T09:17:07.000Z</time>
      </trkpt>
      <trkpt lat="43.48818" lon="6.85966">
        <ele>137.39999389648</ele>
        <time>2022-06-27T09:17:08.000Z</time>
      </trkpt>
      <trkpt lat="43.48816" lon="6.85971">
        <ele>137</ele>
        <time>2022-06-27T09:17:09.000Z</time>
      </trkpt>
      <trkpt lat="43.48813" lon="6.85976">
        <ele>136.19999694824</ele>
        <time>2022-06-27T09:17:10.000Z</time>
      </trkpt>
      <trkpt lat="43.4881" lon="6.8598">
        <ele>135.80000305176</ele>
        <time>2022-06-27T09:17:11.000Z</time>
      </trkpt>
      <trkpt lat="43.48806" lon="6.85984">
        <ele>135.19999694824</ele>
        <time>2022-06-27T09:17:12.000Z</time>
      </trkpt>
      <trkpt lat="43.48799" lon="6.85988">
        <ele>134.19999694824</ele>
        <time>2022-06-27T09:17:14.000Z</time>
      </trkpt>
      <trkpt lat="43.48795" lon="6.85989">
        <ele>133.80000305176</ele>
        <time>2022-06-27T09:17:15.000Z</time>
      </trkpt>
      <trkpt lat="43.4879" lon="6.85989">
        <ele>133.60000610352</ele>
        <time>2022-06-27T09:17:16.000Z</time>
      </trkpt>
      <trkpt lat="43.48776" lon="6.85992">
        <ele>132.19999694824</ele>
        <time>2022-06-27T09:17:19.000Z</time>
      </trkpt>
      <trkpt lat="43.48766" lon="6.85996">
        <ele>131.60000610352</ele>
        <time>2022-06-27T09:17:21.000Z</time>
      </trkpt>
      <trkpt lat="43.48761" lon="6.85999">
        <ele>131.60000610352</ele>
        <time>2022-06-27T09:17:22.000Z</time>
      </trkpt>
      <trkpt lat="43.48756" lon="6.86002">
        <ele>131.19999694824</ele>
        <time>2022-06-27T09:17:23.000Z</time>
      </trkpt>
      <trkpt lat="43.48751" lon="6.86011">
        <ele>130.19999694824</ele>
        <time>2022-06-27T09:17:25.000Z</time>
      </trkpt>
      <trkpt lat="43.4875" lon="6.86017">
        <ele>129.60000610352</ele>
        <time>2022-06-27T09:17:26.000Z</time>
      </trkpt>
      <trkpt lat="43.4875" lon="6.8603">
        <ele>128.80000305176</ele>
        <time>2022-06-27T09:17:28.000Z</time>
      </trkpt>
      <trkpt lat="43.4875" lon="6.86036">
        <ele>127.80000305176</ele>
        <time>2022-06-27T09:17:29.000Z</time>
      </trkpt>
      <trkpt lat="43.48748" lon="6.86042">
        <ele>127.19999694824</ele>
        <time>2022-06-27T09:17:30.000Z</time>
      </trkpt>
      <trkpt lat="43.48743" lon="6.86052">
        <ele>126.59999847412</ele>
        <time>2022-06-27T09:17:32.000Z</time>
      </trkpt>
      <trkpt lat="43.48736" lon="6.86059">
        <ele>126.19999694824</ele>
        <time>2022-06-27T09:17:34.000Z</time>
      </trkpt>
      <trkpt lat="43.48728" lon="6.86064">
        <ele>125.59999847412</ele>
        <time>2022-06-27T09:17:36.000Z</time>
      </trkpt>
      <trkpt lat="43.48717" lon="6.86069">
        <ele>124.40000152588</ele>
        <time>2022-06-27T09:17:38.000Z</time>
      </trkpt>
      <trkpt lat="43.48706" lon="6.86074">
        <ele>123.40000152588</ele>
        <time>2022-06-27T09:17:40.000Z</time>
      </trkpt>
      <trkpt lat="43.48702" lon="6.86079">
        <ele>122.40000152588</ele>
        <time>2022-06-27T09:17:41.000Z</time>
      </trkpt>
      <trkpt lat="43.48698" lon="6.86085">
        <ele>121.40000152588</ele>
        <time>2022-06-27T09:17:42.000Z</time>
      </trkpt>
      <trkpt lat="43.48691" lon="6.86096">
        <ele>120</ele>
        <time>2022-06-27T09:17:44.000Z</time>
      </trkpt>
      <trkpt lat="43.48685" lon="6.86107">
        <ele>118.59999847412</ele>
        <time>2022-06-27T09:17:46.000Z</time>
      </trkpt>
      <trkpt lat="43.48682" lon="6.8611">
        <ele>118.19999694824</ele>
        <time>2022-06-27T09:17:47.000Z</time>
      </trkpt>
      <trkpt lat="43.48676" lon="6.86119">
        <ele>117.40000152588</ele>
        <time>2022-06-27T09:17:49.000Z</time>
      </trkpt>
      <trkpt lat="43.48673" lon="6.86129">
        <ele>116.19999694824</ele>
        <time>2022-06-27T09:17:51.000Z</time>
      </trkpt>
      <trkpt lat="43.48673" lon="6.86137">
        <ele>115.80000305176</ele>
        <time>2022-06-27T09:17:53.000Z</time>
      </trkpt>
      <trkpt lat="43.48674" lon="6.86139">
        <ele>115.40000152588</ele>
        <time>2022-06-27T09:17:54.000Z</time>
      </trkpt>
      <trkpt lat="43.48674" lon="6.86139">
        <ele>115.19999694824</ele>
        <time>2022-06-27T09:17:56.000Z</time>
      </trkpt>
      <trkpt lat="43.48674" lon="6.86139">
        <ele>115</ele>
        <time>2022-06-27T09:17:58.000Z</time>
      </trkpt>
      <trkpt lat="43.48674" lon="6.86139">
        <ele>114</ele>
        <time>2022-06-27T09:18:05.000Z</time>
      </trkpt>
      <trkpt lat="43.48674" lon="6.8614">
        <ele>113</ele>
        <time>2022-06-27T09:18:26.000Z</time>
      </trkpt>
      <trkpt lat="43.48674" lon="6.8614">
        <ele>113.59999847412</ele>
        <time>2022-06-27T09:19:36.000Z</time>
      </trkpt>
      <trkpt lat="43.48678" lon="6.86139">
        <ele>113</ele>
        <time>2022-06-27T09:20:11.000Z</time>
      </trkpt>
      <trkpt lat="43.48681" lon="6.8614">
        <ele>113</ele>
        <time>2022-06-27T09:20:13.000Z</time>
      </trkpt>
      <trkpt lat="43.48694" lon="6.86141">
        <ele>112.59999847412</ele>
        <time>2022-06-27T09:20:19.000Z</time>
      </trkpt>
      <trkpt lat="43.48696" lon="6.86141">
        <ele>112.59999847412</ele>
        <time>2022-06-27T09:20:20.000Z</time>
      </trkpt>
      <trkpt lat="43.4871" lon="6.86142">
        <ele>112</ele>
        <time>2022-06-27T09:20:27.000Z</time>
      </trkpt>
      <trkpt lat="43.48711" lon="6.86142">
        <ele>112</ele>
        <time>2022-06-27T09:20:28.000Z</time>
      </trkpt>
      <trkpt lat="43.48712" lon="6.86142">
        <ele>112</ele>
        <time>2022-06-27T09:20:30.000Z</time>
      </trkpt>
      <trkpt lat="43.48716" lon="6.86142">
        <ele>113.19999694824</ele>
        <time>2022-06-27T09:20:59.000Z</time>
      </trkpt>
      <trkpt lat="43.48726" lon="6.86146">
        <ele>113</ele>
        <time>2022-06-27T09:21:04.000Z</time>
      </trkpt>
      <trkpt lat="43.48738" lon="6.8615">
        <ele>113</ele>
        <time>2022-06-27T09:21:10.000Z</time>
      </trkpt>
      <trkpt lat="43.48756" lon="6.86148">
        <ele>112.80000305176</ele>
        <time>2022-06-27T09:21:17.000Z</time>
      </trkpt>
      <trkpt lat="43.48766" lon="6.86148">
        <ele>112.59999847412</ele>
        <time>2022-06-27T09:21:21.000Z</time>
      </trkpt>
      <trkpt lat="43.48767" lon="6.86151">
        <ele>112.59999847412</ele>
        <time>2022-06-27T09:21:22.000Z</time>
      </trkpt>
      <trkpt lat="43.48769" lon="6.86157">
        <ele>112.59999847412</ele>
        <time>2022-06-27T09:21:24.000Z</time>
      </trkpt>
      <trkpt lat="43.48768" lon="6.86163">
        <ele>112.40000152588</ele>
        <time>2022-06-27T09:21:26.000Z</time>
      </trkpt>
      <trkpt lat="43.48767" lon="6.86165">
        <ele>112.59999847412</ele>
        <time>2022-06-27T09:21:27.000Z</time>
      </trkpt>
      <trkpt lat="43.48761" lon="6.86169">
        <ele>112.59999847412</ele>
        <time>2022-06-27T09:21:30.000Z</time>
      </trkpt>
      <trkpt lat="43.48748" lon="6.86181">
        <ele>113.59999847412</ele>
        <time>2022-06-27T09:21:36.000Z</time>
      </trkpt>
      <trkpt lat="43.48738" lon="6.86189">
        <ele>114</ele>
        <time>2022-06-27T09:21:40.000Z</time>
      </trkpt>
      <trkpt lat="43.48726" lon="6.86197">
        <ele>114.59999847412</ele>
        <time>2022-06-27T09:21:45.000Z</time>
      </trkpt>
      <trkpt lat="43.4872" lon="6.862">
        <ele>115</ele>
        <time>2022-06-27T09:21:47.000Z</time>
      </trkpt>
      <trkpt lat="43.48706" lon="6.86205">
        <ele>115.80000305176</ele>
        <time>2022-06-27T09:21:52.000Z</time>
      </trkpt>
      <trkpt lat="43.48701" lon="6.86208">
        <ele>116.19999694824</ele>
        <time>2022-06-27T09:21:54.000Z</time>
      </trkpt>
      <trkpt lat="43.48691" lon="6.86214">
        <ele>116.80000305176</ele>
        <time>2022-06-27T09:21:58.000Z</time>
      </trkpt>
      <trkpt lat="43.48684" lon="6.8622">
        <ele>117.59999847412</ele>
        <time>2022-06-27T09:22:01.000Z</time>
      </trkpt>
      <trkpt lat="43.48681" lon="6.86226">
        <ele>118.19999694824</ele>
        <time>2022-06-27T09:22:03.000Z</time>
      </trkpt>
      <trkpt lat="43.48676" lon="6.86241">
        <ele>119.19999694824</ele>
        <time>2022-06-27T09:22:07.000Z</time>
      </trkpt>
      <trkpt lat="43.48674" lon="6.86263">
        <ele>120.19999694824</ele>
        <time>2022-06-27T09:22:13.000Z</time>
      </trkpt>
      <trkpt lat="43.48674" lon="6.86268">
        <ele>120.19999694824</ele>
        <time>2022-06-27T09:22:14.000Z</time>
      </trkpt>
      <trkpt lat="43.48674" lon="6.86284">
        <ele>121.19999694824</ele>
        <time>2022-06-27T09:22:18.000Z</time>
      </trkpt>
      <trkpt lat="43.48672" lon="6.86309">
        <ele>122</ele>
        <time>2022-06-27T09:22:24.000Z</time>
      </trkpt>
      <trkpt lat="43.48671" lon="6.86322">
        <ele>122.40000152588</ele>
        <time>2022-06-27T09:22:27.000Z</time>
      </trkpt>
      <trkpt lat="43.48671" lon="6.86339">
        <ele>122.80000305176</ele>
        <time>2022-06-27T09:22:31.000Z</time>
      </trkpt>
      <trkpt lat="43.48672" lon="6.86352">
        <ele>123.80000305176</ele>
        <time>2022-06-27T09:22:34.000Z</time>
      </trkpt>
      <trkpt lat="43.48673" lon="6.86378">
        <ele>125</ele>
        <time>2022-06-27T09:22:40.000Z</time>
      </trkpt>
      <trkpt lat="43.48666" lon="6.86399">
        <ele>125.59999847412</ele>
        <time>2022-06-27T09:22:45.000Z</time>
      </trkpt>
      <trkpt lat="43.48661" lon="6.86406">
        <ele>126.19999694824</ele>
        <time>2022-06-27T09:22:47.000Z</time>
      </trkpt>
      <trkpt lat="43.48648" lon="6.86419">
        <ele>127.59999847412</ele>
        <time>2022-06-27T09:22:52.000Z</time>
      </trkpt>
      <trkpt lat="43.48646" lon="6.86421">
        <ele>127.59999847412</ele>
        <time>2022-06-27T09:22:53.000Z</time>
      </trkpt>
      <trkpt lat="43.48634" lon="6.86429">
        <ele>128.80000305176</ele>
        <time>2022-06-27T09:22:57.000Z</time>
      </trkpt>
      <trkpt lat="43.48623" lon="6.86436">
        <ele>129.60000610352</ele>
        <time>2022-06-27T09:23:01.000Z</time>
      </trkpt>
      <trkpt lat="43.48621" lon="6.86439">
        <ele>130</ele>
        <time>2022-06-27T09:23:02.000Z</time>
      </trkpt>
      <trkpt lat="43.48603" lon="6.86452">
        <ele>131.19999694824</ele>
        <time>2022-06-27T09:23:08.000Z</time>
      </trkpt>
      <trkpt lat="43.48584" lon="6.86463">
        <ele>132.39999389648</ele>
        <time>2022-06-27T09:23:14.000Z</time>
      </trkpt>
      <trkpt lat="43.48571" lon="6.86474">
        <ele>133.60000610352</ele>
        <time>2022-06-27T09:23:19.000Z</time>
      </trkpt>
      <trkpt lat="43.48566" lon="6.8648">
        <ele>134</ele>
        <time>2022-06-27T09:23:21.000Z</time>
      </trkpt>
      <trkpt lat="43.48561" lon="6.86487">
        <ele>134.60000610352</ele>
        <time>2022-06-27T09:23:23.000Z</time>
      </trkpt>
      <trkpt lat="43.48551" lon="6.86504">
        <ele>135.80000305176</ele>
        <time>2022-06-27T09:23:28.000Z</time>
      </trkpt>
      <trkpt lat="43.48539" lon="6.86523">
        <ele>136.80000305176</ele>
        <time>2022-06-27T09:23:34.000Z</time>
      </trkpt>
      <trkpt lat="43.48536" lon="6.86526">
        <ele>137</ele>
        <time>2022-06-27T09:23:35.000Z</time>
      </trkpt>
      <trkpt lat="43.48527" lon="6.86537">
        <ele>138</ele>
        <time>2022-06-27T09:23:39.000Z</time>
      </trkpt>
      <trkpt lat="43.48517" lon="6.86547">
        <ele>139</ele>
        <time>2022-06-27T09:23:43.000Z</time>
      </trkpt>
      <trkpt lat="43.48514" lon="6.8655">
        <ele>139</ele>
        <time>2022-06-27T09:23:44.000Z</time>
      </trkpt>
      <trkpt lat="43.4851" lon="6.86552">
        <ele>139</ele>
        <time>2022-06-27T09:23:45.000Z</time>
      </trkpt>
      <trkpt lat="43.48489" lon="6.86563">
        <ele>140</ele>
        <time>2022-06-27T09:23:52.000Z</time>
      </trkpt>
      <trkpt lat="43.48483" lon="6.86565">
        <ele>140.39999389648</ele>
        <time>2022-06-27T09:23:54.000Z</time>
      </trkpt>
      <trkpt lat="43.48469" lon="6.86571">
        <ele>141</ele>
        <time>2022-06-27T09:23:58.000Z</time>
      </trkpt>
      <trkpt lat="43.48458" lon="6.86577">
        <ele>141.80000305176</ele>
        <time>2022-06-27T09:24:02.000Z</time>
      </trkpt>
      <trkpt lat="43.48452" lon="6.8658">
        <ele>142.19999694824</ele>
        <time>2022-06-27T09:24:04.000Z</time>
      </trkpt>
      <trkpt lat="43.48438" lon="6.86589">
        <ele>143.39999389648</ele>
        <time>2022-06-27T09:24:09.000Z</time>
      </trkpt>
      <trkpt lat="43.48436" lon="6.86591">
        <ele>143.60000610352</ele>
        <time>2022-06-27T09:24:10.000Z</time>
      </trkpt>
      <trkpt lat="43.48431" lon="6.86596">
        <ele>144.60000610352</ele>
        <time>2022-06-27T09:24:12.000Z</time>
      </trkpt>
      <trkpt lat="43.48417" lon="6.86604">
        <ele>145.39999389648</ele>
        <time>2022-06-27T09:24:17.000Z</time>
      </trkpt>
      <trkpt lat="43.48414" lon="6.86603">
        <ele>145.60000610352</ele>
        <time>2022-06-27T09:24:18.000Z</time>
      </trkpt>
      <trkpt lat="43.48411" lon="6.86601">
        <ele>145.80000305176</ele>
        <time>2022-06-27T09:24:19.000Z</time>
      </trkpt>
      <trkpt lat="43.48409" lon="6.86598">
        <ele>145.80000305176</ele>
        <time>2022-06-27T09:24:20.000Z</time>
      </trkpt>
      <trkpt lat="43.48407" lon="6.8659">
        <ele>146.19999694824</ele>
        <time>2022-06-27T09:24:22.000Z</time>
      </trkpt>
      <trkpt lat="43.48405" lon="6.86569">
        <ele>146.80000305176</ele>
        <time>2022-06-27T09:24:27.000Z</time>
      </trkpt>
      <trkpt lat="43.48403" lon="6.86551">
        <ele>147.60000610352</ele>
        <time>2022-06-27T09:24:31.000Z</time>
      </trkpt>
      <trkpt lat="43.48402" lon="6.86542">
        <ele>148.19999694824</ele>
        <time>2022-06-27T09:24:33.000Z</time>
      </trkpt>
      <trkpt lat="43.484" lon="6.86525">
        <ele>149.19999694824</ele>
        <time>2022-06-27T09:24:37.000Z</time>
      </trkpt>
      <trkpt lat="43.48395" lon="6.86512">
        <ele>149.80000305176</ele>
        <time>2022-06-27T09:24:40.000Z</time>
      </trkpt>
      <trkpt lat="43.48389" lon="6.86503">
        <ele>150.19999694824</ele>
        <time>2022-06-27T09:24:43.000Z</time>
      </trkpt>
      <trkpt lat="43.48379" lon="6.86493">
        <ele>150.80000305176</ele>
        <time>2022-06-27T09:24:47.000Z</time>
      </trkpt>
      <trkpt lat="43.48375" lon="6.86491">
        <ele>151.19999694824</ele>
        <time>2022-06-27T09:24:48.000Z</time>
      </trkpt>
      <trkpt lat="43.4836" lon="6.86481">
        <ele>152.39999389648</ele>
        <time>2022-06-27T09:24:53.000Z</time>
      </trkpt>
      <trkpt lat="43.48351" lon="6.86475">
        <ele>152.80000305176</ele>
        <time>2022-06-27T09:24:56.000Z</time>
      </trkpt>
      <trkpt lat="43.4834" lon="6.86473">
        <ele>153.60000610352</ele>
        <time>2022-06-27T09:25:00.000Z</time>
      </trkpt>
      <trkpt lat="43.48333" lon="6.86473">
        <ele>153.80000305176</ele>
        <time>2022-06-27T09:25:02.000Z</time>
      </trkpt>
      <trkpt lat="43.48318" lon="6.86478">
        <ele>154.80000305176</ele>
        <time>2022-06-27T09:25:07.000Z</time>
      </trkpt>
      <trkpt lat="43.48312" lon="6.8648">
        <ele>155.19999694824</ele>
        <time>2022-06-27T09:25:09.000Z</time>
      </trkpt>
      <trkpt lat="43.48302" lon="6.86485">
        <ele>155.80000305176</ele>
        <time>2022-06-27T09:25:12.000Z</time>
      </trkpt>
      <trkpt lat="43.48288" lon="6.86493">
        <ele>157.19999694824</ele>
        <time>2022-06-27T09:25:17.000Z</time>
      </trkpt>
      <trkpt lat="43.48282" lon="6.86497">
        <ele>157.60000610352</ele>
        <time>2022-06-27T09:25:19.000Z</time>
      </trkpt>
      <trkpt lat="43.48273" lon="6.86503">
        <ele>158.19999694824</ele>
        <time>2022-06-27T09:25:22.000Z</time>
      </trkpt>
      <trkpt lat="43.48265" lon="6.8651">
        <ele>159.39999389648</ele>
        <time>2022-06-27T09:25:25.000Z</time>
      </trkpt>
      <trkpt lat="43.48259" lon="6.86514">
        <ele>160.60000610352</ele>
        <time>2022-06-27T09:25:27.000Z</time>
      </trkpt>
      <trkpt lat="43.48256" lon="6.86517">
        <ele>160.60000610352</ele>
        <time>2022-06-27T09:25:28.000Z</time>
      </trkpt>
      <trkpt lat="43.4824" lon="6.86531">
        <ele>161.80000305176</ele>
        <time>2022-06-27T09:25:34.000Z</time>
      </trkpt>
      <trkpt lat="43.48234" lon="6.86537">
        <ele>162.19999694824</ele>
        <time>2022-06-27T09:25:36.000Z</time>
      </trkpt>
      <trkpt lat="43.4822" lon="6.86551">
        <ele>162.80000305176</ele>
        <time>2022-06-27T09:25:41.000Z</time>
      </trkpt>
      <trkpt lat="43.48212" lon="6.86559">
        <ele>163.39999389648</ele>
        <time>2022-06-27T09:25:44.000Z</time>
      </trkpt>
      <trkpt lat="43.48204" lon="6.86568">
        <ele>163.80000305176</ele>
        <time>2022-06-27T09:25:47.000Z</time>
      </trkpt>
      <trkpt lat="43.48196" lon="6.86577">
        <ele>164.39999389648</ele>
        <time>2022-06-27T09:25:50.000Z</time>
      </trkpt>
      <trkpt lat="43.48181" lon="6.86595">
        <ele>165</ele>
        <time>2022-06-27T09:25:56.000Z</time>
      </trkpt>
      <trkpt lat="43.48179" lon="6.86598">
        <ele>165</ele>
        <time>2022-06-27T09:25:57.000Z</time>
      </trkpt>
      <trkpt lat="43.48178" lon="6.86601">
        <ele>165.39999389648</ele>
        <time>2022-06-27T09:25:58.000Z</time>
      </trkpt>
      <trkpt lat="43.48174" lon="6.86607">
        <ele>166</ele>
        <time>2022-06-27T09:26:00.000Z</time>
      </trkpt>
      <trkpt lat="43.48169" lon="6.86615">
        <ele>167.39999389648</ele>
        <time>2022-06-27T09:26:03.000Z</time>
      </trkpt>
      <trkpt lat="43.48163" lon="6.86625">
        <ele>168.39999389648</ele>
        <time>2022-06-27T09:26:06.000Z</time>
      </trkpt>
      <trkpt lat="43.48153" lon="6.86643">
        <ele>169.39999389648</ele>
        <time>2022-06-27T09:26:12.000Z</time>
      </trkpt>
      <trkpt lat="43.48145" lon="6.86655">
        <ele>170.80000305176</ele>
        <time>2022-06-27T09:26:16.000Z</time>
      </trkpt>
      <trkpt lat="43.48138" lon="6.8667">
        <ele>171.80000305176</ele>
        <time>2022-06-27T09:26:21.000Z</time>
      </trkpt>
      <trkpt lat="43.48139" lon="6.86673">
        <ele>172.19999694824</ele>
        <time>2022-06-27T09:26:22.000Z</time>
      </trkpt>
      <trkpt lat="43.48143" lon="6.86675">
        <ele>172.80000305176</ele>
        <time>2022-06-27T09:26:24.000Z</time>
      </trkpt>
      <trkpt lat="43.48145" lon="6.86673">
        <ele>173.19999694824</ele>
        <time>2022-06-27T09:26:25.000Z</time>
      </trkpt>
      <trkpt lat="43.48153" lon="6.86663">
        <ele>174</ele>
        <time>2022-06-27T09:26:29.000Z</time>
      </trkpt>
      <trkpt lat="43.48164" lon="6.86651">
        <ele>175</ele>
        <time>2022-06-27T09:26:34.000Z</time>
      </trkpt>
      <trkpt lat="43.48166" lon="6.86648">
        <ele>175.39999389648</ele>
        <time>2022-06-27T09:26:35.000Z</time>
      </trkpt>
      <trkpt lat="43.48175" lon="6.8664">
        <ele>176.39999389648</ele>
        <time>2022-06-27T09:26:39.000Z</time>
      </trkpt>
      <trkpt lat="43.48183" lon="6.86635">
        <ele>177.19999694824</ele>
        <time>2022-06-27T09:26:42.000Z</time>
      </trkpt>
      <trkpt lat="43.48186" lon="6.86634">
        <ele>177.39999389648</ele>
        <time>2022-06-27T09:26:43.000Z</time>
      </trkpt>
      <trkpt lat="43.48193" lon="6.86628">
        <ele>178.80000305176</ele>
        <time>2022-06-27T09:26:46.000Z</time>
      </trkpt>
      <trkpt lat="43.48201" lon="6.86624">
        <ele>179.80000305176</ele>
        <time>2022-06-27T09:26:49.000Z</time>
      </trkpt>
      <trkpt lat="43.48204" lon="6.86622">
        <ele>180.19999694824</ele>
        <time>2022-06-27T09:26:50.000Z</time>
      </trkpt>
      <trkpt lat="43.48209" lon="6.86619">
        <ele>181</ele>
        <time>2022-06-27T09:26:52.000Z</time>
      </trkpt>
      <trkpt lat="43.48224" lon="6.86613">
        <ele>182.39999389648</ele>
        <time>2022-06-27T09:26:57.000Z</time>
      </trkpt>
      <trkpt lat="43.48227" lon="6.86612">
        <ele>182.60000610352</ele>
        <time>2022-06-27T09:26:58.000Z</time>
      </trkpt>
      <trkpt lat="43.48235" lon="6.86609">
        <ele>183.39999389648</ele>
        <time>2022-06-27T09:27:01.000Z</time>
      </trkpt>
      <trkpt lat="43.48251" lon="6.86602">
        <ele>184.60000610352</ele>
        <time>2022-06-27T09:27:06.000Z</time>
      </trkpt>
      <trkpt lat="43.48257" lon="6.866">
        <ele>185</ele>
        <time>2022-06-27T09:27:08.000Z</time>
      </trkpt>
      <trkpt lat="43.48271" lon="6.86595">
        <ele>185.80000305176</ele>
        <time>2022-06-27T09:27:13.000Z</time>
      </trkpt>
      <trkpt lat="43.48284" lon="6.86591">
        <ele>186.60000610352</ele>
        <time>2022-06-27T09:27:17.000Z</time>
      </trkpt>
      <trkpt lat="43.48287" lon="6.8659">
        <ele>186.80000305176</ele>
        <time>2022-06-27T09:27:18.000Z</time>
      </trkpt>
      <trkpt lat="43.4829" lon="6.8659">
        <ele>187</ele>
        <time>2022-06-27T09:27:19.000Z</time>
      </trkpt>
      <trkpt lat="43.48299" lon="6.86593">
        <ele>187.80000305176</ele>
        <time>2022-06-27T09:27:22.000Z</time>
      </trkpt>
      <trkpt lat="43.48301" lon="6.86594">
        <ele>188</ele>
        <time>2022-06-27T09:27:23.000Z</time>
      </trkpt>
      <trkpt lat="43.48315" lon="6.86615">
        <ele>188.60000610352</ele>
        <time>2022-06-27T09:27:29.000Z</time>
      </trkpt>
      <trkpt lat="43.4832" lon="6.86627">
        <ele>189</ele>
        <time>2022-06-27T09:27:32.000Z</time>
      </trkpt>
      <trkpt lat="43.48322" lon="6.86644">
        <ele>189.39999389648</ele>
        <time>2022-06-27T09:27:35.000Z</time>
      </trkpt>
      <trkpt lat="43.48326" lon="6.86685">
        <ele>189.80000305176</ele>
        <time>2022-06-27T09:27:43.000Z</time>
      </trkpt>
      <trkpt lat="43.48327" lon="6.86695">
        <ele>190</ele>
        <time>2022-06-27T09:27:45.000Z</time>
      </trkpt>
      <trkpt lat="43.48329" lon="6.86714">
        <ele>190.60000610352</ele>
        <time>2022-06-27T09:27:49.000Z</time>
      </trkpt>
      <trkpt lat="43.48331" lon="6.86737">
        <ele>191</ele>
        <time>2022-06-27T09:27:54.000Z</time>
      </trkpt>
      <trkpt lat="43.48334" lon="6.86763">
        <ele>191.19999694824</ele>
        <time>2022-06-27T09:27:59.000Z</time>
      </trkpt>
      <trkpt lat="43.4834" lon="6.86804">
        <ele>192</ele>
        <time>2022-06-27T09:28:07.000Z</time>
      </trkpt>
      <trkpt lat="43.4835" lon="6.86842">
        <ele>193.19999694824</ele>
        <time>2022-06-27T09:28:15.000Z</time>
      </trkpt>
      <trkpt lat="43.48368" lon="6.86881">
        <ele>194.19999694824</ele>
        <time>2022-06-27T09:28:23.000Z</time>
      </trkpt>
      <trkpt lat="43.48381" lon="6.86901">
        <ele>194.80000305176</ele>
        <time>2022-06-27T09:28:29.000Z</time>
      </trkpt>
      <trkpt lat="43.48393" lon="6.86905">
        <ele>195</ele>
        <time>2022-06-27T09:28:33.000Z</time>
      </trkpt>
      <trkpt lat="43.48397" lon="6.86903">
        <ele>195.19999694824</ele>
        <time>2022-06-27T09:28:34.000Z</time>
      </trkpt>
      <trkpt lat="43.48403" lon="6.86896">
        <ele>195.60000610352</ele>
        <time>2022-06-27T09:28:37.000Z</time>
      </trkpt>
      <trkpt lat="43.48405" lon="6.86891">
        <ele>195.60000610352</ele>
        <time>2022-06-27T09:28:41.000Z</time>
      </trkpt>
      <trkpt lat="43.48405" lon="6.86891">
        <ele>194.80000305176</ele>
        <time>2022-06-27T09:28:55.000Z</time>
      </trkpt>
      <trkpt lat="43.48405" lon="6.86891">
        <ele>194.19999694824</ele>
        <time>2022-06-27T09:29:12.000Z</time>
      </trkpt>
      <trkpt lat="43.48405" lon="6.86891">
        <ele>194.19999694824</ele>
        <time>2022-06-27T09:30:23.000Z</time>
      </trkpt>
      <trkpt lat="43.48405" lon="6.86892">
        <ele>195</ele>
        <time>2022-06-27T09:31:01.000Z</time>
      </trkpt>
      <trkpt lat="43.48402" lon="6.86899">
        <ele>195.39999389648</ele>
        <time>2022-06-27T09:31:08.000Z</time>
      </trkpt>
      <trkpt lat="43.48402" lon="6.86902">
        <ele>195.39999389648</ele>
        <time>2022-06-27T09:31:09.000Z</time>
      </trkpt>
      <trkpt lat="43.484" lon="6.86906">
        <ele>195.60000610352</ele>
        <time>2022-06-27T09:31:11.000Z</time>
      </trkpt>
      <trkpt lat="43.48396" lon="6.8691">
        <ele>195.60000610352</ele>
        <time>2022-06-27T09:31:13.000Z</time>
      </trkpt>
      <trkpt lat="43.48384" lon="6.86922">
        <ele>195.80000305176</ele>
        <time>2022-06-27T09:31:20.000Z</time>
      </trkpt>
      <trkpt lat="43.48367" lon="6.86942">
        <ele>196.19999694824</ele>
        <time>2022-06-27T09:31:28.000Z</time>
      </trkpt>
      <trkpt lat="43.4836" lon="6.8695">
        <ele>196.19999694824</ele>
        <time>2022-06-27T09:31:31.000Z</time>
      </trkpt>
      <trkpt lat="43.4835" lon="6.8696">
        <ele>195.80000305176</ele>
        <time>2022-06-27T09:31:35.000Z</time>
      </trkpt>
      <trkpt lat="43.48327" lon="6.86974">
        <ele>196</ele>
        <time>2022-06-27T09:31:42.000Z</time>
      </trkpt>
      <trkpt lat="43.48307" lon="6.86989">
        <ele>196.60000610352</ele>
        <time>2022-06-27T09:31:48.000Z</time>
      </trkpt>
      <trkpt lat="43.48303" lon="6.86997">
        <ele>196.39999389648</ele>
        <time>2022-06-27T09:31:50.000Z</time>
      </trkpt>
      <trkpt lat="43.48301" lon="6.87008">
        <ele>196.39999389648</ele>
        <time>2022-06-27T09:31:52.000Z</time>
      </trkpt>
      <trkpt lat="43.48303" lon="6.87041">
        <ele>196.60000610352</ele>
        <time>2022-06-27T09:31:57.000Z</time>
      </trkpt>
      <trkpt lat="43.48302" lon="6.87047">
        <ele>196.60000610352</ele>
        <time>2022-06-27T09:31:58.000Z</time>
      </trkpt>
      <trkpt lat="43.48301" lon="6.87053">
        <ele>196.39999389648</ele>
        <time>2022-06-27T09:31:59.000Z</time>
      </trkpt>
      <trkpt lat="43.48295" lon="6.87077">
        <ele>196.39999389648</ele>
        <time>2022-06-27T09:32:03.000Z</time>
      </trkpt>
      <trkpt lat="43.48292" lon="6.87082">
        <ele>196.39999389648</ele>
        <time>2022-06-27T09:32:04.000Z</time>
      </trkpt>
      <trkpt lat="43.48279" lon="6.87119">
        <ele>196.39999389648</ele>
        <time>2022-06-27T09:32:10.000Z</time>
      </trkpt>
      <trkpt lat="43.48269" lon="6.8714">
        <ele>196.19999694824</ele>
        <time>2022-06-27T09:32:14.000Z</time>
      </trkpt>
      <trkpt lat="43.48264" lon="6.87149">
        <ele>196</ele>
        <time>2022-06-27T09:32:16.000Z</time>
      </trkpt>
      <trkpt lat="43.48259" lon="6.87158">
        <ele>196</ele>
        <time>2022-06-27T09:32:18.000Z</time>
      </trkpt>
      <trkpt lat="43.48247" lon="6.87176">
        <ele>195.80000305176</ele>
        <time>2022-06-27T09:32:22.000Z</time>
      </trkpt>
      <trkpt lat="43.48228" lon="6.8721">
        <ele>196.19999694824</ele>
        <time>2022-06-27T09:32:29.000Z</time>
      </trkpt>
      <trkpt lat="43.48214" lon="6.87243">
        <ele>196.39999389648</ele>
        <time>2022-06-27T09:32:35.000Z</time>
      </trkpt>
      <trkpt lat="43.48208" lon="6.87253">
        <ele>196.39999389648</ele>
        <time>2022-06-27T09:32:37.000Z</time>
      </trkpt>
      <trkpt lat="43.48206" lon="6.87258">
        <ele>196.39999389648</ele>
        <time>2022-06-27T09:32:38.000Z</time>
      </trkpt>
      <trkpt lat="43.48191" lon="6.87286">
        <ele>196.60000610352</ele>
        <time>2022-06-27T09:32:44.000Z</time>
      </trkpt>
      <trkpt lat="43.48169" lon="6.87319">
        <ele>196.60000610352</ele>
        <time>2022-06-27T09:32:52.000Z</time>
      </trkpt>
      <trkpt lat="43.48166" lon="6.87322">
        <ele>196.60000610352</ele>
        <time>2022-06-27T09:32:53.000Z</time>
      </trkpt>
      <trkpt lat="43.48157" lon="6.87332">
        <ele>196.60000610352</ele>
        <time>2022-06-27T09:32:56.000Z</time>
      </trkpt>
      <trkpt lat="43.48148" lon="6.87343">
        <ele>196.60000610352</ele>
        <time>2022-06-27T09:32:59.000Z</time>
      </trkpt>
      <trkpt lat="43.48125" lon="6.87363">
        <ele>196.60000610352</ele>
        <time>2022-06-27T09:33:05.000Z</time>
      </trkpt>
      <trkpt lat="43.48121" lon="6.87365">
        <ele>196.60000610352</ele>
        <time>2022-06-27T09:33:06.000Z</time>
      </trkpt>
      <trkpt lat="43.48112" lon="6.87369">
        <ele>196.60000610352</ele>
        <time>2022-06-27T09:33:08.000Z</time>
      </trkpt>
      <trkpt lat="43.48094" lon="6.87371">
        <ele>196.60000610352</ele>
        <time>2022-06-27T09:33:12.000Z</time>
      </trkpt>
      <trkpt lat="43.48067" lon="6.87369">
        <ele>197</ele>
        <time>2022-06-27T09:33:18.000Z</time>
      </trkpt>
      <trkpt lat="43.48053" lon="6.87367">
        <ele>197.19999694824</ele>
        <time>2022-06-27T09:33:21.000Z</time>
      </trkpt>
      <trkpt lat="43.48035" lon="6.87365">
        <ele>197.39999389648</ele>
        <time>2022-06-27T09:33:25.000Z</time>
      </trkpt>
      <trkpt lat="43.4801" lon="6.87363">
        <ele>197.60000610352</ele>
        <time>2022-06-27T09:33:31.000Z</time>
      </trkpt>
      <trkpt lat="43.48006" lon="6.87362">
        <ele>197.60000610352</ele>
        <time>2022-06-27T09:33:32.000Z</time>
      </trkpt>
      <trkpt lat="43.47984" lon="6.87361">
        <ele>197.80000305176</ele>
        <time>2022-06-27T09:33:37.000Z</time>
      </trkpt>
      <trkpt lat="43.47953" lon="6.87357">
        <ele>197.80000305176</ele>
        <time>2022-06-27T09:33:44.000Z</time>
      </trkpt>
      <trkpt lat="43.47948" lon="6.87355">
        <ele>197.80000305176</ele>
        <time>2022-06-27T09:33:45.000Z</time>
      </trkpt>
      <trkpt lat="43.47927" lon="6.87342">
        <ele>197.60000610352</ele>
        <time>2022-06-27T09:33:50.000Z</time>
      </trkpt>
      <trkpt lat="43.479" lon="6.8731">
        <ele>197.80000305176</ele>
        <time>2022-06-27T09:33:58.000Z</time>
      </trkpt>
      <trkpt lat="43.47882" lon="6.87276">
        <ele>198.19999694824</ele>
        <time>2022-06-27T09:34:05.000Z</time>
      </trkpt>
      <trkpt lat="43.4788" lon="6.8727">
        <ele>198.19999694824</ele>
        <time>2022-06-27T09:34:06.000Z</time>
      </trkpt>
      <trkpt lat="43.47872" lon="6.87235">
        <ele>198.19999694824</ele>
        <time>2022-06-27T09:34:12.000Z</time>
      </trkpt>
      <trkpt lat="43.47869" lon="6.87186">
        <ele>198.60000610352</ele>
        <time>2022-06-27T09:34:20.000Z</time>
      </trkpt>
      <trkpt lat="43.47869" lon="6.87179">
        <ele>198.60000610352</ele>
        <time>2022-06-27T09:34:21.000Z</time>
      </trkpt>
      <trkpt lat="43.47871" lon="6.87142">
        <ele>199</ele>
        <time>2022-06-27T09:34:27.000Z</time>
      </trkpt>
      <trkpt lat="43.47877" lon="6.87072">
        <ele>199</ele>
        <time>2022-06-27T09:34:38.000Z</time>
      </trkpt>
      <trkpt lat="43.47878" lon="6.87029">
        <ele>199</ele>
        <time>2022-06-27T09:34:45.000Z</time>
      </trkpt>
      <trkpt lat="43.47877" lon="6.87023">
        <ele>199</ele>
        <time>2022-06-27T09:34:46.000Z</time>
      </trkpt>
      <trkpt lat="43.47866" lon="6.86981">
        <ele>199</ele>
        <time>2022-06-27T09:34:53.000Z</time>
      </trkpt>
      <trkpt lat="43.47858" lon="6.86957">
        <ele>199.19999694824</ele>
        <time>2022-06-27T09:34:57.000Z</time>
      </trkpt>
      <trkpt lat="43.47854" lon="6.86945">
        <ele>199.39999389648</ele>
        <time>2022-06-27T09:34:59.000Z</time>
      </trkpt>
      <trkpt lat="43.47847" lon="6.86936">
        <ele>199.39999389648</ele>
        <time>2022-06-27T09:35:01.000Z</time>
      </trkpt>
      <trkpt lat="43.47839" lon="6.86929">
        <ele>199.39999389648</ele>
        <time>2022-06-27T09:35:03.000Z</time>
      </trkpt>
      <trkpt lat="43.47835" lon="6.86926">
        <ele>199.39999389648</ele>
        <time>2022-06-27T09:35:04.000Z</time>
      </trkpt>
      <trkpt lat="43.47814" lon="6.86917">
        <ele>199.80000305176</ele>
        <time>2022-06-27T09:35:09.000Z</time>
      </trkpt>
      <trkpt lat="43.4781" lon="6.86915">
        <ele>199.80000305176</ele>
        <time>2022-06-27T09:35:10.000Z</time>
      </trkpt>
      <trkpt lat="43.47807" lon="6.86912">
        <ele>199.80000305176</ele>
        <time>2022-06-27T09:35:11.000Z</time>
      </trkpt>
      <trkpt lat="43.47796" lon="6.86901">
        <ele>200</ele>
        <time>2022-06-27T09:35:14.000Z</time>
      </trkpt>
      <trkpt lat="43.47788" lon="6.86897">
        <ele>200</ele>
        <time>2022-06-27T09:35:16.000Z</time>
      </trkpt>
      <trkpt lat="43.4778" lon="6.86895">
        <ele>199.80000305176</ele>
        <time>2022-06-27T09:35:18.000Z</time>
      </trkpt>
      <trkpt lat="43.47767" lon="6.86895">
        <ele>199.60000610352</ele>
        <time>2022-06-27T09:35:21.000Z</time>
      </trkpt>
      <trkpt lat="43.47745" lon="6.86901">
        <ele>198.80000305176</ele>
        <time>2022-06-27T09:35:26.000Z</time>
      </trkpt>
      <trkpt lat="43.47737" lon="6.86905">
        <ele>198</ele>
        <time>2022-06-27T09:35:28.000Z</time>
      </trkpt>
      <trkpt lat="43.47733" lon="6.86908">
        <ele>197.80000305176</ele>
        <time>2022-06-27T09:35:29.000Z</time>
      </trkpt>
      <trkpt lat="43.47729" lon="6.86912">
        <ele>197.39999389648</ele>
        <time>2022-06-27T09:35:30.000Z</time>
      </trkpt>
      <trkpt lat="43.47722" lon="6.86922">
        <ele>197.19999694824</ele>
        <time>2022-06-27T09:35:32.000Z</time>
      </trkpt>
      <trkpt lat="43.47718" lon="6.86932">
        <ele>196.60000610352</ele>
        <time>2022-06-27T09:35:34.000Z</time>
      </trkpt>
      <trkpt lat="43.47706" lon="6.86962">
        <ele>195.60000610352</ele>
        <time>2022-06-27T09:35:39.000Z</time>
      </trkpt>
      <trkpt lat="43.47699" lon="6.86974">
        <ele>195.60000610352</ele>
        <time>2022-06-27T09:35:41.000Z</time>
      </trkpt>
      <trkpt lat="43.47684" lon="6.86994">
        <ele>194.19999694824</ele>
        <time>2022-06-27T09:35:45.000Z</time>
      </trkpt>
      <trkpt lat="43.47669" lon="6.87015">
        <ele>193.60000610352</ele>
        <time>2022-06-27T09:35:49.000Z</time>
      </trkpt>
      <trkpt lat="43.47663" lon="6.87026">
        <ele>193.19999694824</ele>
        <time>2022-06-27T09:35:51.000Z</time>
      </trkpt>
      <trkpt lat="43.4766" lon="6.87031">
        <ele>193</ele>
        <time>2022-06-27T09:35:52.000Z</time>
      </trkpt>
      <trkpt lat="43.47647" lon="6.87059">
        <ele>192.80000305176</ele>
        <time>2022-06-27T09:35:56.000Z</time>
      </trkpt>
      <trkpt lat="43.47635" lon="6.87103">
        <ele>191.80000305176</ele>
        <time>2022-06-27T09:36:02.000Z</time>
      </trkpt>
      <trkpt lat="43.47631" lon="6.87122">
        <ele>191.19999694824</ele>
        <time>2022-06-27T09:36:05.000Z</time>
      </trkpt>
      <trkpt lat="43.47627" lon="6.87136">
        <ele>190.39999389648</ele>
        <time>2022-06-27T09:36:07.000Z</time>
      </trkpt>
      <trkpt lat="43.47621" lon="6.87145">
        <ele>189.60000610352</ele>
        <time>2022-06-27T09:36:09.000Z</time>
      </trkpt>
      <trkpt lat="43.47613" lon="6.87153">
        <ele>189.19999694824</ele>
        <time>2022-06-27T09:36:11.000Z</time>
      </trkpt>
      <trkpt lat="43.47598" lon="6.8716">
        <ele>188.39999389648</ele>
        <time>2022-06-27T09:36:14.000Z</time>
      </trkpt>
      <trkpt lat="43.4759" lon="6.87163">
        <ele>188.19999694824</ele>
        <time>2022-06-27T09:36:16.000Z</time>
      </trkpt>
      <trkpt lat="43.47578" lon="6.87164">
        <ele>187.80000305176</ele>
        <time>2022-06-27T09:36:19.000Z</time>
      </trkpt>
      <trkpt lat="43.47574" lon="6.87164">
        <ele>187.60000610352</ele>
        <time>2022-06-27T09:36:20.000Z</time>
      </trkpt>
      <trkpt lat="43.47566" lon="6.87162">
        <ele>187</ele>
        <time>2022-06-27T09:36:22.000Z</time>
      </trkpt>
      <trkpt lat="43.47559" lon="6.87161">
        <ele>186.39999389648</ele>
        <time>2022-06-27T09:36:25.000Z</time>
      </trkpt>
      <trkpt lat="43.47558" lon="6.87161">
        <ele>186</ele>
        <time>2022-06-27T09:36:28.000Z</time>
      </trkpt>
      <trkpt lat="43.47558" lon="6.87161">
        <ele>186</ele>
        <time>2022-06-27T09:36:29.000Z</time>
      </trkpt>
      <trkpt lat="43.47558" lon="6.87161">
        <ele>185</ele>
        <time>2022-06-27T09:36:45.000Z</time>
      </trkpt>
      <trkpt lat="43.47558" lon="6.87161">
        <ele>185</ele>
        <time>2022-06-27T09:36:46.000Z</time>
      </trkpt>
      <trkpt lat="43.47552" lon="6.87158">
        <ele>185</ele>
        <time>2022-06-27T09:37:09.000Z</time>
      </trkpt>
      <trkpt lat="43.47536" lon="6.87145">
        <ele>185</ele>
        <time>2022-06-27T09:37:15.000Z</time>
      </trkpt>
      <trkpt lat="43.47523" lon="6.87125">
        <ele>185</ele>
        <time>2022-06-27T09:37:20.000Z</time>
      </trkpt>
      <trkpt lat="43.47513" lon="6.87097">
        <ele>184.80000305176</ele>
        <time>2022-06-27T09:37:25.000Z</time>
      </trkpt>
      <trkpt lat="43.4751" lon="6.87091">
        <ele>184.80000305176</ele>
        <time>2022-06-27T09:37:26.000Z</time>
      </trkpt>
      <trkpt lat="43.47496" lon="6.87054">
        <ele>184.39999389648</ele>
        <time>2022-06-27T09:37:32.000Z</time>
      </trkpt>
      <trkpt lat="43.47488" lon="6.87028">
        <ele>184</ele>
        <time>2022-06-27T09:37:36.000Z</time>
      </trkpt>
      <trkpt lat="43.47485" lon="6.8702">
        <ele>183.80000305176</ele>
        <time>2022-06-27T09:37:37.000Z</time>
      </trkpt>
      <trkpt lat="43.47479" lon="6.87008">
        <ele>183.19999694824</ele>
        <time>2022-06-27T09:37:39.000Z</time>
      </trkpt>
      <trkpt lat="43.47475" lon="6.87001">
        <ele>183</ele>
        <time>2022-06-27T09:37:40.000Z</time>
      </trkpt>
      <trkpt lat="43.47471" lon="6.86993">
        <ele>182.80000305176</ele>
        <time>2022-06-27T09:37:41.000Z</time>
      </trkpt>
      <trkpt lat="43.47455" lon="6.86969">
        <ele>181.60000610352</ele>
        <time>2022-06-27T09:37:45.000Z</time>
      </trkpt>
      <trkpt lat="43.47434" lon="6.86947">
        <ele>180.39999389648</ele>
        <time>2022-06-27T09:37:49.000Z</time>
      </trkpt>
      <trkpt lat="43.47422" lon="6.86937">
        <ele>180.19999694824</ele>
        <time>2022-06-27T09:37:51.000Z</time>
      </trkpt>
      <trkpt lat="43.47407" lon="6.86926">
        <ele>179.39999389648</ele>
        <time>2022-06-27T09:37:54.000Z</time>
      </trkpt>
      <trkpt lat="43.47388" lon="6.86915">
        <ele>178.60000610352</ele>
        <time>2022-06-27T09:37:57.000Z</time>
      </trkpt>
      <trkpt lat="43.47379" lon="6.86909">
        <ele>178.39999389648</ele>
        <time>2022-06-27T09:37:59.000Z</time>
      </trkpt>
      <trkpt lat="43.47363" lon="6.86895">
        <ele>178</ele>
        <time>2022-06-27T09:38:02.000Z</time>
      </trkpt>
      <trkpt lat="43.47359" lon="6.86889">
        <ele>177.60000610352</ele>
        <time>2022-06-27T09:38:03.000Z</time>
      </trkpt>
      <trkpt lat="43.47352" lon="6.86879">
        <ele>177.19999694824</ele>
        <time>2022-06-27T09:38:05.000Z</time>
      </trkpt>
      <trkpt lat="43.47348" lon="6.86874">
        <ele>177</ele>
        <time>2022-06-27T09:38:06.000Z</time>
      </trkpt>
      <trkpt lat="43.47337" lon="6.86856">
        <ele>176.60000610352</ele>
        <time>2022-06-27T09:38:09.000Z</time>
      </trkpt>
      <trkpt lat="43.47332" lon="6.8685">
        <ele>176.39999389648</ele>
        <time>2022-06-27T09:38:10.000Z</time>
      </trkpt>
      <trkpt lat="43.47311" lon="6.86828">
        <ele>176.19999694824</ele>
        <time>2022-06-27T09:38:14.000Z</time>
      </trkpt>
      <trkpt lat="43.47296" lon="6.8681">
        <ele>175</ele>
        <time>2022-06-27T09:38:17.000Z</time>
      </trkpt>
      <trkpt lat="43.47288" lon="6.86797">
        <ele>174.19999694824</ele>
        <time>2022-06-27T09:38:19.000Z</time>
      </trkpt>
      <trkpt lat="43.47284" lon="6.86791">
        <ele>173.60000610352</ele>
        <time>2022-06-27T09:38:20.000Z</time>
      </trkpt>
      <trkpt lat="43.47268" lon="6.8676">
        <ele>172.39999389648</ele>
        <time>2022-06-27T09:38:25.000Z</time>
      </trkpt>
      <trkpt lat="43.47265" lon="6.86755">
        <ele>172.19999694824</ele>
        <time>2022-06-27T09:38:26.000Z</time>
      </trkpt>
      <trkpt lat="43.47258" lon="6.86747">
        <ele>171.39999389648</ele>
        <time>2022-06-27T09:38:28.000Z</time>
      </trkpt>
      <trkpt lat="43.47254" lon="6.86748">
        <ele>171.19999694824</ele>
        <time>2022-06-27T09:38:29.000Z</time>
      </trkpt>
      <trkpt lat="43.47247" lon="6.86757">
        <ele>170</ele>
        <time>2022-06-27T09:38:32.000Z</time>
      </trkpt>
      <trkpt lat="43.47245" lon="6.86786">
        <ele>169.19999694824</ele>
        <time>2022-06-27T09:38:38.000Z</time>
      </trkpt>
      <trkpt lat="43.47241" lon="6.86803">
        <ele>168.80000305176</ele>
        <time>2022-06-27T09:38:42.000Z</time>
      </trkpt>
      <trkpt lat="43.47236" lon="6.86811">
        <ele>168.60000610352</ele>
        <time>2022-06-27T09:38:44.000Z</time>
      </trkpt>
      <trkpt lat="43.4723" lon="6.86823">
        <ele>168</ele>
        <time>2022-06-27T09:38:49.000Z</time>
      </trkpt>
      <trkpt lat="43.4723" lon="6.86823">
        <ele>167.80000305176</ele>
        <time>2022-06-27T09:38:52.000Z</time>
      </trkpt>
      <trkpt lat="43.4723" lon="6.86823">
        <ele>166.80000305176</ele>
        <time>2022-06-27T09:39:15.000Z</time>
      </trkpt>
      <trkpt lat="43.4723" lon="6.86823">
        <ele>166.80000305176</ele>
        <time>2022-06-27T09:39:19.000Z</time>
      </trkpt>
      <trkpt lat="43.47227" lon="6.86833">
        <ele>166.39999389648</ele>
        <time>2022-06-27T09:40:16.000Z</time>
      </trkpt>
      <trkpt lat="43.47217" lon="6.86858">
        <ele>166.39999389648</ele>
        <time>2022-06-27T09:40:22.000Z</time>
      </trkpt>
      <trkpt lat="43.47204" lon="6.86895">
        <ele>166.80000305176</ele>
        <time>2022-06-27T09:40:30.000Z</time>
      </trkpt>
      <trkpt lat="43.47198" lon="6.86908">
        <ele>167</ele>
        <time>2022-06-27T09:40:33.000Z</time>
      </trkpt>
      <trkpt lat="43.47192" lon="6.86915">
        <ele>167.19999694824</ele>
        <time>2022-06-27T09:40:35.000Z</time>
      </trkpt>
      <trkpt lat="43.47188" lon="6.86919">
        <ele>167.39999389648</ele>
        <time>2022-06-27T09:40:36.000Z</time>
      </trkpt>
      <trkpt lat="43.47185" lon="6.86922">
        <ele>167.39999389648</ele>
        <time>2022-06-27T09:40:37.000Z</time>
      </trkpt>
      <trkpt lat="43.47177" lon="6.86926">
        <ele>167.39999389648</ele>
        <time>2022-06-27T09:40:39.000Z</time>
      </trkpt>
      <trkpt lat="43.47165" lon="6.86931">
        <ele>167.39999389648</ele>
        <time>2022-06-27T09:40:42.000Z</time>
      </trkpt>
      <trkpt lat="43.47153" lon="6.86937">
        <ele>167.39999389648</ele>
        <time>2022-06-27T09:40:45.000Z</time>
      </trkpt>
      <trkpt lat="43.47146" lon="6.86944">
        <ele>167.39999389648</ele>
        <time>2022-06-27T09:40:47.000Z</time>
      </trkpt>
      <trkpt lat="43.47143" lon="6.86948">
        <ele>167.39999389648</ele>
        <time>2022-06-27T09:40:48.000Z</time>
      </trkpt>
      <trkpt lat="43.4714" lon="6.86953">
        <ele>167.39999389648</ele>
        <time>2022-06-27T09:40:49.000Z</time>
      </trkpt>
      <trkpt lat="43.47138" lon="6.86958">
        <ele>167.60000610352</ele>
        <time>2022-06-27T09:40:50.000Z</time>
      </trkpt>
      <trkpt lat="43.47133" lon="6.86974">
        <ele>168.39999389648</ele>
        <time>2022-06-27T09:40:53.000Z</time>
      </trkpt>
      <trkpt lat="43.47125" lon="6.87024">
        <ele>168.39999389648</ele>
        <time>2022-06-27T09:41:01.000Z</time>
      </trkpt>
      <trkpt lat="43.4712" lon="6.87069">
        <ele>168</ele>
        <time>2022-06-27T09:41:08.000Z</time>
      </trkpt>
      <trkpt lat="43.47121" lon="6.87075">
        <ele>168</ele>
        <time>2022-06-27T09:41:09.000Z</time>
      </trkpt>
      <trkpt lat="43.47121" lon="6.87081">
        <ele>168</ele>
        <time>2022-06-27T09:41:10.000Z</time>
      </trkpt>
      <trkpt lat="43.47126" lon="6.8711">
        <ele>167.60000610352</ele>
        <time>2022-06-27T09:41:15.000Z</time>
      </trkpt>
      <trkpt lat="43.47131" lon="6.87133">
        <ele>167.39999389648</ele>
        <time>2022-06-27T09:41:19.000Z</time>
      </trkpt>
      <trkpt lat="43.4713" lon="6.87144">
        <ele>167.19999694824</ele>
        <time>2022-06-27T09:41:21.000Z</time>
      </trkpt>
      <trkpt lat="43.47124" lon="6.87153">
        <ele>167</ele>
        <time>2022-06-27T09:41:23.000Z</time>
      </trkpt>
      <trkpt lat="43.47121" lon="6.87155">
        <ele>166.80000305176</ele>
        <time>2022-06-27T09:41:24.000Z</time>
      </trkpt>
      <trkpt lat="43.47116" lon="6.87157">
        <ele>166.80000305176</ele>
        <time>2022-06-27T09:41:25.000Z</time>
      </trkpt>
      <trkpt lat="43.47102" lon="6.8716">
        <ele>166.60000610352</ele>
        <time>2022-06-27T09:41:28.000Z</time>
      </trkpt>
      <trkpt lat="43.47094" lon="6.87162">
        <ele>166.39999389648</ele>
        <time>2022-06-27T09:41:30.000Z</time>
      </trkpt>
      <trkpt lat="43.47056" lon="6.87163">
        <ele>165.39999389648</ele>
        <time>2022-06-27T09:41:37.000Z</time>
      </trkpt>
      <trkpt lat="43.47023" lon="6.87167">
        <ele>164.60000610352</ele>
        <time>2022-06-27T09:41:44.000Z</time>
      </trkpt>
      <trkpt lat="43.4702" lon="6.87167">
        <ele>164.19999694824</ele>
        <time>2022-06-27T09:41:45.000Z</time>
      </trkpt>
      <trkpt lat="43.47013" lon="6.87166">
        <ele>163</ele>
        <time>2022-06-27T09:41:48.000Z</time>
      </trkpt>
      <trkpt lat="43.47011" lon="6.87169">
        <ele>161.80000305176</ele>
        <time>2022-06-27T09:41:50.000Z</time>
      </trkpt>
      <trkpt lat="43.47011" lon="6.87171">
        <ele>161.60000610352</ele>
        <time>2022-06-27T09:41:51.000Z</time>
      </trkpt>
      <trkpt lat="43.4701" lon="6.87173">
        <ele>161.39999389648</ele>
        <time>2022-06-27T09:41:52.000Z</time>
      </trkpt>
      <trkpt lat="43.4701" lon="6.87174">
        <ele>161</ele>
        <time>2022-06-27T09:41:55.000Z</time>
      </trkpt>
      <trkpt lat="43.4701" lon="6.87174">
        <ele>160.80000305176</ele>
        <time>2022-06-27T09:41:57.000Z</time>
      </trkpt>
      <trkpt lat="43.4701" lon="6.87174">
        <ele>160</ele>
        <time>2022-06-27T09:42:13.000Z</time>
      </trkpt>
      <trkpt lat="43.4701" lon="6.87174">
        <ele>160</ele>
        <time>2022-06-27T09:42:17.000Z</time>
      </trkpt>
      <trkpt lat="43.4701" lon="6.87174">
        <ele>159.60000610352</ele>
        <time>2022-06-27T09:42:28.000Z</time>
      </trkpt>
      <trkpt lat="43.4701" lon="6.87174">
        <ele>160</ele>
        <time>2022-06-27T09:43:26.000Z</time>
      </trkpt>
      <trkpt lat="43.4701" lon="6.87174">
        <ele>160</ele>
        <time>2022-06-27T09:44:07.000Z</time>
      </trkpt>
      <trkpt lat="43.4701" lon="6.87174">
        <ele>161.19999694824</ele>
        <time>2022-06-27T09:44:37.000Z</time>
      </trkpt>
      <trkpt lat="43.4701" lon="6.87174">
        <ele>161</ele>
        <time>2022-06-27T09:44:47.000Z</time>
      </trkpt>
      <trkpt lat="43.4701" lon="6.87174">
        <ele>160.60000610352</ele>
        <time>2022-06-27T09:45:39.000Z</time>
      </trkpt>
      <trkpt lat="43.47009" lon="6.87173">
        <ele>160.39999389648</ele>
        <time>2022-06-27T09:45:51.000Z</time>
      </trkpt>
      <trkpt lat="43.47008" lon="6.87173">
        <ele>160.39999389648</ele>
        <time>2022-06-27T09:45:52.000Z</time>
      </trkpt>
      <trkpt lat="43.47007" lon="6.87172">
        <ele>160.39999389648</ele>
        <time>2022-06-27T09:45:53.000Z</time>
      </trkpt>
      <trkpt lat="43.47006" lon="6.87172">
        <ele>160.39999389648</ele>
        <time>2022-06-27T09:45:55.000Z</time>
      </trkpt>
      <trkpt lat="43.47005" lon="6.87171">
        <ele>159.39999389648</ele>
        <time>2022-06-27T09:46:12.000Z</time>
      </trkpt>
      <trkpt lat="43.47005" lon="6.87171">
        <ele>159.39999389648</ele>
        <time>2022-06-27T09:46:30.000Z</time>
      </trkpt>
      <trkpt lat="43.47005" lon="6.87171">
        <ele>158.60000610352</ele>
        <time>2022-06-27T09:46:52.000Z</time>
      </trkpt>
      <trkpt lat="43.4701" lon="6.87159">
        <ele>159</ele>
        <time>2022-06-27T09:46:57.000Z</time>
      </trkpt>
      <trkpt lat="43.4701" lon="6.8714">
        <ele>159.19999694824</ele>
        <time>2022-06-27T09:47:02.000Z</time>
      </trkpt>
      <trkpt lat="43.47006" lon="6.87105">
        <ele>159.39999389648</ele>
        <time>2022-06-27T09:47:08.000Z</time>
      </trkpt>
      <trkpt lat="43.47004" lon="6.87098">
        <ele>159.39999389648</ele>
        <time>2022-06-27T09:47:09.000Z</time>
      </trkpt>
      <trkpt lat="43.47" lon="6.87086">
        <ele>159.19999694824</ele>
        <time>2022-06-27T09:47:11.000Z</time>
      </trkpt>
      <trkpt lat="43.46998" lon="6.87081">
        <ele>159</ele>
        <time>2022-06-27T09:47:12.000Z</time>
      </trkpt>
      <trkpt lat="43.46992" lon="6.8707">
        <ele>158.39999389648</ele>
        <time>2022-06-27T09:47:14.000Z</time>
      </trkpt>
      <trkpt lat="43.46981" lon="6.87051">
        <ele>157.39999389648</ele>
        <time>2022-06-27T09:47:17.000Z</time>
      </trkpt>
      <trkpt lat="43.4697" lon="6.87029">
        <ele>157.19999694824</ele>
        <time>2022-06-27T09:47:20.000Z</time>
      </trkpt>
      <trkpt lat="43.4696" lon="6.87013">
        <ele>156.39999389648</ele>
        <time>2022-06-27T09:47:22.000Z</time>
      </trkpt>
      <trkpt lat="43.46956" lon="6.87006">
        <ele>156.19999694824</ele>
        <time>2022-06-27T09:47:23.000Z</time>
      </trkpt>
      <trkpt lat="43.46941" lon="6.86986">
        <ele>154.80000305176</ele>
        <time>2022-06-27T09:47:26.000Z</time>
      </trkpt>
      <trkpt lat="43.46921" lon="6.86961">
        <ele>153.80000305176</ele>
        <time>2022-06-27T09:47:30.000Z</time>
      </trkpt>
      <trkpt lat="43.46911" lon="6.86949">
        <ele>152.39999389648</ele>
        <time>2022-06-27T09:47:32.000Z</time>
      </trkpt>
      <trkpt lat="43.46902" lon="6.86936">
        <ele>151</ele>
        <time>2022-06-27T09:47:34.000Z</time>
      </trkpt>
      <trkpt lat="43.46893" lon="6.86922">
        <ele>150</ele>
        <time>2022-06-27T09:47:36.000Z</time>
      </trkpt>
      <trkpt lat="43.46888" lon="6.86915">
        <ele>149.60000610352</ele>
        <time>2022-06-27T09:47:37.000Z</time>
      </trkpt>
      <trkpt lat="43.46877" lon="6.86894">
        <ele>148.80000305176</ele>
        <time>2022-06-27T09:47:40.000Z</time>
      </trkpt>
      <trkpt lat="43.46872" lon="6.86881">
        <ele>148.39999389648</ele>
        <time>2022-06-27T09:47:42.000Z</time>
      </trkpt>
      <trkpt lat="43.4687" lon="6.86875">
        <ele>148.39999389648</ele>
        <time>2022-06-27T09:47:43.000Z</time>
      </trkpt>
      <trkpt lat="43.46867" lon="6.86852">
        <ele>147.60000610352</ele>
        <time>2022-06-27T09:47:46.000Z</time>
      </trkpt>
      <trkpt lat="43.46866" lon="6.86842">
        <ele>147.39999389648</ele>
        <time>2022-06-27T09:47:47.000Z</time>
      </trkpt>
      <trkpt lat="43.46867" lon="6.86816">
        <ele>146.39999389648</ele>
        <time>2022-06-27T09:47:50.000Z</time>
      </trkpt>
      <trkpt lat="43.46869" lon="6.86787">
        <ele>145</ele>
        <time>2022-06-27T09:47:53.000Z</time>
      </trkpt>
      <trkpt lat="43.4687" lon="6.86777">
        <ele>144.19999694824</ele>
        <time>2022-06-27T09:47:54.000Z</time>
      </trkpt>
      <trkpt lat="43.46872" lon="6.8676">
        <ele>143</ele>
        <time>2022-06-27T09:47:56.000Z</time>
      </trkpt>
      <trkpt lat="43.46876" lon="6.86731">
        <ele>141.60000610352</ele>
        <time>2022-06-27T09:47:59.000Z</time>
      </trkpt>
      <trkpt lat="43.4688" lon="6.86714">
        <ele>141.39999389648</ele>
        <time>2022-06-27T09:48:01.000Z</time>
      </trkpt>
      <trkpt lat="43.46886" lon="6.86692">
        <ele>140.60000610352</ele>
        <time>2022-06-27T09:48:04.000Z</time>
      </trkpt>
      <trkpt lat="43.4689" lon="6.86678">
        <ele>140</ele>
        <time>2022-06-27T09:48:06.000Z</time>
      </trkpt>
      <trkpt lat="43.46892" lon="6.86666">
        <ele>139.80000305176</ele>
        <time>2022-06-27T09:48:08.000Z</time>
      </trkpt>
      <trkpt lat="43.46893" lon="6.8666">
        <ele>139.39999389648</ele>
        <time>2022-06-27T09:48:09.000Z</time>
      </trkpt>
      <trkpt lat="43.46893" lon="6.86653">
        <ele>139.39999389648</ele>
        <time>2022-06-27T09:48:10.000Z</time>
      </trkpt>
      <trkpt lat="43.46892" lon="6.86647">
        <ele>138.80000305176</ele>
        <time>2022-06-27T09:48:11.000Z</time>
      </trkpt>
      <trkpt lat="43.46892" lon="6.86635">
        <ele>138.19999694824</ele>
        <time>2022-06-27T09:48:13.000Z</time>
      </trkpt>
      <trkpt lat="43.46892" lon="6.86623">
        <ele>137.60000610352</ele>
        <time>2022-06-27T09:48:15.000Z</time>
      </trkpt>
      <trkpt lat="43.46892" lon="6.86617">
        <ele>137.19999694824</ele>
        <time>2022-06-27T09:48:16.000Z</time>
      </trkpt>
      <trkpt lat="43.46892" lon="6.86611">
        <ele>136.80000305176</ele>
        <time>2022-06-27T09:48:17.000Z</time>
      </trkpt>
      <trkpt lat="43.46893" lon="6.866">
        <ele>136</ele>
        <time>2022-06-27T09:48:19.000Z</time>
      </trkpt>
      <trkpt lat="43.46895" lon="6.86576">
        <ele>135</ele>
        <time>2022-06-27T09:48:23.000Z</time>
      </trkpt>
      <trkpt lat="43.469" lon="6.86547">
        <ele>133.80000305176</ele>
        <time>2022-06-27T09:48:28.000Z</time>
      </trkpt>
      <trkpt lat="43.46904" lon="6.86533">
        <ele>133.39999389648</ele>
        <time>2022-06-27T09:48:31.000Z</time>
      </trkpt>
      <trkpt lat="43.46909" lon="6.86515">
        <ele>132.80000305176</ele>
        <time>2022-06-27T09:48:35.000Z</time>
      </trkpt>
      <trkpt lat="43.46913" lon="6.86502">
        <ele>132.19999694824</ele>
        <time>2022-06-27T09:48:38.000Z</time>
      </trkpt>
      <trkpt lat="43.46915" lon="6.86492">
        <ele>131.80000305176</ele>
        <time>2022-06-27T09:48:40.000Z</time>
      </trkpt>
      <trkpt lat="43.46918" lon="6.86477">
        <ele>131.19999694824</ele>
        <time>2022-06-27T09:48:43.000Z</time>
      </trkpt>
      <trkpt lat="43.46918" lon="6.86472">
        <ele>131.19999694824</ele>
        <time>2022-06-27T09:48:44.000Z</time>
      </trkpt>
      <trkpt lat="43.46917" lon="6.86467">
        <ele>130.80000305176</ele>
        <time>2022-06-27T09:48:45.000Z</time>
      </trkpt>
      <trkpt lat="43.46916" lon="6.86462">
        <ele>130.39999389648</ele>
        <time>2022-06-27T09:48:46.000Z</time>
      </trkpt>
      <trkpt lat="43.46913" lon="6.86457">
        <ele>130.19999694824</ele>
        <time>2022-06-27T09:48:47.000Z</time>
      </trkpt>
      <trkpt lat="43.46904" lon="6.86445">
        <ele>128.80000305176</ele>
        <time>2022-06-27T09:48:50.000Z</time>
      </trkpt>
      <trkpt lat="43.46892" lon="6.86433">
        <ele>127.59999847412</ele>
        <time>2022-06-27T09:48:53.000Z</time>
      </trkpt>
      <trkpt lat="43.46878" lon="6.86417">
        <ele>127.19999694824</ele>
        <time>2022-06-27T09:48:57.000Z</time>
      </trkpt>
      <trkpt lat="43.46872" lon="6.86408">
        <ele>126.80000305176</ele>
        <time>2022-06-27T09:48:59.000Z</time>
      </trkpt>
      <trkpt lat="43.46865" lon="6.86398">
        <ele>126.59999847412</ele>
        <time>2022-06-27T09:49:01.000Z</time>
      </trkpt>
      <trkpt lat="43.46852" lon="6.86372">
        <ele>126</ele>
        <time>2022-06-27T09:49:05.000Z</time>
      </trkpt>
      <trkpt lat="43.46845" lon="6.86357">
        <ele>125</ele>
        <time>2022-06-27T09:49:07.000Z</time>
      </trkpt>
      <trkpt lat="43.46837" lon="6.86341">
        <ele>124.40000152588</ele>
        <time>2022-06-27T09:49:09.000Z</time>
      </trkpt>
      <trkpt lat="43.46833" lon="6.86333">
        <ele>123.80000305176</ele>
        <time>2022-06-27T09:49:10.000Z</time>
      </trkpt>
      <trkpt lat="43.46817" lon="6.86303">
        <ele>122.80000305176</ele>
        <time>2022-06-27T09:49:14.000Z</time>
      </trkpt>
      <trkpt lat="43.46805" lon="6.86281">
        <ele>121.40000152588</ele>
        <time>2022-06-27T09:49:17.000Z</time>
      </trkpt>
      <trkpt lat="43.46802" lon="6.86274">
        <ele>120.80000305176</ele>
        <time>2022-06-27T09:49:18.000Z</time>
      </trkpt>
      <trkpt lat="43.46795" lon="6.86261">
        <ele>120</ele>
        <time>2022-06-27T09:49:20.000Z</time>
      </trkpt>
      <trkpt lat="43.46792" lon="6.86255">
        <ele>119.80000305176</ele>
        <time>2022-06-27T09:49:21.000Z</time>
      </trkpt>
      <trkpt lat="43.46788" lon="6.86241">
        <ele>118.59999847412</ele>
        <time>2022-06-27T09:49:23.000Z</time>
      </trkpt>
      <trkpt lat="43.46786" lon="6.86228">
        <ele>117.19999694824</ele>
        <time>2022-06-27T09:49:25.000Z</time>
      </trkpt>
      <trkpt lat="43.46784" lon="6.86204">
        <ele>116.40000152588</ele>
        <time>2022-06-27T09:49:28.000Z</time>
      </trkpt>
      <trkpt lat="43.46785" lon="6.86195">
        <ele>116.19999694824</ele>
        <time>2022-06-27T09:49:29.000Z</time>
      </trkpt>
      <trkpt lat="43.46786" lon="6.86169">
        <ele>114.80000305176</ele>
        <time>2022-06-27T09:49:32.000Z</time>
      </trkpt>
      <trkpt lat="43.46785" lon="6.86148">
        <ele>113.59999847412</ele>
        <time>2022-06-27T09:49:35.000Z</time>
      </trkpt>
      <trkpt lat="43.46781" lon="6.86135">
        <ele>113.19999694824</ele>
        <time>2022-06-27T09:49:37.000Z</time>
      </trkpt>
      <trkpt lat="43.46775" lon="6.86125">
        <ele>112.80000305176</ele>
        <time>2022-06-27T09:49:39.000Z</time>
      </trkpt>
      <trkpt lat="43.4677" lon="6.86121">
        <ele>112.40000152588</ele>
        <time>2022-06-27T09:49:40.000Z</time>
      </trkpt>
      <trkpt lat="43.46766" lon="6.86119">
        <ele>112.19999694824</ele>
        <time>2022-06-27T09:49:41.000Z</time>
      </trkpt>
      <trkpt lat="43.4676" lon="6.86118">
        <ele>111.80000305176</ele>
        <time>2022-06-27T09:49:42.000Z</time>
      </trkpt>
      <trkpt lat="43.46756" lon="6.86117">
        <ele>111.80000305176</ele>
        <time>2022-06-27T09:49:43.000Z</time>
      </trkpt>
      <trkpt lat="43.46748" lon="6.86119">
        <ele>111.40000152588</ele>
        <time>2022-06-27T09:49:45.000Z</time>
      </trkpt>
      <trkpt lat="43.46743" lon="6.86121">
        <ele>111.40000152588</ele>
        <time>2022-06-27T09:49:46.000Z</time>
      </trkpt>
      <trkpt lat="43.46726" lon="6.86119">
        <ele>110.80000305176</ele>
        <time>2022-06-27T09:49:51.000Z</time>
      </trkpt>
      <trkpt lat="43.46721" lon="6.86119">
        <ele>110.40000152588</ele>
        <time>2022-06-27T09:49:54.000Z</time>
      </trkpt>
      <trkpt lat="43.46721" lon="6.86119">
        <ele>110.19999694824</ele>
        <time>2022-06-27T09:49:55.000Z</time>
      </trkpt>
      <trkpt lat="43.46721" lon="6.86119">
        <ele>109.19999694824</ele>
        <time>2022-06-27T09:49:59.000Z</time>
      </trkpt>
      <trkpt lat="43.46721" lon="6.86119">
        <ele>108.80000305176</ele>
        <time>2022-06-27T09:50:08.000Z</time>
      </trkpt>
      <trkpt lat="43.46721" lon="6.86119">
        <ele>108.19999694824</ele>
        <time>2022-06-27T09:50:11.000Z</time>
      </trkpt>
      <trkpt lat="43.46713" lon="6.86118">
        <ele>108</ele>
        <time>2022-06-27T09:50:16.000Z</time>
      </trkpt>
      <trkpt lat="43.46699" lon="6.86119">
        <ele>107.59999847412</ele>
        <time>2022-06-27T09:50:20.000Z</time>
      </trkpt>
      <trkpt lat="43.46694" lon="6.8612">
        <ele>107.59999847412</ele>
        <time>2022-06-27T09:50:21.000Z</time>
      </trkpt>
      <trkpt lat="43.4669" lon="6.86121">
        <ele>107.40000152588</ele>
        <time>2022-06-27T09:50:22.000Z</time>
      </trkpt>
      <trkpt lat="43.4668" lon="6.86122">
        <ele>107</ele>
        <time>2022-06-27T09:50:24.000Z</time>
      </trkpt>
      <trkpt lat="43.46666" lon="6.86123">
        <ele>106.59999847412</ele>
        <time>2022-06-27T09:50:27.000Z</time>
      </trkpt>
      <trkpt lat="43.4666" lon="6.86123">
        <ele>106.19999694824</ele>
        <time>2022-06-27T09:50:28.000Z</time>
      </trkpt>
      <trkpt lat="43.46655" lon="6.86122">
        <ele>105.59999847412</ele>
        <time>2022-06-27T09:50:29.000Z</time>
      </trkpt>
      <trkpt lat="43.4665" lon="6.8612">
        <ele>105.40000152588</ele>
        <time>2022-06-27T09:50:30.000Z</time>
      </trkpt>
      <trkpt lat="43.46645" lon="6.86116">
        <ele>105</ele>
        <time>2022-06-27T09:50:31.000Z</time>
      </trkpt>
      <trkpt lat="43.46627" lon="6.861">
        <ele>104.40000152588</ele>
        <time>2022-06-27T09:50:34.000Z</time>
      </trkpt>
      <trkpt lat="43.46608" lon="6.86084">
        <ele>103.40000152588</ele>
        <time>2022-06-27T09:50:37.000Z</time>
      </trkpt>
      <trkpt lat="43.46595" lon="6.86075">
        <ele>102.80000305176</ele>
        <time>2022-06-27T09:50:39.000Z</time>
      </trkpt>
      <trkpt lat="43.46584" lon="6.86064">
        <ele>102.40000152588</ele>
        <time>2022-06-27T09:50:41.000Z</time>
      </trkpt>
      <trkpt lat="43.46576" lon="6.86056">
        <ele>102.19999694824</ele>
        <time>2022-06-27T09:50:42.000Z</time>
      </trkpt>
      <trkpt lat="43.46563" lon="6.86042">
        <ele>100.80000305176</ele>
        <time>2022-06-27T09:50:44.000Z</time>
      </trkpt>
      <trkpt lat="43.46553" lon="6.86031">
        <ele>100.19999694824</ele>
        <time>2022-06-27T09:50:46.000Z</time>
      </trkpt>
      <trkpt lat="43.46546" lon="6.86016">
        <ele>99.599998474121</ele>
        <time>2022-06-27T09:50:48.000Z</time>
      </trkpt>
      <trkpt lat="43.46545" lon="6.86003">
        <ele>99.599998474121</ele>
        <time>2022-06-27T09:50:50.000Z</time>
      </trkpt>
      <trkpt lat="43.46547" lon="6.85994">
        <ele>99.199996948242</ele>
        <time>2022-06-27T09:50:51.000Z</time>
      </trkpt>
      <trkpt lat="43.46549" lon="6.85986">
        <ele>98.800003051758</ele>
        <time>2022-06-27T09:50:52.000Z</time>
      </trkpt>
      <trkpt lat="43.4656" lon="6.85963">
        <ele>97.599998474121</ele>
        <time>2022-06-27T09:50:55.000Z</time>
      </trkpt>
      <trkpt lat="43.46563" lon="6.85954">
        <ele>97</ele>
        <time>2022-06-27T09:50:56.000Z</time>
      </trkpt>
      <trkpt lat="43.4657" lon="6.85936">
        <ele>96.199996948242</ele>
        <time>2022-06-27T09:50:58.000Z</time>
      </trkpt>
      <trkpt lat="43.46577" lon="6.85917">
        <ele>95</ele>
        <time>2022-06-27T09:51:00.000Z</time>
      </trkpt>
      <trkpt lat="43.46582" lon="6.85897">
        <ele>94.400001525879</ele>
        <time>2022-06-27T09:51:02.000Z</time>
      </trkpt>
      <trkpt lat="43.46584" lon="6.85877">
        <ele>94.199996948242</ele>
        <time>2022-06-27T09:51:04.000Z</time>
      </trkpt>
      <trkpt lat="43.46584" lon="6.85859">
        <ele>93.599998474121</ele>
        <time>2022-06-27T09:51:06.000Z</time>
      </trkpt>
      <trkpt lat="43.46581" lon="6.85841">
        <ele>93.400001525879</ele>
        <time>2022-06-27T09:51:08.000Z</time>
      </trkpt>
      <trkpt lat="43.46578" lon="6.85833">
        <ele>93.400001525879</ele>
        <time>2022-06-27T09:51:09.000Z</time>
      </trkpt>
      <trkpt lat="43.46571" lon="6.85818">
        <ele>93</ele>
        <time>2022-06-27T09:51:11.000Z</time>
      </trkpt>
      <trkpt lat="43.46564" lon="6.85804">
        <ele>92.599998474121</ele>
        <time>2022-06-27T09:51:13.000Z</time>
      </trkpt>
      <trkpt lat="43.46561" lon="6.85798">
        <ele>92.599998474121</ele>
        <time>2022-06-27T09:51:14.000Z</time>
      </trkpt>
      <trkpt lat="43.46556" lon="6.85777">
        <ele>92.199996948242</ele>
        <time>2022-06-27T09:51:18.000Z</time>
      </trkpt>
      <trkpt lat="43.46552" lon="6.85763">
        <ele>92</ele>
        <time>2022-06-27T09:51:21.000Z</time>
      </trkpt>
      <trkpt lat="43.46547" lon="6.85754">
        <ele>91.800003051758</ele>
        <time>2022-06-27T09:51:24.000Z</time>
      </trkpt>
      <trkpt lat="43.46545" lon="6.8575">
        <ele>91.599998474121</ele>
        <time>2022-06-27T09:51:28.000Z</time>
      </trkpt>
      <trkpt lat="43.46539" lon="6.85744">
        <ele>91.800003051758</ele>
        <time>2022-06-27T09:51:45.000Z</time>
      </trkpt>
      <trkpt lat="43.46522" lon="6.85726">
        <ele>91.800003051758</ele>
        <time>2022-06-27T09:51:52.000Z</time>
      </trkpt>
      <trkpt lat="43.46516" lon="6.85703">
        <ele>91.400001525879</ele>
        <time>2022-06-27T09:51:57.000Z</time>
      </trkpt>
      <trkpt lat="43.46516" lon="6.85692">
        <ele>91</ele>
        <time>2022-06-27T09:51:59.000Z</time>
      </trkpt>
      <trkpt lat="43.46517" lon="6.85687">
        <ele>90.800003051758</ele>
        <time>2022-06-27T09:52:00.000Z</time>
      </trkpt>
      <trkpt lat="43.46517" lon="6.85666">
        <ele>90.599998474121</ele>
        <time>2022-06-27T09:52:04.000Z</time>
      </trkpt>
      <trkpt lat="43.46515" lon="6.8563">
        <ele>90.800003051758</ele>
        <time>2022-06-27T09:52:11.000Z</time>
      </trkpt>
      <trkpt lat="43.46517" lon="6.85619">
        <ele>90.800003051758</ele>
        <time>2022-06-27T09:52:13.000Z</time>
      </trkpt>
      <trkpt lat="43.46522" lon="6.85611">
        <ele>90.800003051758</ele>
        <time>2022-06-27T09:52:15.000Z</time>
      </trkpt>
      <trkpt lat="43.4653" lon="6.85609">
        <ele>90.800003051758</ele>
        <time>2022-06-27T09:52:17.000Z</time>
      </trkpt>
      <trkpt lat="43.46535" lon="6.85611">
        <ele>90.599998474121</ele>
        <time>2022-06-27T09:52:18.000Z</time>
      </trkpt>
      <trkpt lat="43.46538" lon="6.85615">
        <ele>90.400001525879</ele>
        <time>2022-06-27T09:52:19.000Z</time>
      </trkpt>
      <trkpt lat="43.46543" lon="6.85626">
        <ele>90.199996948242</ele>
        <time>2022-06-27T09:52:21.000Z</time>
      </trkpt>
      <trkpt lat="43.46543" lon="6.85633">
        <ele>90</ele>
        <time>2022-06-27T09:52:22.000Z</time>
      </trkpt>
      <trkpt lat="43.46542" lon="6.85639">
        <ele>89.800003051758</ele>
        <time>2022-06-27T09:52:23.000Z</time>
      </trkpt>
      <trkpt lat="43.46539" lon="6.85654">
        <ele>89.400001525879</ele>
        <time>2022-06-27T09:52:25.000Z</time>
      </trkpt>
      <trkpt lat="43.46534" lon="6.85677">
        <ele>89</ele>
        <time>2022-06-27T09:52:28.000Z</time>
      </trkpt>
      <trkpt lat="43.46531" lon="6.85699">
        <ele>88</ele>
        <time>2022-06-27T09:52:31.000Z</time>
      </trkpt>
      <trkpt lat="43.46532" lon="6.85707">
        <ele>87.800003051758</ele>
        <time>2022-06-27T09:52:32.000Z</time>
      </trkpt>
      <trkpt lat="43.46533" lon="6.85712">
        <ele>87.599998474121</ele>
        <time>2022-06-27T09:52:33.000Z</time>
      </trkpt>
      <trkpt lat="43.4654" lon="6.85721">
        <ele>87</ele>
        <time>2022-06-27T09:52:35.000Z</time>
      </trkpt>
      <trkpt lat="43.46545" lon="6.85723">
        <ele>86.599998474121</ele>
        <time>2022-06-27T09:52:36.000Z</time>
      </trkpt>
      <trkpt lat="43.46565" lon="6.85731">
        <ele>85.800003051758</ele>
        <time>2022-06-27T09:52:40.000Z</time>
      </trkpt>
      <trkpt lat="43.46571" lon="6.85734">
        <ele>85.599998474121</ele>
        <time>2022-06-27T09:52:41.000Z</time>
      </trkpt>
      <trkpt lat="43.46588" lon="6.85742">
        <ele>84.400001525879</ele>
        <time>2022-06-27T09:52:44.000Z</time>
      </trkpt>
      <trkpt lat="43.46593" lon="6.85746">
        <ele>84.400001525879</ele>
        <time>2022-06-27T09:52:45.000Z</time>
      </trkpt>
      <trkpt lat="43.4661" lon="6.85756">
        <ele>83.199996948242</ele>
        <time>2022-06-27T09:52:48.000Z</time>
      </trkpt>
      <trkpt lat="43.46624" lon="6.85763">
        <ele>82.599998474121</ele>
        <time>2022-06-27T09:52:50.000Z</time>
      </trkpt>
      <trkpt lat="43.46637" lon="6.8577">
        <ele>82</ele>
        <time>2022-06-27T09:52:52.000Z</time>
      </trkpt>
      <trkpt lat="43.46643" lon="6.85773">
        <ele>81.599998474121</ele>
        <time>2022-06-27T09:52:53.000Z</time>
      </trkpt>
      <trkpt lat="43.46653" lon="6.85787">
        <ele>81</ele>
        <time>2022-06-27T09:52:55.000Z</time>
      </trkpt>
      <trkpt lat="43.46654" lon="6.85806">
        <ele>80</ele>
        <time>2022-06-27T09:52:57.000Z</time>
      </trkpt>
      <trkpt lat="43.46652" lon="6.85816">
        <ele>79.599998474121</ele>
        <time>2022-06-27T09:52:58.000Z</time>
      </trkpt>
      <trkpt lat="43.46646" lon="6.85832">
        <ele>78.800003051758</ele>
        <time>2022-06-27T09:53:00.000Z</time>
      </trkpt>
      <trkpt lat="43.46647" lon="6.85852">
        <ele>78.199996948242</ele>
        <time>2022-06-27T09:53:02.000Z</time>
      </trkpt>
      <trkpt lat="43.46656" lon="6.85864">
        <ele>77.400001525879</ele>
        <time>2022-06-27T09:53:04.000Z</time>
      </trkpt>
      <trkpt lat="43.46663" lon="6.85869">
        <ele>76.800003051758</ele>
        <time>2022-06-27T09:53:05.000Z</time>
      </trkpt>
      <trkpt lat="43.46676" lon="6.85878">
        <ele>76.199996948242</ele>
        <time>2022-06-27T09:53:07.000Z</time>
      </trkpt>
      <trkpt lat="43.46682" lon="6.8588">
        <ele>75.800003051758</ele>
        <time>2022-06-27T09:53:08.000Z</time>
      </trkpt>
      <trkpt lat="43.46688" lon="6.85877">
        <ele>75.599998474121</ele>
        <time>2022-06-27T09:53:09.000Z</time>
      </trkpt>
      <trkpt lat="43.46693" lon="6.85871">
        <ele>75.400001525879</ele>
        <time>2022-06-27T09:53:10.000Z</time>
      </trkpt>
      <trkpt lat="43.46694" lon="6.85862">
        <ele>75</ele>
        <time>2022-06-27T09:53:11.000Z</time>
      </trkpt>
      <trkpt lat="43.46692" lon="6.85853">
        <ele>74.800003051758</ele>
        <time>2022-06-27T09:53:12.000Z</time>
      </trkpt>
      <trkpt lat="43.46691" lon="6.85843">
        <ele>74.199996948242</ele>
        <time>2022-06-27T09:53:13.000Z</time>
      </trkpt>
      <trkpt lat="43.46692" lon="6.85822">
        <ele>73.800003051758</ele>
        <time>2022-06-27T09:53:15.000Z</time>
      </trkpt>
      <trkpt lat="43.46698" lon="6.85803">
        <ele>73</ele>
        <time>2022-06-27T09:53:17.000Z</time>
      </trkpt>
      <trkpt lat="43.46705" lon="6.85784">
        <ele>72.400001525879</ele>
        <time>2022-06-27T09:53:19.000Z</time>
      </trkpt>
      <trkpt lat="43.46711" lon="6.85767">
        <ele>71.800003051758</ele>
        <time>2022-06-27T09:53:21.000Z</time>
      </trkpt>
      <trkpt lat="43.46721" lon="6.85735">
        <ele>70.599998474121</ele>
        <time>2022-06-27T09:53:25.000Z</time>
      </trkpt>
      <trkpt lat="43.46731" lon="6.85706">
        <ele>69.400001525879</ele>
        <time>2022-06-27T09:53:29.000Z</time>
      </trkpt>
      <trkpt lat="43.46736" lon="6.85692">
        <ele>69</ele>
        <time>2022-06-27T09:53:31.000Z</time>
      </trkpt>
      <trkpt lat="43.46739" lon="6.85685">
        <ele>68.400001525879</ele>
        <time>2022-06-27T09:53:33.000Z</time>
      </trkpt>
      <trkpt lat="43.4674" lon="6.85683">
        <ele>68.199996948242</ele>
        <time>2022-06-27T09:53:34.000Z</time>
      </trkpt>
      <trkpt lat="43.4674" lon="6.85682">
        <ele>67.599998474121</ele>
        <time>2022-06-27T09:53:37.000Z</time>
      </trkpt>
      <trkpt lat="43.4674" lon="6.85682">
        <ele>67.199996948242</ele>
        <time>2022-06-27T09:53:39.000Z</time>
      </trkpt>
      <trkpt lat="43.4674" lon="6.85682">
        <ele>66.199996948242</ele>
        <time>2022-06-27T09:53:45.000Z</time>
      </trkpt>
      <trkpt lat="43.4674" lon="6.85682">
        <ele>66.199996948242</ele>
        <time>2022-06-27T09:53:51.000Z</time>
      </trkpt>
      <trkpt lat="43.4674" lon="6.85682">
        <ele>66.199996948242</ele>
        <time>2022-06-27T09:53:58.000Z</time>
      </trkpt>
      <trkpt lat="43.46745" lon="6.85674">
        <ele>65</ele>
        <time>2022-06-27T09:54:21.000Z</time>
      </trkpt>
      <trkpt lat="43.46751" lon="6.8567">
        <ele>65</ele>
        <time>2022-06-27T09:54:23.000Z</time>
      </trkpt>
      <trkpt lat="43.46761" lon="6.85663">
        <ele>64.599998474121</ele>
        <time>2022-06-27T09:54:26.000Z</time>
      </trkpt>
      <trkpt lat="43.46774" lon="6.85658">
        <ele>64.199996948242</ele>
        <time>2022-06-27T09:54:29.000Z</time>
      </trkpt>
      <trkpt lat="43.46783" lon="6.85653">
        <ele>63.799999237061</ele>
        <time>2022-06-27T09:54:31.000Z</time>
      </trkpt>
      <trkpt lat="43.46788" lon="6.85651">
        <ele>63.799999237061</ele>
        <time>2022-06-27T09:54:32.000Z</time>
      </trkpt>
      <trkpt lat="43.4681" lon="6.85644">
        <ele>62.799999237061</ele>
        <time>2022-06-27T09:54:36.000Z</time>
      </trkpt>
      <trkpt lat="43.46817" lon="6.85643">
        <ele>62.599998474121</ele>
        <time>2022-06-27T09:54:37.000Z</time>
      </trkpt>
      <trkpt lat="43.46823" lon="6.85643">
        <ele>62.400001525879</ele>
        <time>2022-06-27T09:54:38.000Z</time>
      </trkpt>
      <trkpt lat="43.46842" lon="6.85643">
        <ele>61.599998474121</ele>
        <time>2022-06-27T09:54:41.000Z</time>
      </trkpt>
      <trkpt lat="43.46862" lon="6.85646">
        <ele>61</ele>
        <time>2022-06-27T09:54:44.000Z</time>
      </trkpt>
      <trkpt lat="43.46868" lon="6.85647">
        <ele>60.599998474121</ele>
        <time>2022-06-27T09:54:45.000Z</time>
      </trkpt>
      <trkpt lat="43.46891" lon="6.85648">
        <ele>60.200000762939</ele>
        <time>2022-06-27T09:54:48.000Z</time>
      </trkpt>
      <trkpt lat="43.46898" lon="6.85646">
        <ele>60.200000762939</ele>
        <time>2022-06-27T09:54:49.000Z</time>
      </trkpt>
      <trkpt lat="43.46913" lon="6.8564">
        <ele>59.799999237061</ele>
        <time>2022-06-27T09:54:51.000Z</time>
      </trkpt>
      <trkpt lat="43.46921" lon="6.85639">
        <ele>59.599998474121</ele>
        <time>2022-06-27T09:54:52.000Z</time>
      </trkpt>
      <trkpt lat="43.46936" lon="6.85638">
        <ele>59</ele>
        <time>2022-06-27T09:54:54.000Z</time>
      </trkpt>
      <trkpt lat="43.46944" lon="6.85638">
        <ele>58.200000762939</ele>
        <time>2022-06-27T09:54:55.000Z</time>
      </trkpt>
      <trkpt lat="43.46982" lon="6.85637">
        <ele>57.200000762939</ele>
        <time>2022-06-27T09:55:00.000Z</time>
      </trkpt>
      <trkpt lat="43.46996" lon="6.8564">
        <ele>56.599998474121</ele>
        <time>2022-06-27T09:55:02.000Z</time>
      </trkpt>
      <trkpt lat="43.47011" lon="6.85647">
        <ele>56</ele>
        <time>2022-06-27T09:55:05.000Z</time>
      </trkpt>
      <trkpt lat="43.47017" lon="6.85649">
        <ele>55.799999237061</ele>
        <time>2022-06-27T09:55:06.000Z</time>
      </trkpt>
      <trkpt lat="43.47023" lon="6.85649">
        <ele>55.599998474121</ele>
        <time>2022-06-27T09:55:07.000Z</time>
      </trkpt>
      <trkpt lat="43.47026" lon="6.85648">
        <ele>55.599998474121</ele>
        <time>2022-06-27T09:55:08.000Z</time>
      </trkpt>
      <trkpt lat="43.47036" lon="6.85639">
        <ele>55.400001525879</ele>
        <time>2022-06-27T09:55:11.000Z</time>
      </trkpt>
      <trkpt lat="43.47044" lon="6.85628">
        <ele>55.200000762939</ele>
        <time>2022-06-27T09:55:15.000Z</time>
      </trkpt>
      <trkpt lat="43.47043" lon="6.85624">
        <ele>55.200000762939</ele>
        <time>2022-06-27T09:55:16.000Z</time>
      </trkpt>
      <trkpt lat="43.47041" lon="6.8562">
        <ele>55.200000762939</ele>
        <time>2022-06-27T09:55:17.000Z</time>
      </trkpt>
      <trkpt lat="43.47034" lon="6.85615">
        <ele>55.200000762939</ele>
        <time>2022-06-27T09:55:19.000Z</time>
      </trkpt>
      <trkpt lat="43.47027" lon="6.85612">
        <ele>54.799999237061</ele>
        <time>2022-06-27T09:55:21.000Z</time>
      </trkpt>
      <trkpt lat="43.47022" lon="6.8561">
        <ele>54.799999237061</ele>
        <time>2022-06-27T09:55:22.000Z</time>
      </trkpt>
      <trkpt lat="43.47016" lon="6.85607">
        <ele>54.799999237061</ele>
        <time>2022-06-27T09:55:24.000Z</time>
      </trkpt>
      <trkpt lat="43.46976" lon="6.85587">
        <ele>54.799999237061</ele>
        <time>2022-06-27T09:55:35.000Z</time>
      </trkpt>
      <trkpt lat="43.46957" lon="6.85586">
        <ele>55.200000762939</ele>
        <time>2022-06-27T09:55:40.000Z</time>
      </trkpt>
      <trkpt lat="43.46942" lon="6.85582">
        <ele>55.799999237061</ele>
        <time>2022-06-27T09:55:44.000Z</time>
      </trkpt>
      <trkpt lat="43.46932" lon="6.85578">
        <ele>56</ele>
        <time>2022-06-27T09:55:47.000Z</time>
      </trkpt>
      <trkpt lat="43.46913" lon="6.85565">
        <ele>56.799999237061</ele>
        <time>2022-06-27T09:55:53.000Z</time>
      </trkpt>
      <trkpt lat="43.46889" lon="6.85557">
        <ele>57.799999237061</ele>
        <time>2022-06-27T09:56:00.000Z</time>
      </trkpt>
      <trkpt lat="43.46852" lon="6.85546">
        <ele>58.200000762939</ele>
        <time>2022-06-27T09:56:10.000Z</time>
      </trkpt>
      <trkpt lat="43.46817" lon="6.8553">
        <ele>57.799999237061</ele>
        <time>2022-06-27T09:56:19.000Z</time>
      </trkpt>
      <trkpt lat="43.46789" lon="6.85503">
        <ele>58.799999237061</ele>
        <time>2022-06-27T09:56:27.000Z</time>
      </trkpt>
      <trkpt lat="43.46786" lon="6.85499">
        <ele>59.200000762939</ele>
        <time>2022-06-27T09:56:28.000Z</time>
      </trkpt>
      <trkpt lat="43.46783" lon="6.85494">
        <ele>59.400001525879</ele>
        <time>2022-06-27T09:56:29.000Z</time>
      </trkpt>
      <trkpt lat="43.46775" lon="6.85475">
        <ele>60.400001525879</ele>
        <time>2022-06-27T09:56:33.000Z</time>
      </trkpt>
      <trkpt lat="43.46768" lon="6.85452">
        <ele>61.599998474121</ele>
        <time>2022-06-27T09:56:37.000Z</time>
      </trkpt>
      <trkpt lat="43.46766" lon="6.85433">
        <ele>62.799999237061</ele>
        <time>2022-06-27T09:56:40.000Z</time>
      </trkpt>
      <trkpt lat="43.46766" lon="6.85427">
        <ele>62.799999237061</ele>
        <time>2022-06-27T09:56:41.000Z</time>
      </trkpt>
      <trkpt lat="43.46767" lon="6.85403">
        <ele>63.799999237061</ele>
        <time>2022-06-27T09:56:45.000Z</time>
      </trkpt>
      <trkpt lat="43.46767" lon="6.85396">
        <ele>64</ele>
        <time>2022-06-27T09:56:46.000Z</time>
      </trkpt>
      <trkpt lat="43.46766" lon="6.85364">
        <ele>64.800003051758</ele>
        <time>2022-06-27T09:56:51.000Z</time>
      </trkpt>
      <trkpt lat="43.46763" lon="6.85345">
        <ele>65.400001525879</ele>
        <time>2022-06-27T09:56:54.000Z</time>
      </trkpt>
      <trkpt lat="43.46759" lon="6.85313">
        <ele>66.199996948242</ele>
        <time>2022-06-27T09:56:59.000Z</time>
      </trkpt>
      <trkpt lat="43.46758" lon="6.85295">
        <ele>66.599998474121</ele>
        <time>2022-06-27T09:57:02.000Z</time>
      </trkpt>
      <trkpt lat="43.46758" lon="6.85277">
        <ele>67.400001525879</ele>
        <time>2022-06-27T09:57:05.000Z</time>
      </trkpt>
      <trkpt lat="43.46758" lon="6.85266">
        <ele>67.800003051758</ele>
        <time>2022-06-27T09:57:07.000Z</time>
      </trkpt>
      <trkpt lat="43.46755" lon="6.85248">
        <ele>68</ele>
        <time>2022-06-27T09:57:10.000Z</time>
      </trkpt>
      <trkpt lat="43.46746" lon="6.85208">
        <ele>68.599998474121</ele>
        <time>2022-06-27T09:57:17.000Z</time>
      </trkpt>
      <trkpt lat="43.46745" lon="6.85196">
        <ele>69</ele>
        <time>2022-06-27T09:57:19.000Z</time>
      </trkpt>
      <trkpt lat="43.4674" lon="6.85154">
        <ele>69.800003051758</ele>
        <time>2022-06-27T09:57:26.000Z</time>
      </trkpt>
      <trkpt lat="43.4674" lon="6.85144">
        <ele>70</ele>
        <time>2022-06-27T09:57:28.000Z</time>
      </trkpt>
      <trkpt lat="43.46742" lon="6.85132">
        <ele>70.199996948242</ele>
        <time>2022-06-27T09:57:30.000Z</time>
      </trkpt>
      <trkpt lat="43.46746" lon="6.85123">
        <ele>70.800003051758</ele>
        <time>2022-06-27T09:57:32.000Z</time>
      </trkpt>
      <trkpt lat="43.46748" lon="6.85118">
        <ele>71</ele>
        <time>2022-06-27T09:57:33.000Z</time>
      </trkpt>
      <trkpt lat="43.46753" lon="6.85109">
        <ele>71.599998474121</ele>
        <time>2022-06-27T09:57:35.000Z</time>
      </trkpt>
      <trkpt lat="43.46755" lon="6.85104">
        <ele>72</ele>
        <time>2022-06-27T09:57:36.000Z</time>
      </trkpt>
      <trkpt lat="43.46761" lon="6.85089">
        <ele>73.199996948242</ele>
        <time>2022-06-27T09:57:39.000Z</time>
      </trkpt>
      <trkpt lat="43.46774" lon="6.85052">
        <ele>74.199996948242</ele>
        <time>2022-06-27T09:57:46.000Z</time>
      </trkpt>
      <trkpt lat="43.46775" lon="6.85046">
        <ele>74.400001525879</ele>
        <time>2022-06-27T09:57:47.000Z</time>
      </trkpt>
      <trkpt lat="43.46776" lon="6.85041">
        <ele>74.599998474121</ele>
        <time>2022-06-27T09:57:48.000Z</time>
      </trkpt>
      <trkpt lat="43.46776" lon="6.85035">
        <ele>74.599998474121</ele>
        <time>2022-06-27T09:57:49.000Z</time>
      </trkpt>
      <trkpt lat="43.46773" lon="6.85023">
        <ele>74.800003051758</ele>
        <time>2022-06-27T09:57:51.000Z</time>
      </trkpt>
      <trkpt lat="43.46766" lon="6.85005">
        <ele>75</ele>
        <time>2022-06-27T09:57:54.000Z</time>
      </trkpt>
      <trkpt lat="43.46763" lon="6.84986">
        <ele>75.199996948242</ele>
        <time>2022-06-27T09:57:57.000Z</time>
      </trkpt>
      <trkpt lat="43.46762" lon="6.84979">
        <ele>75.199996948242</ele>
        <time>2022-06-27T09:57:58.000Z</time>
      </trkpt>
      <trkpt lat="43.46762" lon="6.84973">
        <ele>75.400001525879</ele>
        <time>2022-06-27T09:57:59.000Z</time>
      </trkpt>
      <trkpt lat="43.46764" lon="6.84947">
        <ele>76</ele>
        <time>2022-06-27T09:58:03.000Z</time>
      </trkpt>
      <trkpt lat="43.46763" lon="6.8494">
        <ele>76</ele>
        <time>2022-06-27T09:58:04.000Z</time>
      </trkpt>
      <trkpt lat="43.46762" lon="6.84934">
        <ele>76</ele>
        <time>2022-06-27T09:58:05.000Z</time>
      </trkpt>
      <trkpt lat="43.46756" lon="6.84923">
        <ele>76.199996948242</ele>
        <time>2022-06-27T09:58:07.000Z</time>
      </trkpt>
      <trkpt lat="43.46752" lon="6.84919">
        <ele>76.400001525879</ele>
        <time>2022-06-27T09:58:08.000Z</time>
      </trkpt>
      <trkpt lat="43.46734" lon="6.84906">
        <ele>76.599998474121</ele>
        <time>2022-06-27T09:58:12.000Z</time>
      </trkpt>
      <trkpt lat="43.46725" lon="6.84898">
        <ele>76.800003051758</ele>
        <time>2022-06-27T09:58:14.000Z</time>
      </trkpt>
      <trkpt lat="43.46711" lon="6.84881">
        <ele>77</ele>
        <time>2022-06-27T09:58:18.000Z</time>
      </trkpt>
      <trkpt lat="43.46692" lon="6.84859">
        <ele>77.599998474121</ele>
        <time>2022-06-27T09:58:23.000Z</time>
      </trkpt>
      <trkpt lat="43.46682" lon="6.84846">
        <ele>78</ele>
        <time>2022-06-27T09:58:26.000Z</time>
      </trkpt>
      <trkpt lat="43.46674" lon="6.84832">
        <ele>78.400001525879</ele>
        <time>2022-06-27T09:58:29.000Z</time>
      </trkpt>
      <trkpt lat="43.46673" lon="6.84825">
        <ele>78.800003051758</ele>
        <time>2022-06-27T09:58:30.000Z</time>
      </trkpt>
      <trkpt lat="43.46672" lon="6.84818">
        <ele>78.800003051758</ele>
        <time>2022-06-27T09:58:31.000Z</time>
      </trkpt>
      <trkpt lat="43.46673" lon="6.84804">
        <ele>79.199996948242</ele>
        <time>2022-06-27T09:58:33.000Z</time>
      </trkpt>
      <trkpt lat="43.46675" lon="6.84798">
        <ele>79.400001525879</ele>
        <time>2022-06-27T09:58:34.000Z</time>
      </trkpt>
      <trkpt lat="43.46677" lon="6.84792">
        <ele>79.800003051758</ele>
        <time>2022-06-27T09:58:35.000Z</time>
      </trkpt>
      <trkpt lat="43.4669" lon="6.84774">
        <ele>80.400001525879</ele>
        <time>2022-06-27T09:58:39.000Z</time>
      </trkpt>
      <trkpt lat="43.467" lon="6.84767">
        <ele>80.800003051758</ele>
        <time>2022-06-27T09:58:42.000Z</time>
      </trkpt>
      <trkpt lat="43.46704" lon="6.84765">
        <ele>80.800003051758</ele>
        <time>2022-06-27T09:58:43.000Z</time>
      </trkpt>
      <trkpt lat="43.46723" lon="6.84766">
        <ele>81.400001525879</ele>
        <time>2022-06-27T09:58:48.000Z</time>
      </trkpt>
      <trkpt lat="43.46738" lon="6.84771">
        <ele>82</ele>
        <time>2022-06-27T09:58:52.000Z</time>
      </trkpt>
      <trkpt lat="43.46752" lon="6.84777">
        <ele>82.400001525879</ele>
        <time>2022-06-27T09:58:56.000Z</time>
      </trkpt>
      <trkpt lat="43.46761" lon="6.84779">
        <ele>83.199996948242</ele>
        <time>2022-06-27T09:58:59.000Z</time>
      </trkpt>
      <trkpt lat="43.46763" lon="6.8478">
        <ele>83.400001525879</ele>
        <time>2022-06-27T09:59:00.000Z</time>
      </trkpt>
      <trkpt lat="43.46766" lon="6.84785">
        <ele>83.800003051758</ele>
        <time>2022-06-27T09:59:02.000Z</time>
      </trkpt>
      <trkpt lat="43.46766" lon="6.84788">
        <ele>83.800003051758</ele>
        <time>2022-06-27T09:59:07.000Z</time>
      </trkpt>
      <trkpt lat="43.46767" lon="6.84789">
        <ele>83.599998474121</ele>
        <time>2022-06-27T09:59:14.000Z</time>
      </trkpt>
      <trkpt lat="43.46767" lon="6.84789">
        <ele>83.400001525879</ele>
        <time>2022-06-27T10:00:13.000Z</time>
      </trkpt>
      <trkpt lat="43.46767" lon="6.84789">
        <ele>83</ele>
        <time>2022-06-27T10:03:21.000Z</time>
      </trkpt>
      <trkpt lat="43.46768" lon="6.84782">
        <ele>82.800003051758</ele>
        <time>2022-06-27T10:03:23.000Z</time>
      </trkpt>
      <trkpt lat="43.46778" lon="6.84781">
        <ele>82.800003051758</ele>
        <time>2022-06-27T10:03:27.000Z</time>
      </trkpt>
      <trkpt lat="43.46791" lon="6.84781">
        <ele>82.800003051758</ele>
        <time>2022-06-27T10:03:31.000Z</time>
      </trkpt>
      <trkpt lat="43.46814" lon="6.84784">
        <ele>83.199996948242</ele>
        <time>2022-06-27T10:03:37.000Z</time>
      </trkpt>
      <trkpt lat="43.46826" lon="6.84785">
        <ele>83.599998474121</ele>
        <time>2022-06-27T10:03:40.000Z</time>
      </trkpt>
      <trkpt lat="43.46847" lon="6.84788">
        <ele>84</ele>
        <time>2022-06-27T10:03:45.000Z</time>
      </trkpt>
      <trkpt lat="43.4686" lon="6.84792">
        <ele>84</ele>
        <time>2022-06-27T10:03:48.000Z</time>
      </trkpt>
      <trkpt lat="43.46869" lon="6.84792">
        <ele>84.400001525879</ele>
        <time>2022-06-27T10:03:50.000Z</time>
      </trkpt>
      <trkpt lat="43.46873" lon="6.8479">
        <ele>84.400001525879</ele>
        <time>2022-06-27T10:03:51.000Z</time>
      </trkpt>
      <trkpt lat="43.46878" lon="6.84788">
        <ele>84.599998474121</ele>
        <time>2022-06-27T10:03:52.000Z</time>
      </trkpt>
      <trkpt lat="43.46899" lon="6.84771">
        <ele>85.199996948242</ele>
        <time>2022-06-27T10:03:57.000Z</time>
      </trkpt>
      <trkpt lat="43.46906" lon="6.84763">
        <ele>85.400001525879</ele>
        <time>2022-06-27T10:03:59.000Z</time>
      </trkpt>
      <trkpt lat="43.46917" lon="6.8475">
        <ele>85.599998474121</ele>
        <time>2022-06-27T10:04:02.000Z</time>
      </trkpt>
      <trkpt lat="43.46921" lon="6.84745">
        <ele>85.599998474121</ele>
        <time>2022-06-27T10:04:03.000Z</time>
      </trkpt>
      <trkpt lat="43.46933" lon="6.84723">
        <ele>85.800003051758</ele>
        <time>2022-06-27T10:04:07.000Z</time>
      </trkpt>
      <trkpt lat="43.46943" lon="6.84709">
        <ele>85.800003051758</ele>
        <time>2022-06-27T10:04:10.000Z</time>
      </trkpt>
      <trkpt lat="43.46968" lon="6.84677">
        <ele>86.199996948242</ele>
        <time>2022-06-27T10:04:17.000Z</time>
      </trkpt>
      <trkpt lat="43.46976" lon="6.84669">
        <ele>86.199996948242</ele>
        <time>2022-06-27T10:04:19.000Z</time>
      </trkpt>
      <trkpt lat="43.46993" lon="6.84658">
        <ele>86.800003051758</ele>
        <time>2022-06-27T10:04:23.000Z</time>
      </trkpt>
      <trkpt lat="43.4702" lon="6.84642">
        <ele>87.800003051758</ele>
        <time>2022-06-27T10:04:29.000Z</time>
      </trkpt>
      <trkpt lat="43.47028" lon="6.84637">
        <ele>88</ele>
        <time>2022-06-27T10:04:31.000Z</time>
      </trkpt>
      <trkpt lat="43.47042" lon="6.84634">
        <ele>88.599998474121</ele>
        <time>2022-06-27T10:04:34.000Z</time>
      </trkpt>
      <trkpt lat="43.47051" lon="6.84634">
        <ele>88.800003051758</ele>
        <time>2022-06-27T10:04:36.000Z</time>
      </trkpt>
      <trkpt lat="43.47055" lon="6.84634">
        <ele>88.800003051758</ele>
        <time>2022-06-27T10:04:37.000Z</time>
      </trkpt>
      <trkpt lat="43.4706" lon="6.84635">
        <ele>89</ele>
        <time>2022-06-27T10:04:38.000Z</time>
      </trkpt>
      <trkpt lat="43.47068" lon="6.84634">
        <ele>89</ele>
        <time>2022-06-27T10:04:40.000Z</time>
      </trkpt>
      <trkpt lat="43.47072" lon="6.84632">
        <ele>89</ele>
        <time>2022-06-27T10:04:41.000Z</time>
      </trkpt>
      <trkpt lat="43.47075" lon="6.84628">
        <ele>89.199996948242</ele>
        <time>2022-06-27T10:04:42.000Z</time>
      </trkpt>
      <trkpt lat="43.47078" lon="6.84617">
        <ele>89.199996948242</ele>
        <time>2022-06-27T10:04:44.000Z</time>
      </trkpt>
      <trkpt lat="43.47077" lon="6.84604">
        <ele>89.599998474121</ele>
        <time>2022-06-27T10:04:46.000Z</time>
      </trkpt>
      <trkpt lat="43.47073" lon="6.84591">
        <ele>89.800003051758</ele>
        <time>2022-06-27T10:04:48.000Z</time>
      </trkpt>
      <trkpt lat="43.47069" lon="6.84578">
        <ele>90</ele>
        <time>2022-06-27T10:04:50.000Z</time>
      </trkpt>
      <trkpt lat="43.47056" lon="6.84541">
        <ele>90.599998474121</ele>
        <time>2022-06-27T10:04:56.000Z</time>
      </trkpt>
      <trkpt lat="43.47045" lon="6.84518">
        <ele>91</ele>
        <time>2022-06-27T10:05:00.000Z</time>
      </trkpt>
      <trkpt lat="43.47035" lon="6.84503">
        <ele>91.199996948242</ele>
        <time>2022-06-27T10:05:03.000Z</time>
      </trkpt>
      <trkpt lat="43.47014" lon="6.84465">
        <ele>92</ele>
        <time>2022-06-27T10:05:10.000Z</time>
      </trkpt>
      <trkpt lat="43.47008" lon="6.84453">
        <ele>92.199996948242</ele>
        <time>2022-06-27T10:05:12.000Z</time>
      </trkpt>
      <trkpt lat="43.46995" lon="6.84418">
        <ele>93.199996948242</ele>
        <time>2022-06-27T10:05:18.000Z</time>
      </trkpt>
      <trkpt lat="43.46994" lon="6.84412">
        <ele>93.400001525879</ele>
        <time>2022-06-27T10:05:19.000Z</time>
      </trkpt>
      <trkpt lat="43.46992" lon="6.84406">
        <ele>93.400001525879</ele>
        <time>2022-06-27T10:05:20.000Z</time>
      </trkpt>
      <trkpt lat="43.46986" lon="6.84395">
        <ele>93.800003051758</ele>
        <time>2022-06-27T10:05:22.000Z</time>
      </trkpt>
      <trkpt lat="43.46976" lon="6.84391">
        <ele>94</ele>
        <time>2022-06-27T10:05:24.000Z</time>
      </trkpt>
      <trkpt lat="43.46971" lon="6.84391">
        <ele>94.199996948242</ele>
        <time>2022-06-27T10:05:25.000Z</time>
      </trkpt>
      <trkpt lat="43.46961" lon="6.8439">
        <ele>94.400001525879</ele>
        <time>2022-06-27T10:05:27.000Z</time>
      </trkpt>
      <trkpt lat="43.46952" lon="6.84388">
        <ele>94.599998474121</ele>
        <time>2022-06-27T10:05:29.000Z</time>
      </trkpt>
      <trkpt lat="43.46943" lon="6.84384">
        <ele>94.800003051758</ele>
        <time>2022-06-27T10:05:31.000Z</time>
      </trkpt>
      <trkpt lat="43.46937" lon="6.84375">
        <ele>95.400001525879</ele>
        <time>2022-06-27T10:05:33.000Z</time>
      </trkpt>
      <trkpt lat="43.46936" lon="6.84368">
        <ele>95.599998474121</ele>
        <time>2022-06-27T10:05:34.000Z</time>
      </trkpt>
      <trkpt lat="43.46936" lon="6.84362">
        <ele>95.400001525879</ele>
        <time>2022-06-27T10:05:35.000Z</time>
      </trkpt>
      <trkpt lat="43.46941" lon="6.8435">
        <ele>95.800003051758</ele>
        <time>2022-06-27T10:05:37.000Z</time>
      </trkpt>
      <trkpt lat="43.46957" lon="6.8433">
        <ele>95.800003051758</ele>
        <time>2022-06-27T10:05:41.000Z</time>
      </trkpt>
      <trkpt lat="43.46962" lon="6.84326">
        <ele>95.400001525879</ele>
        <time>2022-06-27T10:05:42.000Z</time>
      </trkpt>
      <trkpt lat="43.46967" lon="6.84321">
        <ele>95.400001525879</ele>
        <time>2022-06-27T10:05:43.000Z</time>
      </trkpt>
      <trkpt lat="43.46976" lon="6.84311">
        <ele>95.400001525879</ele>
        <time>2022-06-27T10:05:45.000Z</time>
      </trkpt>
      <trkpt lat="43.46979" lon="6.84303">
        <ele>95.400001525879</ele>
        <time>2022-06-27T10:05:46.000Z</time>
      </trkpt>
      <trkpt lat="43.46991" lon="6.84248">
        <ele>93.800003051758</ele>
        <time>2022-06-27T10:05:52.000Z</time>
      </trkpt>
      <trkpt lat="43.46993" lon="6.84239">
        <ele>93.599998474121</ele>
        <time>2022-06-27T10:05:53.000Z</time>
      </trkpt>
      <trkpt lat="43.46991" lon="6.84219">
        <ele>93.199996948242</ele>
        <time>2022-06-27T10:05:55.000Z</time>
      </trkpt>
      <trkpt lat="43.46989" lon="6.84209">
        <ele>93</ele>
        <time>2022-06-27T10:05:56.000Z</time>
      </trkpt>
      <trkpt lat="43.46987" lon="6.842">
        <ele>92.800003051758</ele>
        <time>2022-06-27T10:05:57.000Z</time>
      </trkpt>
      <trkpt lat="43.46977" lon="6.8416">
        <ele>92</ele>
        <time>2022-06-27T10:06:01.000Z</time>
      </trkpt>
      <trkpt lat="43.46972" lon="6.84148">
        <ele>91.800003051758</ele>
        <time>2022-06-27T10:06:02.000Z</time>
      </trkpt>
      <trkpt lat="43.46963" lon="6.84132">
        <ele>90.400001525879</ele>
        <time>2022-06-27T10:06:04.000Z</time>
      </trkpt>
      <trkpt lat="43.46954" lon="6.84117">
        <ele>89.599998474121</ele>
        <time>2022-06-27T10:06:06.000Z</time>
      </trkpt>
      <trkpt lat="43.4695" lon="6.84109">
        <ele>89.400001525879</ele>
        <time>2022-06-27T10:06:07.000Z</time>
      </trkpt>
      <trkpt lat="43.46947" lon="6.84102">
        <ele>89.199996948242</ele>
        <time>2022-06-27T10:06:08.000Z</time>
      </trkpt>
      <trkpt lat="43.4694" lon="6.84088">
        <ele>88.199996948242</ele>
        <time>2022-06-27T10:06:12.000Z</time>
      </trkpt>
      <trkpt lat="43.46939" lon="6.84084">
        <ele>88.199996948242</ele>
        <time>2022-06-27T10:06:13.000Z</time>
      </trkpt>
      <trkpt lat="43.46936" lon="6.84074">
        <ele>87.800003051758</ele>
        <time>2022-06-27T10:06:15.000Z</time>
      </trkpt>
      <trkpt lat="43.4693" lon="6.84071">
        <ele>87.400001525879</ele>
        <time>2022-06-27T10:06:17.000Z</time>
      </trkpt>
      <trkpt lat="43.46926" lon="6.84071">
        <ele>87.199996948242</ele>
        <time>2022-06-27T10:06:18.000Z</time>
      </trkpt>
      <trkpt lat="43.46917" lon="6.84072">
        <ele>86.800003051758</ele>
        <time>2022-06-27T10:06:20.000Z</time>
      </trkpt>
      <trkpt lat="43.46907" lon="6.84076">
        <ele>86.199996948242</ele>
        <time>2022-06-27T10:06:22.000Z</time>
      </trkpt>
      <trkpt lat="43.469" lon="6.84078">
        <ele>86.199996948242</ele>
        <time>2022-06-27T10:06:23.000Z</time>
      </trkpt>
      <trkpt lat="43.46873" lon="6.84084">
        <ele>84.800003051758</ele>
        <time>2022-06-27T10:06:27.000Z</time>
      </trkpt>
      <trkpt lat="43.46866" lon="6.84085">
        <ele>84</ele>
        <time>2022-06-27T10:06:28.000Z</time>
      </trkpt>
      <trkpt lat="43.46858" lon="6.84085">
        <ele>83.400001525879</ele>
        <time>2022-06-27T10:06:29.000Z</time>
      </trkpt>
      <trkpt lat="43.46833" lon="6.84083">
        <ele>82.199996948242</ele>
        <time>2022-06-27T10:06:32.000Z</time>
      </trkpt>
      <trkpt lat="43.46824" lon="6.84081">
        <ele>81.800003051758</ele>
        <time>2022-06-27T10:06:33.000Z</time>
      </trkpt>
      <trkpt lat="43.46806" lon="6.84078">
        <ele>81</ele>
        <time>2022-06-27T10:06:35.000Z</time>
      </trkpt>
      <trkpt lat="43.46777" lon="6.84074">
        <ele>79.400001525879</ele>
        <time>2022-06-27T10:06:38.000Z</time>
      </trkpt>
      <trkpt lat="43.46752" lon="6.84079">
        <ele>78.400001525879</ele>
        <time>2022-06-27T10:06:41.000Z</time>
      </trkpt>
      <trkpt lat="43.46745" lon="6.8408">
        <ele>78.199996948242</ele>
        <time>2022-06-27T10:06:42.000Z</time>
      </trkpt>
      <trkpt lat="43.46739" lon="6.84077">
        <ele>77.199996948242</ele>
        <time>2022-06-27T10:06:43.000Z</time>
      </trkpt>
      <trkpt lat="43.46733" lon="6.84073">
        <ele>76.599998474121</ele>
        <time>2022-06-27T10:06:44.000Z</time>
      </trkpt>
      <trkpt lat="43.46727" lon="6.84068">
        <ele>76.400001525879</ele>
        <time>2022-06-27T10:06:45.000Z</time>
      </trkpt>
      <trkpt lat="43.46721" lon="6.84062">
        <ele>75.599998474121</ele>
        <time>2022-06-27T10:06:46.000Z</time>
      </trkpt>
      <trkpt lat="43.46713" lon="6.84057">
        <ele>75.400001525879</ele>
        <time>2022-06-27T10:06:47.000Z</time>
      </trkpt>
      <trkpt lat="43.467" lon="6.84052">
        <ele>74.800003051758</ele>
        <time>2022-06-27T10:06:49.000Z</time>
      </trkpt>
      <trkpt lat="43.46693" lon="6.84052">
        <ele>74.400001525879</ele>
        <time>2022-06-27T10:06:50.000Z</time>
      </trkpt>
      <trkpt lat="43.46656" lon="6.84049">
        <ele>73.599998474121</ele>
        <time>2022-06-27T10:06:55.000Z</time>
      </trkpt>
      <trkpt lat="43.46641" lon="6.84054">
        <ele>73.400001525879</ele>
        <time>2022-06-27T10:06:57.000Z</time>
      </trkpt>
      <trkpt lat="43.46635" lon="6.84058">
        <ele>72.800003051758</ele>
        <time>2022-06-27T10:06:58.000Z</time>
      </trkpt>
      <trkpt lat="43.46616" lon="6.84073">
        <ele>71.599998474121</ele>
        <time>2022-06-27T10:07:01.000Z</time>
      </trkpt>
      <trkpt lat="43.46611" lon="6.84077">
        <ele>71.400001525879</ele>
        <time>2022-06-27T10:07:02.000Z</time>
      </trkpt>
      <trkpt lat="43.46604" lon="6.84081">
        <ele>70.800003051758</ele>
        <time>2022-06-27T10:07:03.000Z</time>
      </trkpt>
      <trkpt lat="43.46591" lon="6.84087">
        <ele>70.199996948242</ele>
        <time>2022-06-27T10:07:05.000Z</time>
      </trkpt>
      <trkpt lat="43.46578" lon="6.84087">
        <ele>69.400001525879</ele>
        <time>2022-06-27T10:07:07.000Z</time>
      </trkpt>
      <trkpt lat="43.46572" lon="6.84085">
        <ele>69</ele>
        <time>2022-06-27T10:07:08.000Z</time>
      </trkpt>
      <trkpt lat="43.46567" lon="6.84082">
        <ele>68.800003051758</ele>
        <time>2022-06-27T10:07:09.000Z</time>
      </trkpt>
      <trkpt lat="43.46562" lon="6.84082">
        <ele>68.599998474121</ele>
        <time>2022-06-27T10:07:10.000Z</time>
      </trkpt>
      <trkpt lat="43.46557" lon="6.84085">
        <ele>68.400001525879</ele>
        <time>2022-06-27T10:07:11.000Z</time>
      </trkpt>
      <trkpt lat="43.46555" lon="6.84091">
        <ele>68</ele>
        <time>2022-06-27T10:07:12.000Z</time>
      </trkpt>
      <trkpt lat="43.46555" lon="6.84099">
        <ele>67.599998474121</ele>
        <time>2022-06-27T10:07:13.000Z</time>
      </trkpt>
      <trkpt lat="43.46559" lon="6.84114">
        <ele>66.800003051758</ele>
        <time>2022-06-27T10:07:15.000Z</time>
      </trkpt>
      <trkpt lat="43.46562" lon="6.84122">
        <ele>66.599998474121</ele>
        <time>2022-06-27T10:07:16.000Z</time>
      </trkpt>
      <trkpt lat="43.46565" lon="6.8413">
        <ele>66.400001525879</ele>
        <time>2022-06-27T10:07:17.000Z</time>
      </trkpt>
      <trkpt lat="43.46567" lon="6.84138">
        <ele>66.199996948242</ele>
        <time>2022-06-27T10:07:18.000Z</time>
      </trkpt>
      <trkpt lat="43.46567" lon="6.84155">
        <ele>65.800003051758</ele>
        <time>2022-06-27T10:07:20.000Z</time>
      </trkpt>
      <trkpt lat="43.46565" lon="6.84163">
        <ele>65.599998474121</ele>
        <time>2022-06-27T10:07:21.000Z</time>
      </trkpt>
      <trkpt lat="43.46563" lon="6.84172">
        <ele>65.199996948242</ele>
        <time>2022-06-27T10:07:22.000Z</time>
      </trkpt>
      <trkpt lat="43.46556" lon="6.84197">
        <ele>64.400001525879</ele>
        <time>2022-06-27T10:07:25.000Z</time>
      </trkpt>
      <trkpt lat="43.46548" lon="6.84213">
        <ele>63.599998474121</ele>
        <time>2022-06-27T10:07:27.000Z</time>
      </trkpt>
      <trkpt lat="43.46534" lon="6.84237">
        <ele>62.599998474121</ele>
        <time>2022-06-27T10:07:30.000Z</time>
      </trkpt>
      <trkpt lat="43.46522" lon="6.84261">
        <ele>61.599998474121</ele>
        <time>2022-06-27T10:07:33.000Z</time>
      </trkpt>
      <trkpt lat="43.46518" lon="6.8427">
        <ele>61.200000762939</ele>
        <time>2022-06-27T10:07:34.000Z</time>
      </trkpt>
      <trkpt lat="43.46514" lon="6.84279">
        <ele>60.799999237061</ele>
        <time>2022-06-27T10:07:35.000Z</time>
      </trkpt>
      <trkpt lat="43.46505" lon="6.84294">
        <ele>60</ele>
        <time>2022-06-27T10:07:37.000Z</time>
      </trkpt>
      <trkpt lat="43.46499" lon="6.84301">
        <ele>59.799999237061</ele>
        <time>2022-06-27T10:07:38.000Z</time>
      </trkpt>
      <trkpt lat="43.4648" lon="6.84315">
        <ele>59.200000762939</ele>
        <time>2022-06-27T10:07:41.000Z</time>
      </trkpt>
      <trkpt lat="43.46473" lon="6.84318">
        <ele>58.599998474121</ele>
        <time>2022-06-27T10:07:42.000Z</time>
      </trkpt>
      <trkpt lat="43.46451" lon="6.84324">
        <ele>57.200000762939</ele>
        <time>2022-06-27T10:07:45.000Z</time>
      </trkpt>
      <trkpt lat="43.46444" lon="6.84326">
        <ele>56.400001525879</ele>
        <time>2022-06-27T10:07:46.000Z</time>
      </trkpt>
      <trkpt lat="43.46436" lon="6.84329">
        <ele>55.799999237061</ele>
        <time>2022-06-27T10:07:47.000Z</time>
      </trkpt>
      <trkpt lat="43.46429" lon="6.84334">
        <ele>55.599998474121</ele>
        <time>2022-06-27T10:07:48.000Z</time>
      </trkpt>
      <trkpt lat="43.464" lon="6.84351">
        <ele>54.599998474121</ele>
        <time>2022-06-27T10:07:52.000Z</time>
      </trkpt>
      <trkpt lat="43.46385" lon="6.8436">
        <ele>54</ele>
        <time>2022-06-27T10:07:54.000Z</time>
      </trkpt>
      <trkpt lat="43.46369" lon="6.84369">
        <ele>53.200000762939</ele>
        <time>2022-06-27T10:07:56.000Z</time>
      </trkpt>
      <trkpt lat="43.46345" lon="6.8438">
        <ele>51.599998474121</ele>
        <time>2022-06-27T10:07:59.000Z</time>
      </trkpt>
      <trkpt lat="43.46334" lon="6.84381">
        <ele>51.400001525879</ele>
        <time>2022-06-27T10:08:00.000Z</time>
      </trkpt>
      <trkpt lat="43.46311" lon="6.84381">
        <ele>50.400001525879</ele>
        <time>2022-06-27T10:08:03.000Z</time>
      </trkpt>
      <trkpt lat="43.46284" lon="6.84377">
        <ele>49.200000762939</ele>
        <time>2022-06-27T10:08:06.000Z</time>
      </trkpt>
      <trkpt lat="43.46267" lon="6.84369">
        <ele>48</ele>
        <time>2022-06-27T10:08:08.000Z</time>
      </trkpt>
      <trkpt lat="43.46249" lon="6.84356">
        <ele>47.599998474121</ele>
        <time>2022-06-27T10:08:10.000Z</time>
      </trkpt>
      <trkpt lat="43.46232" lon="6.84345">
        <ele>46.799999237061</ele>
        <time>2022-06-27T10:08:12.000Z</time>
      </trkpt>
      <trkpt lat="43.46207" lon="6.84327">
        <ele>45.599998474121</ele>
        <time>2022-06-27T10:08:15.000Z</time>
      </trkpt>
      <trkpt lat="43.462" lon="6.8432">
        <ele>45.200000762939</ele>
        <time>2022-06-27T10:08:16.000Z</time>
      </trkpt>
      <trkpt lat="43.46189" lon="6.84303">
        <ele>44.400001525879</ele>
        <time>2022-06-27T10:08:18.000Z</time>
      </trkpt>
      <trkpt lat="43.46184" lon="6.84294">
        <ele>44.200000762939</ele>
        <time>2022-06-27T10:08:19.000Z</time>
      </trkpt>
      <trkpt lat="43.46173" lon="6.84275">
        <ele>43</ele>
        <time>2022-06-27T10:08:21.000Z</time>
      </trkpt>
      <trkpt lat="43.46158" lon="6.84259">
        <ele>42.200000762939</ele>
        <time>2022-06-27T10:08:23.000Z</time>
      </trkpt>
      <trkpt lat="43.4615" lon="6.84253">
        <ele>42</ele>
        <time>2022-06-27T10:08:24.000Z</time>
      </trkpt>
      <trkpt lat="43.46134" lon="6.84238">
        <ele>40.400001525879</ele>
        <time>2022-06-27T10:08:26.000Z</time>
      </trkpt>
      <trkpt lat="43.4611" lon="6.84215">
        <ele>39.400001525879</ele>
        <time>2022-06-27T10:08:29.000Z</time>
      </trkpt>
      <trkpt lat="43.46098" lon="6.84203">
        <ele>38</ele>
        <time>2022-06-27T10:08:31.000Z</time>
      </trkpt>
      <trkpt lat="43.46088" lon="6.84194">
        <ele>36</ele>
        <time>2022-06-27T10:08:33.000Z</time>
      </trkpt>
      <trkpt lat="43.4608" lon="6.84187">
        <ele>35.200000762939</ele>
        <time>2022-06-27T10:08:36.000Z</time>
      </trkpt>
      <trkpt lat="43.4608" lon="6.84186">
        <ele>34.400001525879</ele>
        <time>2022-06-27T10:08:39.000Z</time>
      </trkpt>
      <trkpt lat="43.4608" lon="6.84186">
        <ele>34</ele>
        <time>2022-06-27T10:08:41.000Z</time>
      </trkpt>
      <trkpt lat="43.46074" lon="6.84185">
        <ele>33.599998474121</ele>
        <time>2022-06-27T10:08:49.000Z</time>
      </trkpt>
      <trkpt lat="43.46059" lon="6.84181">
        <ele>33</ele>
        <time>2022-06-27T10:08:53.000Z</time>
      </trkpt>
      <trkpt lat="43.46037" lon="6.84181">
        <ele>32.400001525879</ele>
        <time>2022-06-27T10:08:58.000Z</time>
      </trkpt>
      <trkpt lat="43.46031" lon="6.84178">
        <ele>32.200000762939</ele>
        <time>2022-06-27T10:08:59.000Z</time>
      </trkpt>
      <trkpt lat="43.46017" lon="6.84169">
        <ele>32</ele>
        <time>2022-06-27T10:09:02.000Z</time>
      </trkpt>
      <trkpt lat="43.4601" lon="6.84162">
        <ele>31.799999237061</ele>
        <time>2022-06-27T10:09:04.000Z</time>
      </trkpt>
      <trkpt lat="43.46005" lon="6.84158">
        <ele>31.799999237061</ele>
        <time>2022-06-27T10:09:05.000Z</time>
      </trkpt>
      <trkpt lat="43.45997" lon="6.84149">
        <ele>31</ele>
        <time>2022-06-27T10:09:07.000Z</time>
      </trkpt>
      <trkpt lat="43.45983" lon="6.84133">
        <ele>30.200000762939</ele>
        <time>2022-06-27T10:09:10.000Z</time>
      </trkpt>
      <trkpt lat="43.45973" lon="6.8412">
        <ele>29.799999237061</ele>
        <time>2022-06-27T10:09:12.000Z</time>
      </trkpt>
      <trkpt lat="43.45957" lon="6.84105">
        <ele>29</ele>
        <time>2022-06-27T10:09:15.000Z</time>
      </trkpt>
      <trkpt lat="43.45951" lon="6.84101">
        <ele>28.60000038147</ele>
        <time>2022-06-27T10:09:16.000Z</time>
      </trkpt>
      <trkpt lat="43.45946" lon="6.84098">
        <ele>28.200000762939</ele>
        <time>2022-06-27T10:09:17.000Z</time>
      </trkpt>
      <trkpt lat="43.45928" lon="6.84093">
        <ele>27.200000762939</ele>
        <time>2022-06-27T10:09:20.000Z</time>
      </trkpt>
      <trkpt lat="43.4591" lon="6.84093">
        <ele>26.39999961853</ele>
        <time>2022-06-27T10:09:23.000Z</time>
      </trkpt>
      <trkpt lat="43.45905" lon="6.84094">
        <ele>26</ele>
        <time>2022-06-27T10:09:24.000Z</time>
      </trkpt>
      <trkpt lat="43.45899" lon="6.84095">
        <ele>26</ele>
        <time>2022-06-27T10:09:25.000Z</time>
      </trkpt>
      <trkpt lat="43.45878" lon="6.84095">
        <ele>25.39999961853</ele>
        <time>2022-06-27T10:09:29.000Z</time>
      </trkpt>
      <trkpt lat="43.45867" lon="6.8409">
        <ele>25.200000762939</ele>
        <time>2022-06-27T10:09:31.000Z</time>
      </trkpt>
      <trkpt lat="43.45859" lon="6.84084">
        <ele>25</ele>
        <time>2022-06-27T10:09:33.000Z</time>
      </trkpt>
      <trkpt lat="43.4584" lon="6.84064">
        <ele>24</ele>
        <time>2022-06-27T10:09:37.000Z</time>
      </trkpt>
      <trkpt lat="43.45831" lon="6.84053">
        <ele>22.60000038147</ele>
        <time>2022-06-27T10:09:39.000Z</time>
      </trkpt>
      <trkpt lat="43.45823" lon="6.84041">
        <ele>21.39999961853</ele>
        <time>2022-06-27T10:09:41.000Z</time>
      </trkpt>
      <trkpt lat="43.45811" lon="6.84023">
        <ele>19.799999237061</ele>
        <time>2022-06-27T10:09:44.000Z</time>
      </trkpt>
      <trkpt lat="43.45802" lon="6.84012">
        <ele>18.60000038147</ele>
        <time>2022-06-27T10:09:46.000Z</time>
      </trkpt>
      <trkpt lat="43.45791" lon="6.84003">
        <ele>17.200000762939</ele>
        <time>2022-06-27T10:09:48.000Z</time>
      </trkpt>
      <trkpt lat="43.45785" lon="6.83999">
        <ele>17</ele>
        <time>2022-06-27T10:09:49.000Z</time>
      </trkpt>
      <trkpt lat="43.4578" lon="6.83995">
        <ele>16.39999961853</ele>
        <time>2022-06-27T10:09:50.000Z</time>
      </trkpt>
      <trkpt lat="43.45774" lon="6.83992">
        <ele>16</ele>
        <time>2022-06-27T10:09:51.000Z</time>
      </trkpt>
      <trkpt lat="43.45769" lon="6.83988">
        <ele>15.60000038147</ele>
        <time>2022-06-27T10:09:52.000Z</time>
      </trkpt>
      <trkpt lat="43.45764" lon="6.83981">
        <ele>15</ele>
        <time>2022-06-27T10:09:53.000Z</time>
      </trkpt>
      <trkpt lat="43.45759" lon="6.83974">
        <ele>14.800000190735</ele>
        <time>2022-06-27T10:09:54.000Z</time>
      </trkpt>
      <trkpt lat="43.45752" lon="6.83957">
        <ele>13.800000190735</ele>
        <time>2022-06-27T10:09:56.000Z</time>
      </trkpt>
      <trkpt lat="43.45749" lon="6.83949">
        <ele>13</ele>
        <time>2022-06-27T10:09:57.000Z</time>
      </trkpt>
      <trkpt lat="43.45746" lon="6.83941">
        <ele>12.199999809265</ele>
        <time>2022-06-27T10:09:58.000Z</time>
      </trkpt>
      <trkpt lat="43.45738" lon="6.83913">
        <ele>11.60000038147</ele>
        <time>2022-06-27T10:10:02.000Z</time>
      </trkpt>
      <trkpt lat="43.4573" lon="6.83881">
        <ele>12.199999809265</ele>
        <time>2022-06-27T10:10:08.000Z</time>
      </trkpt>
      <trkpt lat="43.45725" lon="6.83846">
        <ele>13.39999961853</ele>
        <time>2022-06-27T10:10:14.000Z</time>
      </trkpt>
      <trkpt lat="43.45724" lon="6.8384">
        <ele>13.39999961853</ele>
        <time>2022-06-27T10:10:15.000Z</time>
      </trkpt>
      <trkpt lat="43.45726" lon="6.83817">
        <ele>13.60000038147</ele>
        <time>2022-06-27T10:10:19.000Z</time>
      </trkpt>
      <trkpt lat="43.45729" lon="6.83799">
        <ele>14.199999809265</ele>
        <time>2022-06-27T10:10:22.000Z</time>
      </trkpt>
      <trkpt lat="43.45731" lon="6.83788">
        <ele>14.800000190735</ele>
        <time>2022-06-27T10:10:24.000Z</time>
      </trkpt>
      <trkpt lat="43.45733" lon="6.83772">
        <ele>16</ele>
        <time>2022-06-27T10:10:27.000Z</time>
      </trkpt>
      <trkpt lat="43.45734" lon="6.83755">
        <ele>16.799999237061</ele>
        <time>2022-06-27T10:10:30.000Z</time>
      </trkpt>
      <trkpt lat="43.45734" lon="6.83744">
        <ele>17.200000762939</ele>
        <time>2022-06-27T10:10:32.000Z</time>
      </trkpt>
      <trkpt lat="43.45735" lon="6.83717">
        <ele>18.60000038147</ele>
        <time>2022-06-27T10:10:37.000Z</time>
      </trkpt>
      <trkpt lat="43.45734" lon="6.83711">
        <ele>18.60000038147</ele>
        <time>2022-06-27T10:10:38.000Z</time>
      </trkpt>
      <trkpt lat="43.45734" lon="6.83706">
        <ele>19</ele>
        <time>2022-06-27T10:10:39.000Z</time>
      </trkpt>
      <trkpt lat="43.45731" lon="6.83696">
        <ele>19.799999237061</ele>
        <time>2022-06-27T10:10:41.000Z</time>
      </trkpt>
      <trkpt lat="43.45728" lon="6.83686">
        <ele>20.60000038147</ele>
        <time>2022-06-27T10:10:43.000Z</time>
      </trkpt>
      <trkpt lat="43.45725" lon="6.83681">
        <ele>20.799999237061</ele>
        <time>2022-06-27T10:10:44.000Z</time>
      </trkpt>
      <trkpt lat="43.45714" lon="6.83657">
        <ele>21.799999237061</ele>
        <time>2022-06-27T10:10:49.000Z</time>
      </trkpt>
      <trkpt lat="43.45706" lon="6.83641">
        <ele>22.60000038147</ele>
        <time>2022-06-27T10:10:52.000Z</time>
      </trkpt>
      <trkpt lat="43.45701" lon="6.8363">
        <ele>23</ele>
        <time>2022-06-27T10:10:54.000Z</time>
      </trkpt>
      <trkpt lat="43.45699" lon="6.83626">
        <ele>23.200000762939</ele>
        <time>2022-06-27T10:10:55.000Z</time>
      </trkpt>
      <trkpt lat="43.45694" lon="6.83608">
        <ele>24</ele>
        <time>2022-06-27T10:10:58.000Z</time>
      </trkpt>
      <trkpt lat="43.45691" lon="6.83596">
        <ele>24.39999961853</ele>
        <time>2022-06-27T10:11:00.000Z</time>
      </trkpt>
      <trkpt lat="43.4569" lon="6.8359">
        <ele>24.60000038147</ele>
        <time>2022-06-27T10:11:01.000Z</time>
      </trkpt>
      <trkpt lat="43.45687" lon="6.83572">
        <ele>25</ele>
        <time>2022-06-27T10:11:04.000Z</time>
      </trkpt>
      <trkpt lat="43.45685" lon="6.83553">
        <ele>25.799999237061</ele>
        <time>2022-06-27T10:11:07.000Z</time>
      </trkpt>
      <trkpt lat="43.45684" lon="6.83539">
        <ele>26.200000762939</ele>
        <time>2022-06-27T10:11:09.000Z</time>
      </trkpt>
      <trkpt lat="43.45685" lon="6.83504">
        <ele>27.39999961853</ele>
        <time>2022-06-27T10:11:14.000Z</time>
      </trkpt>
      <trkpt lat="43.45686" lon="6.83497">
        <ele>27.39999961853</ele>
        <time>2022-06-27T10:11:15.000Z</time>
      </trkpt>
      <trkpt lat="43.45689" lon="6.8347">
        <ele>28.39999961853</ele>
        <time>2022-06-27T10:11:19.000Z</time>
      </trkpt>
      <trkpt lat="43.45691" lon="6.83444">
        <ele>29.799999237061</ele>
        <time>2022-06-27T10:11:23.000Z</time>
      </trkpt>
      <trkpt lat="43.4569" lon="6.8343">
        <ele>30.39999961853</ele>
        <time>2022-06-27T10:11:25.000Z</time>
      </trkpt>
      <trkpt lat="43.45689" lon="6.83416">
        <ele>30.799999237061</ele>
        <time>2022-06-27T10:11:27.000Z</time>
      </trkpt>
      <trkpt lat="43.45687" lon="6.8339">
        <ele>32</ele>
        <time>2022-06-27T10:11:31.000Z</time>
      </trkpt>
      <trkpt lat="43.45683" lon="6.83369">
        <ele>32.599998474121</ele>
        <time>2022-06-27T10:11:34.000Z</time>
      </trkpt>
      <trkpt lat="43.4568" lon="6.83355">
        <ele>33</ele>
        <time>2022-06-27T10:11:36.000Z</time>
      </trkpt>
      <trkpt lat="43.45674" lon="6.83329">
        <ele>34</ele>
        <time>2022-06-27T10:11:40.000Z</time>
      </trkpt>
      <trkpt lat="43.45673" lon="6.83322">
        <ele>34</ele>
        <time>2022-06-27T10:11:41.000Z</time>
      </trkpt>
      <trkpt lat="43.45667" lon="6.83302">
        <ele>34.799999237061</ele>
        <time>2022-06-27T10:11:44.000Z</time>
      </trkpt>
      <trkpt lat="43.45665" lon="6.83296">
        <ele>35.200000762939</ele>
        <time>2022-06-27T10:11:45.000Z</time>
      </trkpt>
      <trkpt lat="43.45657" lon="6.83271">
        <ele>36.400001525879</ele>
        <time>2022-06-27T10:11:50.000Z</time>
      </trkpt>
      <trkpt lat="43.45649" lon="6.83246">
        <ele>37.400001525879</ele>
        <time>2022-06-27T10:11:53.000Z</time>
      </trkpt>
      <trkpt lat="43.45644" lon="6.83235">
        <ele>37.599998474121</ele>
        <time>2022-06-27T10:11:55.000Z</time>
      </trkpt>
      <trkpt lat="43.45633" lon="6.83212">
        <ele>38.400001525879</ele>
        <time>2022-06-27T10:11:59.000Z</time>
      </trkpt>
      <trkpt lat="43.45619" lon="6.83182">
        <ele>39.599998474121</ele>
        <time>2022-06-27T10:12:04.000Z</time>
      </trkpt>
      <trkpt lat="43.45605" lon="6.83152">
        <ele>40.599998474121</ele>
        <time>2022-06-27T10:12:09.000Z</time>
      </trkpt>
      <trkpt lat="43.45601" lon="6.8314">
        <ele>41</ele>
        <time>2022-06-27T10:12:11.000Z</time>
      </trkpt>
      <trkpt lat="43.45599" lon="6.83133">
        <ele>41.200000762939</ele>
        <time>2022-06-27T10:12:12.000Z</time>
      </trkpt>
      <trkpt lat="43.45595" lon="6.8312">
        <ele>41.599998474121</ele>
        <time>2022-06-27T10:12:14.000Z</time>
      </trkpt>
      <trkpt lat="43.4559" lon="6.83093">
        <ele>42.799999237061</ele>
        <time>2022-06-27T10:12:18.000Z</time>
      </trkpt>
      <trkpt lat="43.4559" lon="6.83093">
        <ele>43.400001525879</ele>
        <time>2022-06-27T10:12:19.000Z</time>
      </trkpt>
      <trkpt lat="43.45589" lon="6.83086">
        <ele>43.799999237061</ele>
        <time>2022-06-27T10:12:20.000Z</time>
      </trkpt>
      <trkpt lat="43.45588" lon="6.83065">
        <ele>45</ele>
        <time>2022-06-27T10:12:22.000Z</time>
      </trkpt>
      <trkpt lat="43.45583" lon="6.83032">
        <ele>46.200000762939</ele>
        <time>2022-06-27T10:12:27.000Z</time>
      </trkpt>
      <trkpt lat="43.45582" lon="6.83026">
        <ele>46.400001525879</ele>
        <time>2022-06-27T10:12:28.000Z</time>
      </trkpt>
      <trkpt lat="43.45579" lon="6.83013">
        <ele>47.599998474121</ele>
        <time>2022-06-27T10:12:31.000Z</time>
      </trkpt>
      <trkpt lat="43.45574" lon="6.82995">
        <ele>48.799999237061</ele>
        <time>2022-06-27T10:12:33.000Z</time>
      </trkpt>
      <trkpt lat="43.45568" lon="6.82977">
        <ele>50</ele>
        <time>2022-06-27T10:12:36.000Z</time>
      </trkpt>
      <trkpt lat="43.45557" lon="6.82955">
        <ele>51</ele>
        <time>2022-06-27T10:12:40.000Z</time>
      </trkpt>
      <trkpt lat="43.45557" lon="6.82955">
        <ele>51.400001525879</ele>
        <time>2022-06-27T10:12:41.000Z</time>
      </trkpt>
      <trkpt lat="43.45549" lon="6.82949">
        <ele>51.400001525879</ele>
        <time>2022-06-27T10:12:42.000Z</time>
      </trkpt>
      <trkpt lat="43.45539" lon="6.8295">
        <ele>52</ele>
        <time>2022-06-27T10:12:44.000Z</time>
      </trkpt>
      <trkpt lat="43.45535" lon="6.82954">
        <ele>52.200000762939</ele>
        <time>2022-06-27T10:12:45.000Z</time>
      </trkpt>
      <trkpt lat="43.45533" lon="6.8296">
        <ele>53</ele>
        <time>2022-06-27T10:12:46.000Z</time>
      </trkpt>
      <trkpt lat="43.45529" lon="6.82972">
        <ele>53.599998474121</ele>
        <time>2022-06-27T10:12:48.000Z</time>
      </trkpt>
      <trkpt lat="43.45529" lon="6.82979">
        <ele>53.799999237061</ele>
        <time>2022-06-27T10:12:49.000Z</time>
      </trkpt>
      <trkpt lat="43.45529" lon="6.82993">
        <ele>54.200000762939</ele>
        <time>2022-06-27T10:12:51.000Z</time>
      </trkpt>
      <trkpt lat="43.45528" lon="6.83032">
        <ele>55.200000762939</ele>
        <time>2022-06-27T10:12:57.000Z</time>
      </trkpt>
      <trkpt lat="43.45527" lon="6.83038">
        <ele>55.799999237061</ele>
        <time>2022-06-27T10:12:58.000Z</time>
      </trkpt>
      <trkpt lat="43.45525" lon="6.83051">
        <ele>56.400001525879</ele>
        <time>2022-06-27T10:13:00.000Z</time>
      </trkpt>
      <trkpt lat="43.45518" lon="6.83081">
        <ele>57.599998474121</ele>
        <time>2022-06-27T10:13:06.000Z</time>
      </trkpt>
      <trkpt lat="43.45515" lon="6.83099">
        <ele>59</ele>
        <time>2022-06-27T10:13:08.000Z</time>
      </trkpt>
      <trkpt lat="43.45506" lon="6.83141">
        <ele>60</ele>
        <time>2022-06-27T10:13:15.000Z</time>
      </trkpt>
      <trkpt lat="43.45504" lon="6.83147">
        <ele>60</ele>
        <time>2022-06-27T10:13:16.000Z</time>
      </trkpt>
      <trkpt lat="43.45495" lon="6.83187">
        <ele>60.599998474121</ele>
        <time>2022-06-27T10:13:23.000Z</time>
      </trkpt>
      <trkpt lat="43.45491" lon="6.83199">
        <ele>61</ele>
        <time>2022-06-27T10:13:25.000Z</time>
      </trkpt>
      <trkpt lat="43.45482" lon="6.83217">
        <ele>61.599998474121</ele>
        <time>2022-06-27T10:13:28.000Z</time>
      </trkpt>
      <trkpt lat="43.45475" lon="6.83228">
        <ele>61.799999237061</ele>
        <time>2022-06-27T10:13:30.000Z</time>
      </trkpt>
      <trkpt lat="43.45466" lon="6.83235">
        <ele>61.799999237061</ele>
        <time>2022-06-27T10:13:32.000Z</time>
      </trkpt>
      <trkpt lat="43.45454" lon="6.83241">
        <ele>61.400001525879</ele>
        <time>2022-06-27T10:13:35.000Z</time>
      </trkpt>
      <trkpt lat="43.45445" lon="6.83244">
        <ele>59.799999237061</ele>
        <time>2022-06-27T10:13:38.000Z</time>
      </trkpt>
      <trkpt lat="43.45441" lon="6.83244">
        <ele>59.599998474121</ele>
        <time>2022-06-27T10:13:40.000Z</time>
      </trkpt>
      <trkpt lat="43.45438" lon="6.83244">
        <ele>59.400001525879</ele>
        <time>2022-06-27T10:13:42.000Z</time>
      </trkpt>
      <trkpt lat="43.45435" lon="6.83247">
        <ele>59.599998474121</ele>
        <time>2022-06-27T10:13:45.000Z</time>
      </trkpt>
      <trkpt lat="43.45432" lon="6.8325">
        <ele>59.599998474121</ele>
        <time>2022-06-27T10:13:47.000Z</time>
      </trkpt>
      <trkpt lat="43.45427" lon="6.83254">
        <ele>59.799999237061</ele>
        <time>2022-06-27T10:13:50.000Z</time>
      </trkpt>
      <trkpt lat="43.45426" lon="6.83256">
        <ele>59.799999237061</ele>
        <time>2022-06-27T10:13:51.000Z</time>
      </trkpt>
      <trkpt lat="43.45426" lon="6.83258">
        <ele>60</ele>
        <time>2022-06-27T10:13:52.000Z</time>
      </trkpt>
      <trkpt lat="43.45428" lon="6.83261">
        <ele>60.200000762939</ele>
        <time>2022-06-27T10:13:56.000Z</time>
      </trkpt>
      <trkpt lat="43.45428" lon="6.83261">
        <ele>60</ele>
        <time>2022-06-27T10:14:01.000Z</time>
      </trkpt>
    </trkseg>
  </trk>
</gpx>